     2              OBSERVATION DATA    GPS                 RINEX VERSION / TYPE
ASRINEXO V2.8.2 VM                                          PGM / RUN BY / DATE
                                                            COMMENT
BIT 2 OF LLI (+4) FLAGS DATA COLLECTED UNDER "AS" CONDITION COMMENT
Original Marker Name: 1107                                  COMMENT
Campaign Name: hpgn ca 1991                                 COMMENT
4-Character Station Name: 1107                              COMMENT
6-Character Antenna Code: ASHL12                            COMMENT
Vertical Measurement Point: BAS                             COMMENT
Vertical Offset to Rinex Ref. Point: 0.0000                 COMMENT
Radial Measurement Point: RRP                               COMMENT
Radial Offset to Rinex Ref. Point: 0.0000                   COMMENT
Antenna Height from Field Measurement: 2.2200 m             COMMENT
Original XYZ: -2435448.4000 -4779836.6200 3438453.0200      COMMENT
New XYZ position is based on association with SCEC monument COMMENT
E1C8S6V7+0011. Position of that monument is believed to be  COMMENT
valid to within 1 m horizontally; vertical accuracy         COMMENT
should be no worse than 3-times this value.                 COMMENT
                                                            COMMENT
Revised Rinex header created by UCSD GPS archive for        COMMENT
GSAC on 10-Apr-1999 (1999:100) 04:11:02 GMT                 COMMENT
For assistance contact dagnew@ucsd.edu or hjohnson@ucsd.edu COMMENT
                                                            COMMENT
HPGN CALIF STA 11-07                                        MARKER NAME
WGV CALIF DEPT TRANSPORTATION                               OBSERVER / AGENCY
621 ASHTECH L-XII3 6A                                       REC # / TYPE / VERS
713 ASHTECH GEODETIC L                                      ANT # / TYPE
 -2450347.0000 -4752145.0000  3466027.0000                  APPROX POSITION XYZ
        2.2200        0.0000        0.0000                  ANTENNA: DELTA H/E/N
     1     2     0                                          WAVELENGTH FACT L1/2
     3    C1    L1    L2                                    # / TYPES OF OBSERV
     0                                                      INTERVAL
  1991     4     6    20    29   15.000000                  TIME OF FIRST OBS
  1991     4     7     3    30    0.000000                  TIME OF LAST OBS
     0                                                      # OF SATELLITES
                                                            END OF HEADER
 91  4  6 20 29 15.0000000  0  3 11 02 19
  24518104.070           0.062 2         0.242 1
  25002942.840           0.426 2         0.277 1
  21039607.367           0.746 3         0.326 3
 91  4  6 20 29 30.0000000  0  3 11 02 19
  24510679.108      -39047.839 2    -30426.469 1
  24993366.858      -50315.888 2    -39207.436 1
  21038038.278       -8241.176 4     -6421.927 3
 91  4  6 20 29 45.0000000  0  5 11 14 18 02 19
  24503261.648      -78039.302 2    -60809.632 1
  23523151.358           0.058 2         0.322 1
  20321463.235           0.891 4         0.477 3
  24983800.788     -100596.061 2    -78387.035 1
  21036479.659      -16424.425 3    -12798.457 2
 91  4  6 20 30  0.0000000  0  5 11 14 18 02 19
  24495851.064     -116943.403 2    -91124.359 1
  23533605.120       54955.810 2     42822.794 1
  20321748.650        1515.201 4      1180.458 4
  24974238.279     -150809.492 2   -117514.142 1
  21034939.922      -24518.702 3    -19105.660 2
 91  4  6 20 30 15.0000000  0  5 11 14 18 02 19
  24488470.495     -155734.388 2   -121350.877 1
  23544077.170      109997.666 2     85712.307 1
  20322070.921        3204.600 4      2496.865 4
  24964695.592     -200930.662 2   -156569.424 1
  21033420.566      -32498.674 3    -25323.795 3
 91  4  6 20 30 30.0000000  0  5 11 14 18 02 19
  24481113.273     -194399.873 2   -151479.653 1
  23554572.603      165137.318 2    128678.043 1
  20322427.673        5081.586 4      3959.443 4
  24955177.196     -250947.325 2   -195543.673 1
  21031923.687      -40352.300 4    -31443.487 3
 91  4  6 20 30 45.0000000  0  5 11 14 18 02 19
  24473783.065     -232909.885 2   -181487.669 1
  23565094.108      220404.049 2    171742.792 1
  20322827.911        7176.132 4      5591.550 3
  24945690.874     -300829.623 2   -234413.231 1
  21030458.915      -48049.917 3    -37441.593 3
 91  4  6 20 31  0.0000000  0  5 11 14 18 02 19
  24466479.800     -271249.409 2   -211362.439 1
  23575635.121      275811.996 2    214917.622 1
  20323269.786        9502.559 4      7404.347 4
  24936241.686     -350562.904 2   -273166.199 1
  21029029.219      -55577.317 4    -43307.075 3
 91  4  6 20 31 15.0000000  0  5 11 14 18 02 19
  24459229.339     -309417.498 2   -241103.592 1
  23586211.489      331361.137 2    258202.428 1
  20323757.554       12061.630 4      9398.421 4
  24926796.441     -400146.540 2   -311803.012 1
  21027630.689      -62934.037 3    -49039.565 3
 91  4  6 20 31 30.0000000  0  5 11 14 18 02 19
  24451991.129     -347404.504 2   -270704.097 1
  23596805.865      387060.507 2    301604.308 1
  20324288.774       14862.552 4     11580.950 4
  24917386.237     -449570.905 2   -350315.272 1
  21026264.511      -70110.838 3    -54631.850 2
 91  4  6 20 31 45.0000000  0  5 11 14 18 02 19
  24444802.407     -385210.114 2   -300162.779 1
  23607428.720      442909.705 2    345122.973 1
  20324871.297       17905.406 4     13951.998 4
  24908013.830     -498835.895 2   -388703.806 1
  21024929.535      -77107.788 3    -60084.007 2
 91  4  6 20 32  0.0000000  0  5 11 14 18 02 19
  24437643.664     -422826.948 2   -329474.416 1
  23618089.651      498915.533 2    388763.643 1
  20325495.736       21197.415 4     16517.197 4
  24898674.403     -547934.310 2   -426962.549 1
  21023636.543      -83918.114 3    -65390.719 3
 91  4  6 20 32 15.0000000  0  5 11 14 18 02 19
  24430518.810     -460263.438 2   -358645.471 1
  23628775.431      555068.287 2    432518.803 1
  20326167.290       24729.809 4     19269.706 4
  24889358.360     -596874.795 2   -465098.213 1
  21022371.403      -90550.662 3    -70558.914 3
 91  4  6 20 32 30.0000000  0  5 11 14 18 02 19
  24423430.218     -497523.432 2   -387679.011 1
  23639489.411      611363.490 2    476384.988 1
  20326883.796       28498.338 4     22206.219 4
  24880074.670     -645661.375 2   -503113.964 1
  21021145.280      -97009.629 4    -75591.854 2
 91  4  6 20 32 45.0000000  0  5 11 14 18 02 19
  24416369.790     -534597.887 2   -416567.990 1
  23650232.498      667809.541 2    520368.741 1
  20327647.347       32511.637 4     25333.452 4
  24870821.901     -694285.465 2   -541003.071 1
  21019949.975     -103286.577 3    -80482.957 3
 91  4  6 20 33  0.0000000  0  5 11 14 18 02 19
  24409354.942     -571497.701 2   -445320.869 1
  23660998.026      724394.570 2    564461.219 1
  20328457.107       36758.577 4     28642.753 4
  24861600.857     -742758.191 2   -578774.248 1
  21018788.000     -109392.884 3    -85241.090 2
 91  4  6 20 33 15.0000000  0  5 11 14 18 02 19
  24402372.796     -608220.037 2   -473935.912 1
  23671794.755      781120.303 2    608662.864 2
  20329308.224       41241.664 4     32136.065 4
  24852393.634     -791076.921 2   -616425.423 1
  21017658.378     -115326.354 3    -89864.558 3
 91  4  6 20 33 30.0000000  0  5 11 14 18 02 19
  24395402.306     -644774.998 2   -502420.171 1
  23682613.367      837976.156 2    652965.911 1
  20330206.108       45950.757 4     35805.484 4
  24843228.675     -839251.852 2   -653964.530 1
  21016558.735     -121097.310 4    -94361.383 3
 91  4  6 20 33 45.0000000  0  5 11 14 18 02 19
  24388486.087     -681166.230 2   -530776.737 1
  23693454.454      894957.826 2    697366.992 1
  20331142.940       50881.750 4     39647.809 4
  24834087.413     -887286.779 2   -691394.525 1
  21015494.167     -126710.022 3    -98734.901 2
 91  4  6 20 34  0.0000000  0  5 11 14 18 02 19
  24381589.970     -717395.156 2   -559006.934 1
  23704326.428      952063.128 2    741864.866 1
  20332123.573       56032.797 4     43661.603 4
  24824972.536     -935183.391 2   -728716.807 1
  21014455.111     -132166.321 4   -102986.540 3
 91  4  6 20 34 15.0000000  0  5 11 14 18 02 19
  24374720.238     -753460.862 2   -587110.288 1
  23715218.191     1009292.120 2    786458.708 1
  20333144.655       61404.490 4     47847.338 4
  24815890.605     -982940.848 2   -765930.609 1
  21013446.279     -137465.658 3   -107115.871 2
 91  4  6 20 34 30.0000000  0  5 11 14 18 02 19
  24367891.863     -789352.535 2   -615077.759 1
  23726133.931     1066654.673 2    831156.600 2
  20334211.910       67007.561 4     52213.359 4
  24806822.495    -1030548.743 2   -803027.880 1
  21012469.277     -142597.787 4   -111114.917 2
 91  4  6 20 34 45.0000000  0  5 11 14 18 02 19
  24361094.969     -825067.948 2   -642907.707 1
  23737073.681     1124152.200 2    875960.089 1
  20335324.431       72843.842 4     56761.106 4
  24797805.025    -1078004.926 2   -840006.484 1
  21011524.033     -147561.111 4   -114982.414 2
 91  4  6 20 35  0.0000000  0  5 11 14 18 02 19
  24354332.241     -860605.634 2   -670599.598 1
  23748035.594     1181785.458 2    920868.910 1
  20336481.032       78914.484 4     61491.462 4
  24788796.560    -1125308.035 2   -876866.255 1
  21010616.238     -152354.490 4   -118717.496 3
 91  4  6 20 35 15.0000000  0  5 11 14 18 02 19
  24347614.780     -895957.665 2   -698146.458 1
  23759037.363     1239561.562 2    965889.027 1
  20337679.617       85226.747 4     66410.101 4
  24779824.984    -1172450.528 2   -913600.799 1
  21009735.176     -156970.557 4   -122314.416 3
 91  4  6 20 35 30.0000000  0  5 11 14 18 02 19
  24340916.828     -931117.944 2   -725543.883 1
  23770060.735     1297485.850 2   1011024.616 1
  20338928.564       91786.748 4     71521.778 4
  24770891.170    -1219426.718 2   -950205.818 1
  21008891.842     -161403.558 4   -125768.689 2
 91  4  6 20 35 45.0000000  0  5 11 14 18 02 19
  24334260.547     -966090.220 2   -752794.841 1
  23781111.679     1355553.924 2   1056272.222 1
  20340223.650       98590.370 4     76823.295 4
  24761981.334    -1266240.350 2   -986684.198 1
  21008078.523     -165657.677 4   -129083.558 3
 91  4  6 20 36  0.0000000  0  5 11 14 18 02 19
  24327644.123    -1000882.081 2   -779905.604 1
  23792180.317     1413757.082 2   1101625.101 1
  20341564.036      105629.681 4     82308.468 4
  24753096.695    -1312899.229 2  -1023041.913
  21007301.464     -169741.118 4   -132265.446 3
 91  4  6 20 36 15.0000000  0  5 11 14 18 02 19
  24321051.081    -1035499.514 2   -806880.030 1
  23803280.436     1472088.802 2   1147078.156 1
  20342945.779      112898.305 4     87972.312 4
  24744253.413    -1359409.534 2  -1059283.464 1
  21006556.759     -173660.275 4   -135319.315 3
 91  4  6 20 36 30.0000000  0  5 11 14 18 02 19
  24314497.617    -1069950.495 2   -833724.771 1
  23814403.937     1530540.445 2   1192624.669 1
  20344369.193      120387.916 4     93808.367 4
  24735430.827    -1405779.467 2  -1095416.117 1
  21005848.071     -177423.588 3   -138251.754 2
 91  4  6 20 36 45.0000000  0  5 11 14 18 02 19
  24307980.135    -1104238.731 2   -860442.678 1
  23825548.100     1589107.410 2   1238261.025 1
  20345836.966      128094.702 4     99813.646 4
  24726625.308    -1452013.189 2  -1131442.598 1
  21005151.947     -181035.379 4   -141066.115 2
 91  4  6 20 37  0.0000000  0  5 11 14 18 02 19
  24301477.940    -1138371.466 2   -887039.400 1
  23836714.180     1647781.456 2   1283980.859 1
  20347344.036      136010.936 4    105982.133 4
  24717857.585    -1498117.915 2  -1167368.526 1
  21004494.806     -184503.050 4   -143768.182 2
 91  4  6 20 37 15.0000000  0  5 11 14 18 02 19
  24295006.317    -1172348.616 2   -913514.924 1
  23847902.143     1706561.996 2   1329783.633 1
  20348891.871      144136.299 4    112313.575 4
  24709101.555    -1544093.672 2  -1203194.005 1
  21003861.014     -187827.164 4   -146358.391 3
 91  4  6 20 37 30.0000000  0  5 11 14 18 02 19
  24288577.867    -1206173.230 2   -939871.544 1
  23859106.579     1765445.147 2   1375666.366 1
  20350475.059      152467.660 4    118805.527 4
  24700371.874    -1589943.836 2  -1238921.597 1
  21003252.735     -191011.127 4   -148839.387 2
 91  4  6 20 37 45.0000000  0  5 11 14 18 02 19
  24282165.295    -1239850.634 2   -966113.460 1
  23870335.026     1824424.674 2   1421624.234 1
  20352098.732      160999.135 4    125453.416 4
  24691676.116    -1635674.178 2  -1274555.879 1
  21002675.063     -194060.782 4   -151215.729 2
 91  4  6 20 38  0.0000000  0  5 11 14 18 02 19
  24275783.611    -1273379.605 2   -992239.710 1
  23881575.724     1883501.205 2   1467657.663 1
  20353762.296      169731.816 4    132258.092 4
  24682991.422    -1681283.619 2  -1310095.942 1
  21002124.020     -196975.438 4   -153486.881 3
 91  4  6 20 38 15.0000000  0  5 11 14 18 02 19
  24269433.128    -1306756.991 2  -1018247.852 1
  23892835.337     1942677.183 2   1513769.062 1
  20355461.808      178668.337 4    139221.609 4
  24674341.803    -1726769.117 2  -1345539.369 1
  21001592.800     -199752.410 4   -155650.743 3
 91  4  6 20 38 30.0000000  0  5 11 14 18 02 19
  24263105.400    -1339989.532 2  -1044143.158 1
  23904109.923     2001945.064 2   1559951.644 1
  20357200.617      187801.799 4    146338.573 4
  24665710.472    -1772137.537 2  -1380891.606 1
  21001090.932     -202398.765 4   -157712.836 3
 91  4  6 20 38 45.0000000  0  5 11 14 18 02 19
  24256816.970    -1373079.245 2  -1069927.179 1
  23915412.708     2061302.070 2   1606203.663 1
  20358974.781      197129.859 4    153607.183 4
  24657089.366    -1817391.176 2  -1416153.949 1
  21000608.294     -204917.004 3   -159675.083 3
 91  4  6 20 39  0.0000000  0  5 11 14 18 02 19
  24250542.290    -1406029.143 2  -1095602.662 1
  23926724.777     2120744.164 2   1652521.950 1
  20360788.522      206649.174 4    161024.802 4
  24648502.986    -1862533.355 2  -1451329.855 1
  21000153.785     -207310.968 4   -161540.496 3
 91  4  6 20 39 15.0000000  0  5 11 14 18 02 19
  24244300.033    -1438834.957 2  -1121165.466 1
  23938050.945     2180275.068 2   1698909.418 1
  20362634.929      216363.703 4    168594.567 4
  24639940.932    -1907559.867 2  -1486415.651 1
  20999723.603     -209576.639 4   -163305.938 3
 91  4  6 20 39 30.0000000  0  5 11 14 18 02 19
  24238086.534    -1471496.336 2  -1146615.707 1
  23949389.399     2239894.486 2   1745365.905 1
  20364519.134      226273.460 4    176316.446 4
  24631391.757    -1952470.549 2  -1521411.207 1
  20999319.770     -211714.135 3   -164971.510 3
 91  4  6 20 39 45.0000000  0  5 11 14 18 02 19
  24231896.697    -1504020.405 2  -1171958.905 1
  23960751.201     2299594.258 2   1791884.988 1
  20366441.101      236371.201 4    184184.806 4
  24622862.055    -1997272.685 2  -1556322.165 1
  20998933.631     -213730.957 3   -166543.049 3
 91  4  6 20 40  0.0000000  0  5 11 14 18 02 19
  24225735.689    -1536400.416 2  -1197189.878 1
  23972135.827     2359380.322 2   1838471.324 1
  20368399.644      246663.246 4    192204.568 4
  24614365.614    -2041959.942 2  -1591143.595 1
  20998571.783     -215620.846 4   -168015.680 3
 91  4  6 20 40 15.0000000  0  5 11 14 18 02 19
  24219596.213    -1568645.698 2  -1222315.930 1
  23983526.736     2419242.703 2   1885117.103 1
  20370393.575      257139.661 4    200367.998 4
  24605875.490    -2086541.840 2  -1625882.965 1
  20998237.821     -217393.659 4   -169397.073 3
 91  4  6 20 40 30.0000000  0  5 11 14 18 02 19
  24213481.064    -1600757.140 2  -1247337.609 1
  23994933.246     2479179.634 2   1931821.011 1
  20372421.360      267799.128 4    208674.064 4
  24597410.564    -2131019.507 2  -1660541.104 1
  20997919.145     -219050.614 4   -170688.205 3
 91  4  6 20 40 45.0000000  0  5 11 14 18 02 19
  24207401.548    -1632734.692 2  -1272254.996 1
  24006346.351     2539190.435 2   1978582.425 1
  20374482.126      278641.813 4    217122.896 4
  24588970.207    -2175393.104 2  -1695118.149 1
  20997626.854     -220592.082 3   -171889.342 3
 91  4  6 20 41  0.0000000  0  5 11 14 18 02 19
  24201338.853    -1664581.092 2  -1297070.162 1
  24017779.524     2599271.771 2   2025398.804 1
  20376583.098      289664.522 4    225712.008 4
  24580544.544    -2219665.515 2  -1729616.323 1
  20997358.226     -222021.461 3   -173003.135 2
 91  4  6 20 41 15.0000000  0  5 11 14 18 02 19
  24195304.952    -1696291.180 2  -1321779.162 1
  24029225.611     2659427.882 2   2072273.508 1
  20378716.108      300871.976 4    234445.075 4
  24572135.668    -2263831.719 2  -1764031.748 1
  20997104.918     -223334.042 4   -174025.914 2
 91  4  6 20 41 30.0000000  0  5 11 14 18 02 19
  24189296.493    -1727863.860 2  -1346381.062 1
  24040691.172     2719659.000 2   2119206.606 1
  20380884.821      312265.008 4    243322.752 4
  24563747.174    -2307890.777 2  -1798363.689 1
  20996878.275     -224529.108 3   -174957.123 2
 91  4  6 20 41 45.0000000  0  5 11 14 18 02 19
  24183314.733    -1759309.535 2  -1370883.961 1
  24052166.644     2779954.183 2   2166189.617 1
  20383085.572      323832.780 4    252336.588 4
  24555388.974    -2351853.655 2  -1832620.694 1
  20996667.197     -225617.488 4   -175805.208 3
 91  4  6 20 42  0.0000000  0  5 11 14 18 02 19
  24177356.949    -1790619.969 2  -1395281.485 1
  24063655.274     2840320.678 2   2213228.245 1
  20385322.341      335583.271 4    261492.802 4
  24547043.337    -2395712.320 2  -1866796.481 1
  20996484.354     -226591.533 4   -176564.188 2
 91  4  6 20 42 15.0000000  0  5 11 14 18 02 19
  24171417.174    -1821788.877 2  -1419568.799 1
  24075152.315     2900763.980 2   2260326.701 1
  20387593.557      347522.306 4    270795.935 4
  24538716.303    -2439460.438 2  -1900886.146 1
  20996324.544     -227445.416 4   -177229.534 2
 91  4  6 20 42 30.0000000  0  5 11 14 18 02 19
  24165523.573    -1852811.927 2  -1443742.386 1
  24086678.149     2961287.574 2   2307488.181 1
  20389903.477      359653.942 4    280249.142 4
  24530416.246    -2483093.860 2  -1934886.420 1
  20996186.653     -228175.160 4   -177798.148 2
 91  4  6 20 42 45.0000000  0  5 11 14 18 02 19
  24159645.537    -1883691.252 2  -1467803.955 1
  24098206.042     3021888.872 2   2354709.751 1
  20392245.750      371975.867 4    289850.628 4
  24522125.787    -2526614.991 2  -1968799.233 1
  20996067.014     -228783.309 4   -178272.011 3
 91  4  6 20 43  0.0000000  0  5 11 14 18 02 19
  24153797.480    -1914422.301 2  -1491750.071 1
  24109748.663     3082571.433 2   2401994.669 1
  20394630.602      384492.164 4    299603.576 4
  24513873.091    -2570019.681 2  -2002621.274 1
  20995978.297     -229265.824 4   -178647.995 2
 91  4  6 20 43 15.0000000  0  5 11 14 18 02 19
  24147973.993    -1945020.925 2  -1515592.980 1
  24121307.164     3143318.604 2   2449329.878 1
  20397046.026      397186.816 4    309495.498 4
  24505632.714    -2613323.953 2  -2036365.063 1
  20995903.331     -229638.927 4   -178938.704 2
 91  4  6 20 43 30.0000000  0  5 11 14 18 02 19
  24142180.521    -1975473.181 2  -1539321.846 1
  24132889.955     3204143.613 2   2496726.226 1
  20399497.712      410073.591 4    319537.132 4
  24497403.087    -2656513.803 2  -2070019.243 1
  20995856.285     -229889.006 4   -179133.556 2
 91  4  6 20 43 45.0000000  0  5 11 14 18 02 19
  24136416.993    -2005771.955 2  -1562931.048 1
  24144476.028     3265052.968 2   2544187.839 1
  20401986.008      423158.664 4    329733.277 4
  24489215.759    -2699582.425 2  -2103579.415 1
  20995837.090     -230009.736 4   -179227.624 2
 91  4  6 20 44  0.0000000  0  5 11 14 18 02 19
  24130672.975    -2035914.861 2  -1586418.825 1
  24156092.079     3326048.410 2   2591716.529 1
  20404516.848      436444.453 4    340085.829 4
  24481042.530    -2742527.727 2  -2137043.526 1
  20995838.870     -229999.068 4   -179219.291 2
 91  4  6 20 44 15.0000000  0  5 11 14 18 02 19
  24124969.720    -2065897.175 2  -1609781.496 1
  24167709.631     3387133.454 2   2639315.503 1
  20407081.855      449935.331 4    350598.191 4
  24472891.185    -2785345.275 2  -2170407.618 1
  20995868.570     -229852.736 3   -179105.259 3
 91  4  6 20 44 30.0000000  0  5 11 14 18 02 19
  24119298.853    -2095721.367 2  -1633020.926 1
  24179353.289     3448304.846 2   2686981.303 1
  20409688.255      463628.357 4    361268.071 4
  24464770.691    -2828037.739 2  -2203674.671 1
  20995917.745     -229573.789 3   -178887.880 2
 91  4  6 20 44 45.0000000  0  5 11 14 18 02 19
  24113653.150    -2125384.288 2  -1656134.655 1
  24191008.918     3509565.257 2   2734716.933 1
  20412334.545      477526.536 4    372097.810 4
  24456670.893    -2870602.108 2  -2236841.946 1
  20995995.364     -229159.373 4   -178564.944 2
 91  4  6 20 45  0.0000000  0  5 11 14 18 02 19
  24108031.457    -2154897.067 2  -1679131.479 1
  24202681.648     3570902.751 2   2782512.167 1
  20415014.969      491618.468 4    383078.522 4
  24448598.387    -2913049.818 2  -2269917.836 1
  20996102.089     -228621.043 4   -178145.448 2
 91  4  6 20 45 15.0000000  0  5 11 14 18 02 19
  24102449.028    -2184264.643 2  -1702015.147 1
  24214366.942     3632311.590 2   2830362.967 1
  20417730.816      505898.470 4    394205.782 4
  24440537.259    -2955386.061 2  -2302907.327 1
  20996223.508     -227964.395 3   -177633.764 2
 91  4  6 20 45 30.0000000  0  5 11 14 18 02 19
  24096879.477    -2213500.757 2  -1724796.319 1
  24226066.335     3693777.202 2   2878258.025 1
  20420480.796      520352.891 4    405468.951 4
  24432495.641    -2997624.493 2  -2335820.146 1
  20996373.719     -227203.271 3   -177040.669 2
 91  4  6 20 45 45.0000000  0  5 11 14 18 02 19
  24091344.407    -2242608.219 2  -1747477.277 1
  24237772.325     3755296.181 2   2926194.657 1
  20423263.756      534978.667 4    416865.647 4
  24424477.370    -3039768.484 2  -2368659.381 1
  20996534.087     -226341.073 4   -176368.810 2
 91  4  6 20 46  0.0000000  0  5 11 14 18 02 19
  24085823.123    -2271599.651 2  -1770067.843 1
  24249484.039     3816855.089 2   2974162.398 1
  20426076.417      549762.496 4    428385.504 4
  24416480.424    -3081830.867 2  -2401435.485 1
  20996715.185     -225390.913 4   -175628.415 3
 91  4  6 20 46 15.0000000  0  5 11 14 18 02 19
  24080327.945    -2300472.175 2  -1792565.765 1
  24261207.409     3878455.911 2   3022162.813 1
  20428920.838      564706.853 4    440030.438 4
  24408484.071    -3123808.956 2  -2434145.925 1
  20996913.036     -224350.442 4   -174817.644 2
 91  4  6 20 46 30.0000000  0  5 11 14 18 02 19
  24074861.525    -2329224.866 2  -1814970.285 1
  24272939.505     3940098.917 2   3070196.568 1
  20431796.773      579812.257 4    451800.863 4
  24400514.068    -3165701.944 2  -2466790.046 1
  20997128.895     -223219.113 3   -173936.070 2
 91  4  6 20 46 45.0000000  0  5 11 14 18 02 19
  24069409.204    -2357854.155 2  -1837278.630 1
  24284675.474     4001786.834 2   3118264.866 1
  20434702.339      595082.125 4    463699.440 4
  24392559.980    -3207506.311 2  -2499365.102 1
  20997359.133     -221993.839 4   -172981.294 2
 91  4  6 20 47  0.0000000  0  5 11 14 18 02 19
  24063984.734    -2386354.131 2  -1859486.250 1
  24296423.729     4063524.993 2   3166372.285 1
  20437640.921      610522.356 4    475730.780 4
  24384615.768    -3249216.530 2  -2531866.820 1
  20997613.069     -220668.963 4   -171948.914 3
 91  4  6 20 47 15.0000000  0  5 11 14 18 02 19
  24058591.500    -2414704.461 2  -1881577.229 1
  24308182.209     4125332.884 2   3214534.063 1
  20440615.450      626152.725 4    487910.275 4
  24376706.945    -3290812.475 2  -2564279.462 1
  20997885.571     -219224.634 4   -170823.454 2
 91  4  6 20 47 30.0000000  0  5 11 14 18 02 19
  24053219.206    -2442925.006 2  -1903567.101 1
  24319960.129     4187189.728 2   3262733.971 1
  20443620.866      641952.828 4    500222.028 4
  24368812.816    -3332314.172 2  -2596618.688 1
  20998181.771     -217681.085 4   -169620.669 2
 91  4  6 20 47 45.0000000  0  5 11 14 18 02 19
  24047886.490    -2471005.297 2  -1925447.704 1
  24331744.994     4249105.292 2   3310979.623 1
  20446663.486      657932.881 4    512673.999 4
  24360932.472    -3373711.360 2  -2628876.000 1
  20998494.444     -216028.467 4   -168332.902 2
 91  4  6 20 48  0.0000000  0  5 11 14 18 02 19
  24042567.594    -2498950.569 2  -1947223.045 1
  24343521.448     4311073.679 2   3359266.448 1
  20449737.237      674087.164 4    525261.735 4
  24353067.729    -3415009.535 2  -2661056.611 1
  20998830.221     -214272.687 4   -166964.752 2
 91  4  6 20 48 15.0000000  0  5 11 14 18 02 19
  24037270.231    -2526763.160 2  -1968895.047 1
  24355332.662     4373091.714 2   3407591.969 1
  20452843.097      690413.071 4    537983.211 4
  24345226.334    -3456211.298 2  -2693161.631 1
  20999183.065     -212416.441 4   -165518.312 2
 91  4  6 20 48 30.0000000  0  5 11 14 18 02 19
  24031996.287    -2554450.451 2  -1990469.431 1
  24367148.379     4435151.229 2   3455949.845 1
  20455981.309      706903.049 4    550832.526 4
  24337409.579    -3497324.241 2  -2725197.916 1
  20999554.510     -210467.350 4   -163999.529 2
 91  4  6 20 48 45.0000000  0  5 11 14 18 02 19
  24026755.916    -2582014.902 2  -2011948.019 1
  24378960.501     4497249.026 2   3504337.915 1
  20459150.408      723554.048 4    563807.310 4
  24329598.477    -3538350.955 2  -2757167.021 1
  20999940.928     -208428.234 3   -162410.595 2
 91  4  6 20 49  0.0000000  0  5 11 14 18 02 19
  24021532.927    -2609464.720 2  -2033337.341 1
  24390778.627     4559376.280 2   3552748.550 1
  20462350.115      740357.641 4    576901.001 4
  24321803.570    -3579299.771 2  -2789075.429 1
  21000346.261     -206307.797 3   -160758.294 3
 91  4  6 20 49 15.0000000  0  5 11 14 18 02 19
  24016324.037    -2636803.294 2  -2054639.982 1
  24402618.320     4621528.858 2   3601178.892 1
  20465574.078      757310.178 4    590110.750 4
  24314024.856    -3620174.245 2  -2820925.890 1
  21000765.381     -204109.973 3   -159045.697 2
 91  4  6 20 49 30.0000000  0  5 11 14 18 02 19
  24011140.624    -2664039.999 2  -2075863.211 1
  24414443.321     4683696.590 2   3649621.060 1
  20468826.833      774401.714 4    603428.806 4
  24306262.022    -3660984.116 2  -2852725.540 1
  21001193.469     -201844.573 4   -157280.441 3
 91  4  6 20 49 45.0000000  0  5 11 14 18 02 19
  24005981.188    -2691167.957 2  -2097001.743 1
  24426274.952     4745885.937 2   3698080.529 1
  20472107.754      791639.048 4    616860.477 4
  24298506.691    -3701722.914 2  -2884470.284 1
  21001635.379     -199505.035 3   -155457.413 2
 91  4  6 20 50  0.0000000  0  5 11 14 18 02 19
  24000844.263    -2718187.705 2  -2118055.937 1
  24438120.928     4808095.334 2   3746555.146 1
  20475417.781      809021.105 4    630404.926 4
  24290771.743    -3742391.294 2  -2916160.174 1
  21002092.854     -197092.376 4   -153577.411 2
 91  4  6 20 50 15.0000000  0  5 11 14 18 02 19
  23995724.089    -2745086.907 2  -2139016.196 1
  24449961.529     4870336.155 2   3795054.252 1
  20478752.971      826559.949 4    644071.535 4
  24283045.484    -3782977.043 2  -2947785.188 1
  21002573.712     -194594.804 3   -151631.234 2
 91  4  6 20 50 30.0000000  0  5 11 14 18 02 19
  23990624.926    -2771865.620 2  -2159882.581 1
  24461808.132     4932607.544 2   3843577.175 1
  20482121.735      844255.095 4    657859.937 4
  24275342.016    -3823480.313 2  -2979345.929 1
  21003063.574     -192012.848 4   -149619.316 2
 91  4  6 20 50 45.0000000  0  5 11 14 18 02 19
  23985549.740    -2798526.068 2  -2180656.807 1
  24473664.927     4994906.702 2   3892121.752 1
  20485517.478      862104.154 4    671768.271 4
  24267649.960    -3863903.680 2  -3010844.416 1
  21003568.723     -189349.099 3   -147543.659 2
 91  4  6 20 51  0.0000000  0  5 11 14 18 02 19
  23980501.532    -2825068.602 2  -2201339.132 1
  24485524.723     5057232.588 2   3940687.626 1
  20488942.607      880106.354 4    685795.940 4
  24259962.092    -3904247.786 2  -3042281.132 1
  21004093.067     -186604.230 4   -145404.794 2
 91  4  6 20 51 15.0000000  0  5 11 14 18 02 19
  23975472.518    -2851492.104 2  -2221928.710 1
  24497392.023     5119585.869 2   3989274.402 1
  20492397.122      898262.572 4    699943.616 4
  24252310.486    -3944511.467 2  -3073655.657 1
  21004632.384     -183777.560 3   -143202.179 2
 91  4  6 20 51 30.0000000  0  5 11 14 18 02 19
  23970462.107    -2877800.760 2  -2242428.774 1
  24509257.508     5181961.408 2   4037878.966 1
  20495881.581      916567.899 4    714207.493 4
  24244655.878    -3984699.272 2  -3104971.056 1
  21005185.207     -180873.702 4   -140939.428 2
 91  4  6 20 51 45.0000000  0  5 11 14 18 02 19
  23965480.140    -2904002.359 2  -2262845.487 1
  24521136.465     5244350.347 2   4086493.956 1
  20499391.553      935014.384 4    728581.357 4
  24237024.653    -4024819.211 2  -3136233.117 1
  21005751.222     -177901.010 3   -138623.037 3
 91  4  6 20 52  0.0000000  0  5 11 14 18 02 19
  23960513.180    -2930096.161 2  -2283178.174 1
  24533011.233     5306752.933 2   4135119.123 1
  20502927.002      953602.309 4    743065.432 4
  24229411.123    -4064870.708 2  -3167441.853 1
  21006329.836     -174859.211 3   -136252.789 2
 91  4  6 20 52 15.0000000  0  5 11 14 18 02 19
  23955565.101    -2956093.775 2  -2303435.905 1
  24544889.038     5369156.807 2   4183745.294 1
  20506489.150      972319.892 4    757650.535 4
  24221792.219    -4104865.649 2  -3198606.499 1
  21006917.420     -171760.341 3   -133838.074 2
 91  4  6 20 52 30.0000000  0  5 11 14 18 02 19
  23950638.311    -2981999.067 2  -2323621.651 1
  24556761.712     5431557.222 2   4232368.757 1
  20510075.274      991162.891 4    772333.367 4
  24214193.347    -4144808.186 2  -3229730.322 1
  21007519.103     -168608.604 4   -131382.177 3
 91  4  6 20 52 45.0000000  0  5 11 14 18 02 19
  23945727.715    -3007803.593 2  -2343728.984 1
  24568632.886     5493962.194 2   4280995.768 1
  20513685.969     1010139.255 4    787120.124 3
  24206606.516    -4184690.047 2  -3260806.888 1
  21008130.070     -165396.074 3   -128878.897 3
 91  4  6 20 53  0.0000000  0  5 11 14 18 02 19
  23940834.499    -3033512.602 2  -2363761.797 1
  24580509.469     5556365.529 2   4329621.513 1
  20517322.454     1029243.377 4    802006.429 4
  24199019.370    -4224516.693 2  -3291840.855 1
  21008755.731     -162128.147 3   -126332.455 3
 91  4  6 20 53 15.0000000  0  5 11 14 18 02 19
  23935960.479    -3059122.289 2  -2383717.259 1
  24592384.831     5618770.356 2   4378248.884 1
  20520982.009     1048478.774 4    816995.024 4
  24191456.795    -4264284.490 2  -3322828.501 1
  21009385.020     -158801.685 4   -123740.399 2
 91  4  6 20 53 30.0000000  0  5 11 14 18 02 19
  23931111.029    -3084624.931 2  -2403589.323 1
  24604259.914     5681183.525 2   4426882.765 1
  20524667.984     1067852.925 4    832091.735 4
  24183897.849    -4303985.877 2  -3353764.425 1
  21010031.970     -155409.365 4   -121097.023 2
 91  4  6 20 53 45.0000000  0  5 11 14 18 02 19
  23926280.773    -3110013.794 2  -2423372.686 1
  24616135.590     5743611.247 2   4475527.494 1
  20528383.903     1087372.233 4    847301.563 4
  24176355.970    -4343614.416 2  -3384643.619 1
  21010688.796     -151944.932 3   -118397.450 2
 91  4  6 20 54  0.0000000  0  5 11 14 18 02 19
  23921467.620    -3135285.373 2  -2443064.671 1
  24628019.362     5806056.004 2   4524185.623 1
  20532125.020     1107039.749 4    862626.877 4
  24168828.470    -4383166.847 2  -3415463.908 1
  21011366.946     -148405.124 3   -115639.149 2
 91  4  6 20 54 15.0000000  0  5 11 14 18 02 19
  23916682.630    -3160446.470 2  -2462670.600 1
  24639903.449     5868510.315 2   4572851.428 1
  20535895.489     1126848.242 4    878062.046 3
  24161320.164    -4422650.146 2  -3446229.917 1
  21012048.377     -144797.271 3   -112827.818 2
 91  4  6 20 54 30.0000000  0  5 11 14 18 02 19
  23911913.835    -3185503.014 2  -2482195.055 1
  24651793.225     5930967.552 2   4621519.247 1
  20539689.061     1146791.335 4    893602.094 4
  24153815.768    -4462070.588 2  -3476946.909 1
  21012748.969     -141127.766 3   -109968.468 2
 91  4  6 20 54 45.0000000  0  5 11 14 18 02 19
  23907163.920    -3210447.801 2  -2501632.388 1
  24663673.089     5993434.176 2   4670194.605 1
  20543512.614     1166875.975 4    909252.436 4
  24146324.564    -4501421.036 2  -3507609.366 1
  21013458.285     -137389.844 3   -107055.794 3
 91  4  6 20 55  0.0000000  0  5 11 14 18 02 19
  23902434.074    -3235290.765 2  -2520990.364 1
  24675559.270     6055899.877 2   4718869.091 1
  20547360.142     1187091.919 4    925005.095 4
  24138848.926    -4540711.517 2  -3538225.077 1
  21014184.389     -133593.754 4   -104097.788 2
 91  4  6 20 55 15.0000000  0  5 11 14 18 02 19
  23897726.459    -3260029.925 2  -2540267.533 1
  24687453.827     6118365.692 2   4767543.531 1
  20551231.962     1207440.733 4    940861.285 4
  24131384.700    -4579940.334 2  -3568792.830 1
  21014918.589     -129737.894 4   -101093.213 3
 91  4  6 20 55 30.0000000  0  5 11 14 18 02 19
  23893038.004    -3284666.719 2  -2559464.830 1
  24699336.413     6180829.502 2   4816216.434 1
  20555128.665     1227920.715 4    956819.686 3
  24123939.355    -4619109.098 2  -3599314.194 1
  21015661.445     -125824.247 4    -98043.621 2
 91  4  6 20 55 45.0000000  0  5 11 14 18 02 19
  23888369.617    -3309198.286 2  -2578580.197 1
  24711225.875     6243293.518 2   4864889.912 1
  20559052.975     1248534.423 4    972882.290 3
  24116491.916    -4658214.993 2  -3629786.079 1
  21016416.620     -121850.230 4    -94946.968 2
 91  4  6 20 56  0.0000000  0  5 11 14 18 02 19
  23883719.239    -3333632.202 2  -2597619.436 1
  24723108.461     6305749.549 2   4913556.784 1
  20562999.132     1269273.950 4    989042.935 3
  24109060.636    -4697266.011 2  -3660215.243 1
  21017180.521     -117823.743 4    -91809.434 2
 91  4  6 20 56 15.0000000  0  5 11 14 18 02 19
  23879089.836    -3357967.987 2  -2616582.271 1
  24735000.330     6368197.236 2   4962217.102 1
  20566970.767     1290139.282 4   1005301.609 3
  24101636.581    -4736261.985 2  -3690601.512 1
  21017959.953     -113744.896 3    -88631.102 3
 91  4  6 20 56 30.0000000  0  5 11 14 18 02 19
  23874481.442    -3382204.663 2  -2635467.843 1
  24746880.508     6430636.405 2   5010870.776 1
  20570962.504     1311131.062 4   1021658.815 4
  24094228.126    -4775202.142 2  -3720944.275 1
  21018745.736     -109613.158 4    -85411.558 2
 91  4  6 20 56 45.0000000  0  5 11 14 18 02 19
  23869885.334    -3406342.229 2  -2654276.215 1
  24758758.558     6493066.553 2   5059517.876 1
  20574982.127     1332248.942 4   1038114.278 4
  24086828.047    -4814086.572 2  -3751243.592 1
  21019541.675     -105428.824 3    -82151.027 2
 91  4  6 20 57  0.0000000  0  5 11 14 18 02 19
  23865315.576    -3430380.611 2  -2673007.263 1
  24770633.047     6555487.083 2   5108157.026 1
  20579025.447     1353492.428 4   1054667.611 3
  24079436.937    -4852915.326 2  -3781499.609 1
  21020352.308     -101192.381 3    -78849.889 2
 91  4  6 20 57 15.0000000  0  5 11 14 18 02 19
  23860757.544    -3454318.619 2  -2691660.120 1
  24782513.225     6617898.645 2   5156789.204 1
  20583092.430     1374862.456 4   1071319.555 3
  24072065.372    -4891687.500 2  -3811711.491 1
  21021162.068      -96903.017 3    -75507.527 2
 91  4  6 20 57 30.0000000  0  5 11 14 18 02 19
  23856221.674    -3478148.007 2  -2710228.270 1
  24794392.810     6680308.712 2   5205420.214 1
  20587183.982     1396366.961 4   1088076.282 3
  24064690.770    -4930395.149 2  -3841873.085 1
  21021993.361      -92552.852 4    -72117.782 2
 91  4  6 20 57 45.0000000  0  4 11 18 02 19
  23851707.093    -3501860.535 2  -2728705.455 1
  20591303.734     1418013.941 4   1104944.043 3
  24057344.054    -4969030.124 2  -3871978.056 1
  21022834.287      -88133.867 3    -68674.404 2
 91  4  6 20 58  0.0000000  0  4 11 18 02 19
  23847225.494    -3525448.233 2  -2747085.304 1
  20595449.557     1439811.004 4   1121928.739 3
  24050002.713    -5007584.795 2  -3902020.484 1
  21023692.314      -83638.755 3    -65171.713 2
 91  4  6 20 58 15.0000000  0  4 11 18 02 19
  23842752.898    -3548908.443 2  -2765365.877 1
  20599627.767     1461760.410 4   1139032.140 4
  24042688.105    -5046056.464 2  -3931998.195 1
  21024559.311      -79065.107 3    -61607.820 2
 91  4  6 20 58 30.0000000  0  4 11 18 02 19
  23838315.971    -3572235.847 2  -2783542.909 1
  20603833.549     1483867.176 4   1156258.163 4
  24035377.964    -5084440.104 2  -3961907.351 1
  21025442.187      -74408.079 4    -57978.959 3
 91  4  6 20 58 45.0000000  0  4 11 18 02 19
  23833897.331    -3595433.848 2  -2801619.145 1
  20608070.218     1506127.282 4   1173603.673 3
  24028098.711    -5122739.531 2  -3991750.868 1
  21026345.480      -69671.365 3    -54288.003 2
 91  4  6 20 59  0.0000000  0  4 11 18 02 19
  23829519.176    -3618498.335 2  -2819591.289 1
  20612337.773     1528544.507 4   1191071.610 3
  24020821.516    -5160950.667 2  -4021525.630 1
  21027266.712      -64851.320 3    -50532.127 3
 91  4  6 20 59 15.0000000  0  4 11 18 02 19
  23825152.992    -3641431.846 2  -2837461.416 1
  20616630.213     1551116.146 4   1208659.874 3
  24013568.647    -5199076.369 2  -4051233.777 1
  21028194.575      -59951.145 3    -46713.807 3
 91  4  6 20 59 30.0000000  0  4 11 18 02 19
  23820811.099    -3664234.741 2  -2855229.782 1
  20620956.226     1573841.315 4   1226367.768 3
  24006326.283    -5237117.067 2  -4080875.687 1
  21029141.633      -54971.332 4    -42833.424 2
 91  4  6 20 59 45.0000000  0  4 11 18 02 19
  23816495.276    -3686917.645 2  -2872904.631 1
  20625306.496     1596709.157 4   1244186.831 3
  23999105.767    -5275083.743 2  -4110459.921 1
  21030102.477      -49923.003 3    -38899.637 3
 91  4  6 21  0  0.0000000  0  4 11 18 02 19
  23812198.370    -3709482.595 2  -2890487.578 1
  20629685.872     1619717.114 4   1262115.076 3
  23991893.348    -5312978.585 2  -4139988.227 1
  21031074.978      -44808.648 4    -34914.434 3
 91  4  6 21  0 15.0000000  0  4 11 18 02 19
  23807928.999    -3731932.910 2  -2907981.162 1
  20634091.005     1642861.307 4   1280149.485 3
  23984692.934    -5350804.949 2  -4169463.127 1
  21032061.613      -39631.760 3    -30880.487 2
 91  4  6 21  0 30.0000000  0  4 11 18 02 19
  23803674.671    -3754274.206 2  -2925389.835 1
  20638519.835     1666136.210 4   1298285.750 3
  23977500.932    -5388568.808 2  -4198889.368 1
  21033057.532      -34398.442 4    -26802.569 2
 91  4  6 21  0 45.0000000  0  4 11 18 02 19
  23799446.693    -3776503.772 2  -2942711.425 1
  20642973.550     1689544.138 4   1316525.660 3
  23970332.278    -5426267.567 2  -4228264.852 1
  21034063.328      -29106.340 3    -22678.845 2
 91  4  6 21  1  0.0000000  0  4 11 18 02 19
  23795234.001    -3798621.189 2  -2959945.648 1
  20647454.870     1713084.823 4   1334869.026 3
  23963171.755    -5463901.121 2  -4257589.492 1
  21035083.223      -23755.597 4    -18509.431 3
 91  4  6 21  1 15.0000000  0  4 11 18 02 19
  23791049.194    -3820621.574 2  -2977088.718 1
  20651958.946     1736763.071 4   1353319.582 3
  23956019.888    -5501464.711 2  -4286859.683 1
  21036112.716      -18341.436 3    -14290.602 3
 91  4  6 21  1 30.0000000  0  4 11 18 02 19
  23786886.584    -3842508.620 2  -2994143.407 1
  20656490.907     1760574.561 4   1371873.956 3
  23948891.439    -5538962.244 2  -4316078.384 1
  21037154.494      -12868.156 3    -10025.689 2
 91  4  6 21  1 45.0000000  0  4 11 18 02 19
  23782741.355    -3864283.725 2  -3011110.885 1
  20661047.159     1784517.836 4   1390531.023 3
  23941763.549    -5576395.279 2  -4345246.829 1
  21038206.463       -7337.539 3     -5716.118 2
 91  4  6 21  2  0.0000000  0  4 11 18 02 19
  23778612.005    -3885951.676 2  -3027994.900 1
  20665627.667     1808587.601 4   1409286.652 3
  23934650.701    -5613768.919 2  -4374368.949 1
  21039266.529       -1754.949 4     -1366.043 3
 91  4  6 21  2 15.0000000  0  4 11 18 02 19
  23774515.951    -3907514.671 2  -3044797.100 1
  20670232.500     1832781.099 4   1428138.699 3
  23927548.916    -5651085.581 2  -4403446.726 1
  21040340.066        3877.161 3      3022.619 3
 91  4  6 21  2 30.0000000  0  4 11 18 02 19
  23770432.774    -3928968.483 2  -3061514.218 1
  20674860.996     1857102.437 4   1447090.359 3
  23920453.413    -5688341.087 2  -4432476.803 1
  21041421.142        9562.888 4      7453.062 2
 91  4  6 21  2 45.0000000  0  4 11 18 02 19
  23766369.072    -3950313.894 2  -3078146.931 1
  20679510.467     1881550.416 4   1466140.710 3
  23913382.794    -5725536.479 2  -4461460.060 1
  21042515.969       15300.927 3     11924.262 3
 91  4  6 21  3  0.0000000  0  4 11 18 02 19
  23762323.693    -3971548.994 2  -3094693.600 1
  20684185.450     1906126.544 4   1485290.906 3
  23906313.118    -5762670.194 2  -4490395.236 1
  21043619.206       21092.722 4     16437.341 3
 91  4  6 21  3 15.0000000  0  4 11 18 02 19
  23758304.663    -3992678.652 2  -3111158.162 1
  20688887.376     1930825.632 4   1504536.915 3
  23899261.694    -5799747.165 2  -4519286.222 1
  21044729.354       26933.058 3     20988.256 2
 91  4  6 21  3 30.0000000  0  5 11 16 18 02 19
  23754303.643    -4013710.339 2  -3127546.362 1
  24909713.655           0.207 2         0.161 1
  20693610.312     1955639.798 4   1523872.600 3
  23892212.678    -5836775.071 2  -4548138.974 1
  21045846.378       32814.137 4     25570.923 2
 91  4  6 21  3 45.0000000  0  5 11 16 18 02 19
  23750323.597    -4034648.532 2  -3143861.739 1
  24904896.593      -25292.232 2    -19708.270 1
  20698353.945     1980564.192 4   1543294.181 3
  23885174.726    -5873758.544 2  -4576957.083 1
  21046972.091       38731.017 3     30181.481 2
 91  4  6 21  4  0.0000000  0  5 11 16 18 02 19
  23746355.243    -4055491.418 2  -3160102.825 1
  24900097.538      -50485.167 2    -39339.163 1
  20703116.423     2005600.030 4   1562802.591 3
  23878146.407    -5910695.992 2  -4605739.332 1
  21048107.682       44685.045 4     34820.977 2
 91  4  6 21  4 15.0000000  0  5 11 16 18 02 19
  23742411.180    -4076228.293 2  -3176261.305 1
  24895325.113      -75567.655 2    -58883.986 1
  20707904.728     2030757.847 4   1582406.049 3
  23871126.778    -5947576.804 2  -4634477.459 1
  21049248.402       50686.687 3     39497.587 2
 91  4  6 21  4 30.0000000  0  5 11 16 18 02 19
  23738480.902    -4096856.613 2  -3192335.198 1
  24890573.698     -100537.556 2    -78341.051 1
  20712713.694     2056039.953 4   1602106.376 3
  23864119.713    -5984398.637 2  -4663169.629 1
  21050405.003       56738.210 4     44213.058 2
 91  4  6 21  4 45.0000000  0  5 11 16 18 02 19
  23734575.194    -4117371.262 2  -3208320.520 1
  24885847.202     -125389.867 2    -97706.541 1
  20717551.732     2081450.992 4   1621907.151 3
  23857127.340    -6021156.801 2  -4691812.172 1
  21051561.603       62844.090 3     48970.898 2
 91  4  6 21  5  0.0000000  0  5 11 16 18 02 19
  23730694.999    -4137773.258 2  -3224218.041 1
  24881139.831     -150125.619 2   -116981.200 1
  20722409.279     2106989.425 4   1641807.202 3
  23850146.102    -6057852.507 2  -4720406.053 1
  21052735.305       69002.970 4     53770.024 2
 91  4  6 21  5 15.0000000  0  5 11 16 18 02 19
  23726840.246    -4158046.398 2  -3240015.246 1
  24876461.288     -174728.572 2   -136152.275 1
  20727298.307     2132671.258 4   1661818.999 3
  23843176.520    -6094469.600 2  -4748938.697 1
  21053920.384       75230.868 3     58622.936 3
 91  4  6 21  5 30.0000000  0  5 11 16 18 02 19
  23723002.000    -4178199.303 2  -3255718.625 1
  24871796.810     -199207.576 2   -155226.823 1
  20732210.683     2158487.340 4   1681935.403 3
  23836215.349    -6131016.995 2  -4777416.982 1
  21055119.249       81518.489 3     63522.386 2
 91  4  6 21  5 45.0000000  0  5 11 16 18 02 19
  23719191.047    -4198240.510 2  -3271335.027 1
  24867159.031     -223571.252 2   -174211.566 1
  20737147.978     2184428.882 4   1702149.558 3
  23829279.620    -6167503.262 2  -4805847.667 1
  21056323.209       87857.079 3     68461.550 3
 91  4  6 21  6  0.0000000  0  5 11 16 18 02 19
  23715392.973    -4218177.643 2  -3286870.340 1
  24862543.134     -247827.455 2   -193112.551 1
  20742105.026     2210487.840 4   1722455.209 3
  23822342.425    -6203936.414 2  -4834236.975 1
  21057536.488       94238.764 4     73434.296 2
 91  4  6 21  6 15.0000000  0  5 11 16 18 02 19
  23711625.191    -4238006.308 2  -3302321.088 1
  24857953.587     -271971.841 2   -211926.338 1
  20747087.307     2236668.257 4   1742855.504 3
  23815422.611    -6240312.234 2  -4862581.595 1
  21058760.516      100667.508 3     78443.701 2
 91  4  6 21  6 30.0000000  0  5 11 16 18 02 19
  23707868.194    -4257727.881 2  -3317688.433 1
  24853373.673     -296006.013 2   -230654.187 1
  20752093.810     2262968.411 4   1763349.097 3
  23808510.615    -6276632.235 2  -4890882.728 1
  21059994.177      107141.519 3     83488.384 2
 91  4  6 21  6 45.0000000  0  5 11 16 18 02 19
  23704142.363    -4277338.272 2  -3332969.127 1
  24848829.113     -319925.968 2   -249293.246 1
  20757121.043     2289392.048 4   1783938.910 3
  23801605.494    -6312892.656 2  -4919137.446 1
  21061231.397      113664.595 4     88571.302 2
 91  4  6 21  7  0.0000000  0  5 11 16 18 02 19
  23700429.132    -4296840.713 2  -3348165.726 1
  24844290.241     -343734.715 2   -267845.545 1
  20762171.345     2315935.581 4   1804622.158 3
  23794717.160    -6349096.641 2  -4947348.160 1
  21062484.846      120233.140 3     93689.640 2
 91  4  6 21  7 15.0000000  0  5 11 16 18 02 19
  23696733.001    -4316241.611 2  -3363283.178 1
  24839787.387     -367439.271 2   -286316.628 1
  20767246.846     2342592.051 4   1825393.405 3
  23787841.425    -6385250.738 2  -4975520.012 1
  21063739.761      126840.195 3     98837.996 3
 91  4  6 21  7 30.0000000  0  5 11 16 18 02 19
  23693062.941    -4335541.209 2  -3378321.677 1
  24835293.188     -391039.736 2   -304706.604 1
  20772337.912     2369360.949 4   1846252.255 3
  23780971.379    -6421355.593 2  -5003653.491 1
  21065007.310      133485.303 3    104015.997 3
 91  4  6 21  7 45.0000000  0  5 11 16 18 02 19
  23689410.576    -4354736.765 3  -3393279.104 1
  24830821.465     -414533.592 2   -323013.555 1
  20777456.270     2396244.686 4   1867200.592 3
  23774110.931    -6457408.678 2  -5031746.644 1
  21066277.232      140171.009 3    109225.646 3
 91  4  6 21  8  0.0000000  0  5 11 16 18 02 19
  23685777.370    -4373824.461 3  -3408152.512 1
  24826376.162     -437917.139 2   -341234.514 1
  20782592.323     2423246.774 4   1888241.148 3
  23767259.173    -6493406.524 2  -5059796.716 1
  21067558.846      146900.651 4    114469.531 2
 91  4  6 21  8 15.0000000  0  5 11 16 18 02 19
  23682162.488    -4392806.990 3  -3422943.996 1
  24821945.517     -461192.990 2   -359371.528 1
  20787753.225     2450364.300 4   1909371.645 3
  23760418.199    -6529351.856 2  -5087805.877 1
  21068846.428      153671.159 3    119745.247 3
 91  4  6 21  8 30.0000000  0  5 11 16 18 02 19
  23678574.270    -4411677.625 2  -3437648.244 1
  24817537.382     -484354.890 2   -377419.785 1
  20792938.138     2477603.273 4   1930596.790 3
  23753587.137    -6565238.174 2  -5115769.086 1
  21070140.955      160488.775 4    125057.682 3
 91  4  6 21  8 45.0000000  0  5 11 16 18 02 19
  23674999.523    -4430445.927 3  -3452272.741 1
  24813149.316     -507412.299 2   -395386.616 1
  20798142.840     2504953.590 4   1951908.696 3
  23746774.048    -6601075.034 2  -5143693.770 1
  21071446.824      167343.737 3    130399.219 2
 91  4  6 21  9  0.0000000  0  5 11 16 18 02 19
  23671448.787    -4449112.793 2  -3466818.246 1
  24808780.130     -530366.238 2   -413272.728 1
  20803367.017     2532414.454 4   1973306.742 3
  23739955.271    -6636863.620 2  -5171580.781 1
  21072761.419      174234.834 3    135768.916 3
 91  4  6 21  9 15.0000000  0  5 11 16 18 02 19
  23667919.027    -4467674.801 2  -3481282.027 1
  24804443.332     -553213.297 2   -431075.671 1
  20808614.891     2559988.789 4   1994793.207 3
  23733160.470    -6672600.766 2  -5199427.751 1
  21074077.829      181164.933 3    141168.989 3
 91  4  6 21  9 30.0000000  0  5 11 16 18 02 19
  23664403.681    -4486141.188 2  -3495671.268 1
  24800101.160     -575962.565 2   -448802.353 1
  20813877.737     2587666.725 4   2016360.397 3
  23726361.796    -6708295.848 2  -5227241.925 1
  21075406.802      188124.469 3    146592.013 2
 91  4  6 21  9 45.0000000  0  5 11 16 18 02 19
  23660905.994    -4504503.556 2  -3509979.477 1
  24795793.713     -598605.917 2   -466446.529 1
  20819169.690     2615456.461 4   2038014.697 3
  23719579.594    -6743940.546 2  -5255016.840 1
  21076733.089      195121.433 3    152044.203 3
 91  4  6 21 10  0.0000000  0  5 11 16 18 02 19
  23657432.005    -4522771.754 2  -3524214.339 1
  24791507.311     -621153.644 2   -484016.231 1
  20824474.800     2643347.862 4   2059748.219 3
  23712804.582    -6779545.067 2  -5282760.493 1
  21078072.253      202145.838 3    157517.763 3
 91  4  6 21 10 15.0000000  0  5 11 16 18 02 19
  23653972.987    -4540937.196 2  -3538369.093 1
  24787236.754     -643597.428 2   -501504.916 1
  20829806.924     2671349.210 4   2081567.414 3
  23706034.944    -6815101.034 2  -5310466.261 1
  21079412.639      209205.808 3    163019.041 2
 91  4  6 21 10 30.0000000  0  5 11 16 18 02 19
  23650539.762    -4558999.734 2  -3552443.715 1
  24782985.114     -665936.736 2   -518912.167 1
  20835155.520     2699459.936 4   2103471.835 3
  23699282.443    -6850608.395 2  -5338134.157 1
  21080770.092      216301.241 3    168547.951 3
 91  4  6 21 10 45.0000000  0  5 11 16 18 02 19
  23647120.636    -4576964.824 2  -3566442.354 1
  24778752.319     -688177.556 2   -536242.639 1
  20840523.312     2727674.359 4   2125457.071 3
  23692534.688    -6886072.850 2  -5365768.646 1
  21082120.669      223426.153 3    174099.840 2
 91  4  6 21 11  0.0000000  0  5 11 16 18 02 19
  23643724.893    -4594826.298 2  -3580360.283 1
  24774537.533     -710313.446 2   -553491.393 1
  20845913.579     2755998.331 4   2147527.657 3
  23685792.657    -6921488.396 2  -5393365.012 1
  21083482.309      230586.407 3    179679.252 3
 91  4  6 21 11 15.0000000  0  5 11 16 18 02 19
  23640342.622    -4612582.753 2  -3594196.358 1
  24770354.227     -732343.177 2   -570657.452 1
  20851324.822     2784432.993 4   2169684.500 3
  23679066.819    -6956853.801 2  -5420922.331 1
  21084849.674      237783.178 3    185287.137 2
 91  4  6 21 11 30.0000000  0  5 11 16 18 02 19
  23636982.862    -4630230.697 2  -3607947.891 1
  24766176.924     -754263.840 2   -587738.474 1
  20856756.481     2812981.352 4   2191929.934 3
  23672343.669    -6992166.019 2  -5448438.179 1
  21086233.511      245019.594 3    190925.916 2
 91  4  6 21 11 45.0000000  0  5 11 16 18 02 19
  23633644.985    -4647767.195 3  -3621612.588 1
  24762021.818     -776072.358 2   -604732.151 1
  20862211.175     2841645.836 4   2214265.860 3
  23665638.807    -7027422.033 2  -5475910.248 1
  21087616.755      252298.076 3    196597.466 3
 91  4  6 21 12  0.0010000  0  5 11 16 18 02 19
  23630328.975    -4665185.359 3  -3635185.101 1
  24757899.678     -797761.991 2   -621633.162 1
  20867690.494     2870436.104 4   2236699.798 3
  23658939.340    -7062616.288 2  -5503334.184 1
  21089010.175      259626.924 3    202308.272 3
 91  4  6 21 12 15.0010000  0  5 11 16 18 02 19
  23627037.550    -4682489.217 2  -3648668.519 1
  24753793.398     -819336.460 2   -638444.447 1
  20873190.803     2899341.534 4   2259223.470 3
  23652255.488    -7097750.719 2  -5530711.506 1
  21090413.208      266998.475 3    208052.337 3
 91  4  6 21 12 30.0010000  0  5 11 16 18 02 19
  23623770.695    -4699670.493 2  -3662056.420 1
  24749712.316     -840787.615 2   -655159.559
  20878714.774     2928373.572 4   2281845.798 3
  23645579.698    -7132818.355 2  -5558036.778 1
  21091825.838      274422.388 4    213837.217 3
 91  4  6 21 12 45.0010000  0  5 11 16 18 02 19
  23620520.068    -4716728.048 2  -3675347.945 1
  24745655.245     -862114.559 2   -671777.994 1
  20884262.722     2957532.752 4   2304567.212 3
  23638918.321    -7167818.108 2  -5585309.156 1
  21093247.437      281899.504 3    219663.553 3
 91  4  6 21 13  0.0010000  0  5 11 16 18 02 19
  23617302.388    -4733663.637 2  -3688544.406 1
  24741616.741     -883319.318 2   -688301.104 1
  20889835.868     2986816.643 4   2327385.785 3
  23632268.637    -7202752.132 2  -5612530.310 1
  21094679.856      289427.787 4    225529.752 3
 91  4  6 21 13 15.0010000  0  5 11 16 18 02 19
  23614098.807    -4750477.740 2  -3701646.245 1
  24737605.529     -904402.482 2   -704729.504 1
  20895433.584     3016224.453 4   2350300.925 3
  23625634.797    -7237621.057 2  -5639700.768 1
  21096122.465      297006.371 3    231435.159 2
 91  4  6 21 13 30.0010000  0  5 11 16 18 02 19
  23610924.298    -4767167.121 2  -3714650.819 1
  24733619.166     -925360.877 2   -721060.708 1
  20901054.403     3045759.221 4   2373314.991 3
  23619012.998    -7272421.809 2  -5666818.097 1
  21097577.360      304638.234 3    237382.077 2
 91  4  6 21 13 45.0010000  0  5 11 16 18 02 19
  23607768.671    -4783746.875 2  -3727570.009 1
  24729657.408     -946209.575 2   -737306.451 1
  20906695.605     3075405.502 4   2396415.946 3
  23612399.889    -7307169.739 2  -5693894.252 1
  21099034.627      312307.721 3    243358.308 3
 91  4  6 21 14  0.0010000  0  5 11 16 18 02 19
  23604635.554    -4800221.792 2  -3740407.515 1
  24725704.062     -966953.724 2   -753470.732 1
  20912357.782     3105158.029 4   2419599.693 3
  23605801.438    -7341869.846 2  -5720933.153 1
  21100504.529      320009.938 3    249360.042 3
 91  4  6 21 14 15.0010000  0  5 11 16 18 02 19
  23601520.097    -4816577.170 2  -3753151.893 1
  24721778.879     -987578.532 2   -769541.955 1
  20918039.433     3135031.336 4   2442877.555 3
  23599204.523    -7376507.484 2  -5747923.354 1
  21101972.022      327759.271 4    255398.498 2
 91  4  6 21 14 30.0010000  0  5 11 16 18 02 19
  23598431.338    -4832815.457 2  -3765805.016 1
  24717880.361    -1008087.022 2   -785522.655 1
  20923746.003     3165022.165 4   2466246.993 3
  23592626.768    -7411085.164 2  -5774866.862 1
  21103457.769      335552.729 4    261471.329 3
 91  4  6 21 14 45.0010000  0  5 11 16 18 02 19
  23595367.778    -4848934.921 2  -3778365.518 1
  24714001.352    -1028477.094 2   -801410.965 1
  20929478.609     3195132.222 4   2489709.335 3
  23586057.110    -7445601.411 2  -5801762.509 1
  21104950.460      343391.711 4    267579.635 3
 91  4  6 21 15  0.0010000  0  5 11 16 18 02 19
  23592319.190    -4864935.062 2  -3790833.078 1
  24710142.725    -1048748.311 2   -817206.718 1
  20935231.039     3225361.438 4   2513264.532 3
  23579504.553    -7480055.982 2  -5828610.084 1
  21106449.993      351276.475 4    273723.623 3
 91  4  6 21 15 15.0010000  0  5 11 16 18 02 19
  23589295.765    -4880810.302 2  -3803203.284 1
  24706309.261    -1068895.452 2   -832905.755 1
  20941005.630     3255715.198 4   2536916.773 3
  23572958.592    -7514443.452 2  -5855405.388 1
  21107959.471      359212.255 3    279907.368 3
 91  4  6 21 15 30.0010000  0  5 11 16 18 02 19
  23586296.631    -4896559.031 2  -3815474.967 1
  24702495.621    -1088916.720 2   -848506.717 1
  20946806.641     3286194.594 4   2560666.910 3
  23566428.791    -7548762.350 2  -5882147.220 1
  21109478.827      367200.375 3    286131.886 3
 91  4  6 21 15 45.0010000  0  5 11 16 18 02 19
  23583325.418    -4912176.229 2  -3827644.100 1
  24698706.551    -1108807.664 2   -864006.159 1
  20952632.186     3316804.387 4   2584518.658 3
  23559912.810    -7583007.884 2  -5908831.890 1
  21111011.654      375245.631 3    292400.930 2
 91  4  6 21 16  0.0010000  0  5 11 16 18 02 19
  23580385.649    -4927655.121 2  -3839705.454 1
  24694951.927    -1128561.634 2   -879398.890 1
  20958483.838     3347550.925 4   2608476.949 3
  23553408.206    -7617173.525 2  -5935454.333 1
  21112551.985      383354.389 4    298719.454 2
 91  4  6 21 16 15.0010000  0  5 11 16 18 02 19
  23577462.668    -4943001.221 2  -3851663.377 1
  24691214.439    -1148184.047 2   -894689.072 1
  20964357.686     3378428.154 4   2632537.085 3
  23546920.704    -7651264.927 2  -5962018.910 1
  21114106.101      391520.836 3    305082.931 2
 91  4  6 21 16 30.0010000  0  5 11 16 18 02 19
  23574564.571    -4958216.313 2  -3863519.206 1
  24687502.115    -1167676.811 2   -909878.206 1
  20970258.198     3409434.205 4   2656697.605 3
  23540446.673    -7685283.924 2  -5988527.074 1
  21115673.410      399742.886 3    311489.727 2
 91  4  6 21 16 45.0010000  0  5 11 16 18 02 19
  23571693.452    -4973311.162 2  -3875281.367 1
  24683822.736    -1187051.057 2   -924974.998 1
  20976181.779     3440557.817 4   2680949.727 3
  23533984.055    -7719241.525 2  -6014987.409 1
  21117244.627      408009.510 3    317931.262 2
 91  4  6 21 17  0.0010000  0  5 11 16 18 02 19
  23568840.620    -4988297.166 2  -3886958.687 1
  24680153.898    -1206317.899 2   -939988.107 1
  20982123.369     3471787.237 4   2705284.304 3
  23527535.815    -7753149.246 2  -6041408.875 1
  21118824.535      416308.927 3    324398.351 3
 91  4  6 21 17 15.0010000  0  5 11 16 18 02 19
  23566012.987    -5003172.240 2  -3898549.534 1
  24676504.813    -1225475.165 2   -954915.832 1
  20988087.434     3503124.206 4   2729702.678 3
  23521087.890    -7787005.146 2  -6067789.946 1
  21120409.853      424642.809 3    330892.290 2
 91  4  6 21 17 30.0010000  0  5 11 16 18 02 19
  23563206.015    -5017928.948 2  -3910048.181 1
  24672885.428    -1244516.049 2   -969752.857 1
  20994072.510     3534575.728 4   2754210.323 3
  23514657.031    -7820802.012 2  -6094124.998 1
  21122004.733      433018.369 3    337418.703 2
 91  4  6 21 17 45.0010000  0  5 11 16 18 02 19
  23560417.365    -5032577.170 3  -3921462.316 1
  24669278.329    -1263450.373 2   -984506.852 1
  21000076.467     3566131.463 4   2778799.171 3
  23508237.584    -7854549.922 2  -6120421.952 1
  21123602.021      441425.412 3    343969.663 3
 91  4  6 21 18  0.0010000  0  5 11 16 18 02 19
  23557652.378    -5047115.290 3  -3932790.636 1
  24665702.395    -1282276.560 2   -999176.590 1
  21006101.364     3597792.814 4   2803470.307 3
  23501821.419    -7888247.363 2  -6146679.582 1
  21125210.408      449865.387 3    350546.279 3
 91  4  6 21 18 15.0010000  0  5 11 16 18 02 19
  23554910.181    -5061533.740 3  -3944025.705 1
  24662130.371    -1300985.410 2  -1013754.910 1
  21012147.306     3629568.710 4   2828230.704 3
  23495423.261    -7921885.224 2  -6172890.743 1
  21126825.390      458347.278 3    357155.551 2
 91  4  6 21 18 30.0010000  0  6 11 16 06 18 02 19
  23552184.178    -5075826.257 3  -3955162.641 1
  24658600.296    -1319570.438 2  -1028236.749 1
  25141955.972           0.738 2         0.435 1
  21018221.378     3661465.090 4   2853084.990 3
  23489038.262    -7955457.259 3  -6199050.634 1
  21128446.969      466877.241 3    363802.281 3
 91  4  6 21 18 45.0010000  0  6 11 16 06 18 02 19
  23549488.433    -5090009.353 3  -3966214.303 1
  24655082.228    -1338048.388 2  -1042635.146 1
  25137458.806      -23629.583 2    -18412.671 1
  21024310.457     3693465.221 4   2878020.117 3
  23482657.799    -7988980.145 3  -6225172.250 1
  21130076.366      475438.526 3    370473.428 2
 91  4  6 21 19  0.0010000  0  6 11 16 06 18 02 19
  23546813.385    -5104076.724 3  -3977175.809 1
  24651587.577    -1356413.194 2  -1056945.375 1
  25132961.606      -47248.623 2    -36817.012 1
  21030421.139     3725575.150 4   2903040.806 3
  23476282.118    -8022447.667 3  -6251250.678 1
  21131713.824      484037.027 3    377173.567 3
 91  4  6 21 19 15.0010000  0  6 11 16 06 18 02 19
  23544159.626    -5118023.046 3  -3988043.016 1
  24648121.057    -1374659.574 2  -1071163.314 1
  25128474.631      -70851.339 2    -55208.626 1
  21036551.889     3757799.609 4   2928150.723 3
  23469930.099    -8055854.669 3  -6277281.986 1
  21133358.193      492677.813 3    383906.655 3
 91  4  6 21 19 30.0010000  0  6 11 16 06 18 02 19
  23541524.433    -5131858.621 3  -3998823.877 1
  24644662.947    -1392797.867 2  -1085297.041 1
  25123976.244      -94448.516 2    -73595.855 1
  21042703.649     3790128.073 4   2953341.700 3
  23463581.116    -8089211.815 3  -6303274.436 1
  21135009.438      501350.215 3    390664.377 2
 91  4  6 21 19 45.0010000  0  6 11 16 06 18 02 19
  23538911.438    -5145578.946 3  -4009514.975 1
  24641240.541    -1410823.661 2  -1099343.085 1
  25119497.018     -118036.008 2    -91975.699 1
  21048876.978     3822564.604 4   2978616.878 3
  23457243.790    -8122514.576 3  -6329224.523 1
  21136663.404      510058.574 3    397450.116 2
 91  4  6 21 20  0.0010000  0  6 11 16 06 18 02 19
  23536329.329    -5159174.457 3  -4020108.824 1
  24637826.475    -1428727.442 2  -1113294.066 1
  25115009.136     -141604.439 2   -110340.511 1
  21055070.688     3855118.456 4   3003983.470 3
  23450916.656    -8155753.462 2  -6355124.824 1
  21138335.344      518812.072 3    404271.029 2
 91  4  6 21 20 15.0010000  0  6 11 16 06 18 02 19
  23533762.507    -5172633.437 3  -4030596.261 1
  24634451.429    -1446497.828 2  -1127141.112 1
  25110528.443     -165142.466 2   -128681.774 1
  21061290.469     3887801.030 4   3029450.368 3
  23444606.029    -8188916.916 3  -6380966.351 1
  21140006.691      527622.206 3    411136.078 3
 91  4  6 21 20 30.0010000  0  6 11 16 06 18 02 19
  23531229.258    -5185947.103 3  -4040970.453 2
  24631090.168    -1464126.104 2  -1140877.428 1
  25106054.941     -188641.925 2   -146992.906 1
  21067533.948     3920620.641 4   3055024.041 3
  23438313.410    -8221996.574 2  -6406742.548 1
  21141696.920      536497.383 4    418051.799 2
 91  4  6 21 20 45.0010000  0  6 11 16 06 18 02 19
  23528722.988    -5199120.802 3  -4051235.595 1
  24627771.764    -1481617.532 2  -1154507.048 1
  25101586.847     -212108.405 2   -165278.320 1
  21073805.312     3953571.492 4   3080699.976 3
  23432032.728    -8254997.750 3  -6432457.634 1
  21143397.024      545431.881 3    425013.750 3
 91  4  6 21 21  0.0010000  0  6 11 16 06 18 02 19
  23526246.104    -5212149.170 3  -4061387.458 1
  24624466.554    -1498967.222 2  -1168026.315 1
  25097138.822     -235536.910 2   -183534.233 1
  21080101.560     3986658.730 4   3106482.195 3
  23425763.493    -8287915.200 3  -6458107.469 1
  21145106.448      554430.967 3    432026.025 3
 91  4  6 21 21 15.0010000  0  6 11 16 06 18 02 19
  23523797.420    -5225023.915 3  -4071419.674 1
  24621188.007    -1516166.946 2  -1181428.674 1
  25092686.294     -258919.472 2   -201754.249 1
  21086425.065     4019890.038 4   3132376.677 3
  23419522.108    -8320740.974 3  -6483685.851 1
  21146834.438      563502.678 3    439094.896 3
 91  4  6 21 21 30.0010000  0  6 11 16 06 18 02 19
  23521376.586    -5237739.986 3  -4081328.226 1
  24617944.256    -1533211.405 2  -1194710.009 1
  25088245.458     -282251.412 2   -219934.885 1
  21092777.677     4053270.336 4   3158387.248 3
  23413295.103    -8353470.169 3  -6509188.995 1
  21148578.936      572651.813 3    446224.098 3
 91  4  6 21 21 45.0010000  0  6 11 16 06 18 02 19
  23518986.046    -5250297.682 3  -4091113.365 1
  24614725.388    -1550100.949 2  -1207870.668 1
  25083819.350     -305533.379 2   -238076.549 1
  21099159.361     4086798.877 4   3184513.344 3
  23407084.012    -8386103.096 3  -6534617.118 1
  21150330.938      581877.695 3    453413.104 3
 91  4  6 21 22  0.0010000  0  6 11 16 06 18 02 19
  23516630.267    -5262698.431 3  -4100776.211 1
  24611550.286    -1566837.118 2  -1220911.798 1
  25079384.796     -328767.151 2   -256180.757 1
  21105566.209     4120473.862 4   3210753.538 3
  23400889.987    -8418641.339 3  -6559971.479 1
  21152103.008      591178.802 3    460660.725 3
 91  4  6 21 22 15.0010000  0  6 11 16 06 18 02 19
  23514297.277    -5274943.580 3  -4110317.811 1
  24608387.155    -1583421.692 2  -1233834.953 1
  25074976.068     -351954.563 2   -274248.640 1
  21112003.978     4154293.641 4   3237106.569 3
  23394719.974    -8451086.385 3  -6585253.180 1
  21153885.268      600553.119 3    467965.390 3
 91  4  6 21 22 30.0010000  0  6 11 16 06 18 02 19
  23511995.489    -5287037.892 3  -4119741.878 1
  24605263.322    -1599859.351 2  -1246643.463 1
  25070575.995     -375100.701 2   -292284.496 1
  21118466.003     4188252.951 4   3263568.326 3
  23388559.838    -8483443.235 3  -6610466.196 1
  21155684.630      609995.718 3    475323.271 3
 91  4  6 21 22 45.0010000  0  6 11 16 06 18 02 19
  23509720.958    -5298976.116 3  -4129044.306 1
  24602163.186    -1616145.127 2  -1259333.627 1
  25066176.830     -398200.558 2   -310284.291 1
  21124954.413     4222356.664 4   3290142.604 3
  23382419.804    -8515706.881 3  -6635606.581 1
  21157493.869      619511.568 3    482738.214 2
 91  4  6 21 23  0.0010000  0  6 11 16 06 18 02 19
  23507481.501    -5310772.929 3  -4138236.519 1
  24599091.808    -1632294.003 2  -1271917.151 1
  25061789.392     -421269.376 2   -328259.902 1
  21131468.300     4256589.661 4   3316817.623 3
  23376297.710    -8547892.257 3  -6660685.963 1
  21159319.301      629085.740 3    490198.603 3
 91  4  6 21 23 15.0010000  0  6 11 16 06 18 02 19
  23505258.832    -5322435.413 3  -4147324.124 1
  24596043.813    -1648312.936 2  -1284399.389 1
  25057403.734     -444314.481 2   -346217.019 1
  21138007.350     4290944.595 4   3343587.661 3
  23370184.061    -8580006.498 3  -6685709.921 1
  21161146.828      638710.887 3    497698.724 3
 91  4  6 21 23 30.0010000  0  6 11 16 06 18 02 19
  23503062.862    -5333971.759 3  -4156313.416 1
  24593017.108    -1664210.421 2  -1296787.005 1
  25053019.541     -467344.470 2   -364162.271 1
  21144565.317     4325412.860 4   3370446.002 3
  23364089.886    -8612057.907 3  -6710684.932 1
  21162984.266      648378.539 4    505231.969 3
 91  4  6 21 23 45.0010000  0  6 11 16 06 18 02 19
  23500890.868    -5345379.722 3  -4165202.648 1
  24590023.977    -1679984.038 2  -1309078.176 1
  25048638.105     -490357.327 2   -382094.239 1
  21151147.259     4359996.229 4   3397394.045 3
  23358000.493    -8644044.479 3  -6735609.417 1
  21164833.989      658090.757 3    512799.935 2
 91  4  6 21 24  0.0010000  0  6 11 16 06 18 02 19
  23498743.165    -5356654.584 3  -4173988.214 1
  24587037.756    -1695629.104 2  -1321269.081 1
  25044263.231     -513348.720 2   -400009.559 1
  21157749.305     4394699.441 4   3424435.466 3
  23351924.607    -8675961.511 3  -6760479.718 1
  21166696.311      667852.001 3    520406.100 3
 91  4  6 21 24 15.0010000  0  6 11 16 06 18 02 19
  23496627.815    -5367797.228 3  -4182670.719 1
  24584084.202    -1711146.837 2  -1333360.820 1
  25039888.950     -536319.715 1   -417908.993 1
  21164377.700     4429521.270 4   3451569.312 3
  23345862.192    -8707809.969 3  -6785296.551 1
  21168559.820      677661.271 3    528049.694 2
 91  4  6 21 24 30.0010000  0  6 11 16 06 18 02 19
  23494525.378    -5378816.990 3  -4191257.443 1
  24581156.405    -1726546.278 2  -1345360.360 1
  25035529.048     -559280.177 2   -435800.149 1
  21171024.104     4464451.714 4   3478787.798 3
  23339816.284    -8739599.417 3  -6810067.427 1
  21170431.425      687508.798 4    535723.094 2
 91  4  6 21 24 45.0010000  0  6 11 16 06 18 02 19
  23492454.107    -5389706.261 3  -4199742.521 1
  24578247.523    -1741820.357 2  -1357262.220 1
  25031161.398     -582222.887 2   -453677.479 1
  21177693.298     4499498.022 4   3506096.568 3
  23333776.066    -8771322.504 3  -6834786.600 1
  21172313.815      697401.761 3    543431.902 3
 91  4  6 21 25  0.0010000  0  6 11 16 06 18 02 19
  23490409.535    -5400459.978 3  -4208121.959 1
  24575367.434    -1756964.232 2  -1369062.653 1
  25026787.710     -605143.119 1   -471537.197 1
  21184384.654     4534664.781 4   3533499.187 3
  23327753.821    -8802974.227 3  -6859450.180 1
  21174206.989      707345.148 4    551179.995 3
 91  4  6 21 25 15.0010000  0  6 11 16 06 18 02 19
  23488391.312    -5411069.102 3  -4216388.732 1
  24572512.788    -1771968.738 2  -1380754.463 1
  25022438.628     -628032.150 2   -489372.700 1
  21191102.709     4569960.892 4   3561002.599 3
  23321748.992    -8834545.771 3  -6884051.259 1
  21176109.482      717347.733 3    558974.220 3
 91  4  6 21 25 30.0010000  0  6 11 16 06 18 02 19
  23486397.101    -5421538.272 3  -4224546.453 1
  24569689.343    -1786838.493 2  -1392341.252 1
  25018096.734     -650894.924 2   -507187.770 1
  21197842.332     4605381.133 4   3588602.740 3
  23315754.633    -8866041.881 3  -6908593.579 1
  21178023.945      727404.481 4    566810.655 2
 91  4  6 21 25 45.0010000  0  6 11 16 06 18 02 19
  23484430.183    -5431873.133 3  -4232599.501 1
  24566875.809    -1801579.551 2  -1403827.766 1
  25013745.836     -673737.479 2   -524987.042 1
  21204605.373     4640919.697 4   3616295.083 3
  23309773.187    -8897468.263 3  -6933081.545 1
  21179946.540      737509.780 3    574684.924 3
 91  4  6 21 26  0.0010000  0  6 11 16 06 18 02 19
  23482490.800    -5442070.280 3  -4240545.277 1
  24564101.225    -1816188.604 2  -1415211.450 1
  25009404.257     -696556.681 2   -542768.121 1
  21211391.763     4676579.600 4   3644081.972 3
  23303807.306    -8928821.797 3  -6957512.765 1
  21181880.792      747666.609 4    582599.336 2
 91  4  6 21 26 15.0010000  0  6 11 16 06 18 02 19
  23480577.524    -5452138.551 3  -4248390.599 1
  24561334.737    -1830674.368 2  -1426499.077 1
  25005065.959     -719361.731 2   -560538.158 1
  21218199.756     4712351.553 4   3671956.170 3
  23297851.931    -8960111.484 3  -6981894.238 1
  21183817.138      757865.813 3    590546.766 2
 91  4  6 21 26 30.0010000  0  6 11 16 06 18 02 19
  23478684.035    -5462076.394 3  -4256134.307 1
  24558603.918    -1845035.337 2  -1437689.423 1
  25000723.472     -742151.453 2   -578296.400 1
  21225026.037     4748236.637 4   3699918.527 3
  23291912.435    -8991335.678 3  -7006224.659 1
  21185772.400      768108.716 3    598528.259 2
 91  4  6 21 26 45.0010000  0  6 11 16 06 18 02 19
  23476819.933    -5471889.225 3  -4263780.596 1
  24555899.518    -1859277.150 2  -1448786.948 1
  24996396.865     -764931.626 2   -596046.948 1
  21231875.073     4784229.307 4   3727964.706 3
  23285974.161    -9022500.134 2  -7030508.537 2
  21187727.348      778389.719 3    606539.426 3
 91  4  6 21 27  0.0010000  0  6 11 16 06 18 02 19
  23474972.898    -5481575.248 3  -4271328.082 1
  24553208.869    -1873398.299 2  -1459790.456 1
  24992061.254     -787700.760 2   -613789.077 1
  21238745.433     4820330.767 4   3756095.666 3
  23280058.642    -9053603.057 3  -7054744.450 1
  21189687.985      788710.362 4    614581.475 3
 91  4  6 21 27 15.0010000  0  6 11 16 06 18 02 19
  23473150.467    -5491140.083 3  -4278781.110 1
  24550542.196    -1887404.586 2  -1470704.416 1
  24987721.768     -810464.784 2   -631527.133 1
  21245636.768     4856535.122 4   3784306.804 3
  23274156.036    -9084650.508 3  -7078937.183 1
  21191662.407      799064.729 3    622649.818 2
 91  4  6 21 27 30.0010000  0  6 11 16 06 18 02 19
  23471352.920    -5500583.588 3  -4286139.606 2
  24547903.723    -1901295.715 2  -1481528.658 1
  24983396.348     -833223.846 2   -649261.453 1
  21252545.170     4892842.501 4   3812598.214 3
  23268257.304    -9115642.243 3  -7103086.468 1
  21193637.144      809452.909 4    630744.514 2
 91  4  6 21 27 45.0010000  0  6 11 16 06 18 02 19
  23469581.443    -5509912.049 3  -4293408.460 1
  24545278.443    -1915078.002 2  -1492268.146 1
  24979065.867     -855984.551 2   -666996.962 1
  21259470.987     4929245.970 4   3840964.506 3
  23262368.484    -9146584.706 3  -7127197.370 1
  21195619.070      819868.282 3    638860.390 2
 91  4  6 21 28  0.0010000  0  6 11 16 06 18 02 19
  23467827.347    -5519121.747 3  -4300584.734 2
  24542681.048    -1928747.843 2  -1502919.957 1
  24974730.570     -878743.505 2   -684731.081 1
  21266415.650     4965748.771 4   3869408.196 3
  23256487.760    -9177474.405 3  -7151267.146 1
  21197608.813      830314.384 3    647000.208 2
 91  4  6 21 28 15.0010000  0  6 11 16 06 18 02 19
  23466098.450    -5528218.146 3  -4307672.769 1
  24540090.249    -1942310.983 2  -1513488.611 1
  24970400.054     -901506.516 2   -702468.385
  21273382.231     5002345.052 4   3897924.724 3
  23250621.137    -9208316.799 3  -7175300.083 1
  21199598.836      840785.237 3    655159.323 3
 91  4  6 21 28 30.0010000  0  6 11 16 06 18 02 19
  23464389.655    -5537200.136 3  -4314671.670 1
  24537540.528    -1955766.192 2  -1523973.229 1
  24966065.350     -924272.825 2   -720208.318 1
  21280365.005     5039035.667 4   3926514.758 3
  23244757.794    -9239110.929 3  -7199295.408 1
  21201596.048      851281.832 3    663338.494 2
 91  4  6 21 28 45.0010000  0  6 11 16 06 18 02 19
  23462700.020    -5546071.002 3  -4321583.937 1
  24534993.180    -1969117.084 2  -1534376.516 1
  24961735.742     -947045.958 2   -737953.532 1
  21287362.752     5075817.032 4   3955175.514 3
  23238910.924    -9269860.368 3  -7223255.889 1
  21203599.857      861800.766 3    671535.067 2
 91  4  6 21 29  0.0010000  0  6 11 16 06 18 02 19
  23461037.956    -5554819.293 3  -4328400.742 1
  24532477.626    -1982352.447 2  -1544689.807 1
  24957397.443     -969815.045 2   -755695.579 1
  21294381.509     5112700.054 4   3983915.482 3
  23233066.183    -9300553.957 3  -7247172.879 1
  21205604.573      872353.184 3    679757.730 2
 91  4  6 21 29 15.0010000  0  6 11 16 06 18 02 19
  23459394.216    -5563440.895 3  -4335118.790 1
  24529979.732    -1995468.234 2  -1554909.895 1
  24953065.461     -992576.131 2   -773431.373 1
  21301418.518     5149688.646 4   4012737.709 3
  23227239.730    -9331187.564 3  -7271043.132 1
  21207621.853      882942.989 3    688009.527 2
 91  4  6 21 29 30.0010000  0  6 11 16 06 18 02 19
  23457781.327    -5571926.654 3  -4341730.981 1
  24527511.259    -2008455.210 2  -1565029.606 1
  24948745.136    -1015320.350 2   -791154.038 1
  21308482.262     5186791.609 4   4041649.055 3
  23221421.653    -9361752.116 3  -7294859.548 2
  21209646.951      893579.123 3    696297.429 2
 91  4  6 21 29 45.0010000  0  6 11 16 06 18 02 19
  23456190.600    -5580275.643 3  -4348236.609 1
  24525064.041    -2021312.706 2  -1575048.455 1
  24944416.435    -1038047.168 2   -808863.213 1
  21315565.131     5224009.387 4   4070649.866 3
  23215617.954    -9392246.846 3  -7318621.594 1
  21211680.773      904262.213 3    704621.920 3
 91  4  6 21 30  0.0010000  0  6 11 16 06 18 02 19
  23454630.795    -5588485.976 3  -4354634.198 1
  24522644.114    -2034038.867 2  -1584964.945 1
  24940094.017    -1060754.849 2   -826557.417 1
  21322667.230     5261343.581 4   4099741.395 3
  23209830.764    -9422670.026 3  -7342327.846 1
  21213723.845      914994.160 3    712984.467 3
 91  4  6 21 30 15.0010000  0  6 11 16 06 18 02 19
  23453092.558    -5596555.663 3  -4360922.177 1
  24520242.790    -2046631.654 2  -1594777.491 1
  24935779.415    -1083441.809 2   -844235.398 1
  21329796.900     5298795.933 4   4128924.998 3
  23204055.266    -9453019.675 3  -7365976.824 1
  21215772.640      925776.429 3    721386.237 2
 91  4  6 21 30 30.0010000  0  6 11 16 06 18 02 19
  23451589.710    -5604472.791 3  -4367091.268 1
  24517879.228    -2059079.504 2  -1604477.071 1
  24931475.598    -1106096.505 2   -861888.327 1
  21336946.045     5336377.791 4   4158209.505 3
  23198295.647    -9483284.099 3  -7389559.377 1
  21217839.095      936620.773 3    729836.381 2
 91  4  6 21 30 45.0010000  0  6 11 16 06 18 02 19
  23450109.025    -5612253.163 3  -4373153.840 1
  24515526.764    -2071398.254 2  -1614076.134 1
  24927159.182    -1128735.036 2   -879528.653 1
  21344120.074     5374072.962 4   4187582.317 3
  23192549.534    -9513479.224 3  -7413087.943 1
  21219909.459      947511.231 3    738322.458 2
 91  4  6 21 31  0.0010000  0  6 11 16 06 18 02 19
  23448655.631    -5619892.100 3  -4379106.184 1
  24513216.250    -2083583.198 2  -1623570.902 1
  24922855.365    -1151352.936 2   -897152.872 1
  21351314.484     5411885.988 4   4217046.958 2
  23186817.208    -9543600.572 3  -7436559.021 1
  21221988.827      958452.315 4    746847.968 2
 91  4  6 21 31 15.0010000  0  6 11 16 06 18 02 19
  23447223.212    -5627387.657 3  -4384946.777 1
  24510921.337    -2095632.839 2  -1632960.204 1
  24918555.736    -1173948.816 2   -914759.959 1
  21358531.092     5449818.064 4   4246604.363 3
  23181098.946    -9573646.387 3  -7459971.220 1
  21224084.982      969445.538 3    755414.123 2
 91  4  6 21 31 30.0010000  0  6 11 16 06 18 02 19
  23445825.589    -5634743.131 3  -4390678.241 1
  24508647.713    -2107550.240 2  -1642246.510 1
  24914256.421    -1196526.050 2   -932352.470 1
  21365774.991     5487865.707 4   4276251.828 3
  23175393.911    -9603619.884 3  -7483327.095 1
  21226188.012      980487.526 3    764018.276 2
 91  4  6 21 31 45.0010000  0  6 11 16 06 18 02 19
  23444450.757    -5641973.335 3  -4396312.099 1
  24506407.664    -2119350.601 2  -1651441.535 1
  24909961.609    -1219099.926 2   -949942.535 1
  21373034.142     5526013.771 4   4305977.541 2
  23169703.256    -9633536.188 3  -7506638.387 1
  21228291.077      991563.214 3    772648.680 2
 91  4  6 21 32  0.0010000  0  6 11 16 06 18 02 19
  23443096.899    -5649067.520 3  -4401839.976 1
  24504192.498    -2131023.179 2  -1660537.060 1
  24905671.263    -1241660.002 2   -967521.623 1
  21380313.116     5564272.840 4   4335789.747 3
  23164022.477    -9663384.595 3  -7529896.800 1
  21230408.208     1002683.062 3    781313.495 2
 91  4  6 21 32 15.0010000  0  6 11 16 06 18 02 19
  23441773.300    -5656032.443 3  -4407267.127 1
  24501989.339    -2142574.590 2  -1669538.175 1
  24901367.726    -1264213.281 2   -985095.637 1
  21387613.659     5602635.694 4   4365682.823 3
  23158353.704    -9693172.058 3  -7553107.689 1
  21232529.526     1013840.182 3    790007.368 2
 91  4  6 21 32 30.0010000  0  6 11 16 06 18 02 19
  23440474.585    -5662864.165 3  -4412590.428 1
  24499819.125    -2154001.379 2  -1678442.138 1
  24897091.794    -1286756.107 2  -1002661.322 1
  21394935.491     5641106.076 4   4395659.696 3
  23152699.310    -9722894.655 3  -7576268.045 1
  21234666.759     1025038.331 3    798733.194 2
 91  4  6 21 32 45.0010000  0  6 11 16 06 18 02 19
  23439200.475    -5669562.616 3  -4417809.952 1
  24497660.638    -2165303.381 2  -1687248.856 1
  24892805.357    -1309288.660 2  -1020219.072 1
  21402273.517     5679683.412 4   4425719.900 3
  23147057.829    -9752552.500 3  -7599377.959 1
  21236799.455     1036277.481 3    807490.977 2
 91  4  6 21 33  0.0010000  0  6 11 16 06 18 02 19
  23437950.655    -5676123.346 3  -4422922.124 1
  24495543.193    -2176476.090 2  -1695954.811 1
  24888515.326    -1331806.750 2  -1037765.407 1
  21409638.801     5718371.910 4   4455866.726 2
  23141421.723    -9782141.242 3  -7622434.011 1
  21238946.878     1047561.950 3    816284.068 2
 91  4  6 21 33 15.0010000  0  6 11 16 06 18 02 19
  23436734.096    -5682548.993 3  -4427929.020 2
  24493438.941    -2187522.334 2  -1704562.307 1
  24884230.390    -1354313.338 2  -1055302.887 1
  21417021.499     5757168.608 4   4486097.863 2
  23135803.904    -9811663.565 3  -7645438.321 1
  21241101.492     1058888.780 3    825110.167 2
 91  4  6 21 33 30.0010000  0  6 11 16 06 18 02 19
  23435531.915    -5688846.135 3  -4432835.836 1
  24491359.294    -2198448.883 2  -1713076.490 1
  24879950.864    -1376815.300 2  -1072836.839 1
  21424423.672     5796066.656 4   4516407.975 3
  23130202.594    -9841126.192 3  -7668396.091 1
  21243260.293     1070251.087 4    833963.917 2
 91  4  6 21 33 45.0010000  0  6 11 16 06 18 02 19
  23434357.341    -5695017.702 3  -4437644.766 1
  24489300.901    -2209259.043 2  -1721499.971 1
  24875672.245    -1399315.909 2  -1090369.629 1
  21431843.854     5835062.449 4   4546794.237 3
  23124604.878    -9870532.221 3  -7691309.788 1
  21245434.101     1081645.691 3    842842.828 2
 91  4  6 21 34  0.0010000  0  6 11 16 06 18 02 19
  23433204.336    -5701072.354 3  -4442362.602 1
  24487262.332    -2219961.276 2  -1729839.380 1
  24871389.682    -1421824.184 2  -1107908.500 1
  21439280.508     5874147.074 4   4577249.731 3
  23119011.036    -9899890.565 3  -7714186.310 1
  21247605.781     1093063.747 3    851740.017 3
 91  4  6 21 34 15.0010000  0  6 11 16 06 18 02 19
  23432071.712    -5707004.091 3  -4446984.665 1
  24485247.425    -2230549.518 2  -1738089.895 1
  24867106.875    -1444334.419 2  -1125448.761 1
  21446736.917     5913326.377 4   4607779.003 3
  23113441.485    -9929195.186 3  -7737020.976 1
  21249781.998     1104511.315 3    860660.205 2
 91  4  6 21 34 30.0010000  0  6 11 16 06 18 02 19
  23430972.383    -5712807.452 3  -4451506.698 1
  24483253.493    -2241018.574 2  -1746247.629 1
  24862813.529    -1466841.206 2  -1142986.417 1
  21454212.869     5952605.636 4   4638386.154 3
  23107874.342    -9958440.665 3  -7759809.555 1
  21251969.871     1115993.651 3    869607.491 2
 91  4  6 21 34 45.0010000  0  6 11 16 06 18 02 19
  23429887.433    -5718482.281 3  -4455928.570 1
  24481281.758    -2251368.456 2  -1754312.415 1
  24858539.377    -1489344.794 2  -1160521.497 1
  21461706.760     5991984.526 4   4669070.944 3
  23102318.612    -9987627.050 3  -7782552.090 1
  21254161.060     1127510.742 3    878581.849 2
 91  4  6 21 35  0.0010000  0  6 11 16 06 18 02 19
  23428837.244    -5724034.889 3  -4460255.230 1
  24479340.910    -2261605.481 2  -1762289.306 1
  24854256.570    -1511851.774 2  -1178059.352 1
  21469215.380     6031456.225 4   4699828.060 2
  23096777.225   -10016760.857 3  -7805253.638 1
  21256360.032     1139055.824 3    887578.022 2
 91  4  6 21 35 15.0010000  0  6 11 16 06 18 02 19
  23427800.282    -5729459.945 3  -4464482.485 1
  24477410.253    -2271724.435 2  -1770174.204 1
  24849966.818    -1534357.224 2  -1195595.948 1
  21476747.941     6071025.718 4   4730661.357 3
  23091246.379   -10045836.937 3  -7827910.224 1
  21258562.319     1150633.927 3    896599.930 2
 91  4  6 21 35 30.0010000  0  6 11 16 06 18 02 19
  23426792.672    -5734761.409 3  -4468613.453 1
  24475509.541    -2281729.525 2  -1777970.332 1
  24845688.792    -1556865.302 2  -1213134.567 1
  21484292.542     6110688.600 4   4761567.446 3
  23085719.406   -10074859.206 3  -7850524.877 2
  21260772.982     1162241.172 3    905644.539 2
 91  4  6 21 35 45.0010000  0  6 11 16 06 18 02 19
  23425808.165    -5739934.015 3  -4472643.980 1
  24473625.964    -2291615.516 2  -1785673.717 1
  24841407.451    -1579371.013 2  -1230671.389 1
  21491861.086     6150449.735 4   4792550.083 2
  23080207.092   -10103822.613 3  -7873093.667 1
  21262988.427     1173882.641 3    914715.808 2
 91  4  6 21 36  0.0010000  0  6 11 16 06 18 02 19
  23424847.322    -5744978.301 3  -4476574.542 1
  24471766.643    -2301382.957 2  -1793284.721 1
  24837123.109    -1601875.256 2  -1248207.032 1
  21499445.858     6190308.600 4   4823608.884 3
  23074705.317   -10132727.772 3  -7895617.066 2
  21265208.409     1185557.596 4    923813.169 2
 91  4  6 21 36 15.0010000  0  6 11 16 06 18 02 19
  23423910.768    -5749903.638 3  -4480412.419 2
  24469928.926    -2311041.479 2  -1800810.804 1
  24832839.394    -1624387.534 2  -1265748.959 1
  21507044.974     6230255.438 4   4854736.227 3
  23069215.828   -10161584.043 3  -7918102.367 1
  21267433.172     1197256.566 3    932929.254 2
 91  4  6 21 36 30.0010000  0  6 11 16 06 18 02 19
  23422996.691    -5754712.437 3  -4484159.507 1
  24468112.184    -2320593.215 2  -1808253.687 1
  24828552.364    -1646910.569 2  -1283299.256 1
  21514665.100     6270287.454 4   4885929.949 3
  23063734.400   -10190394.021 3  -7940551.603 2
  21269668.405     1208976.700 3    942061.831 2
 91  4  6 21 36 45.0010000  0  6 11 16 06 18 02 19
  23422101.809    -5759400.634 3  -4487812.574 1
  24466311.321    -2330034.503 2  -1815610.502 1
  24824255.423    -1669440.611 2  -1300855.010 1
  21522298.733     6310408.120 4   4917192.744 3
  23058261.698   -10219153.637 3  -7962961.590 2
  21271898.264     1220722.216 3    951214.181 2
 91  4  6 21 37  0.0010000  0  6 11 16 06 18 02 19
  23421233.905    -5763971.774 3  -4491374.472 1
  24464541.939    -2339369.234 2  -1822884.345 1
  24819969.579    -1691981.589 2  -1318419.269 1
  21529952.433     6350613.454 4   4948521.516 3
  23052795.871   -10247866.688 3  -7985335.296 1
  21274139.814     1232489.123 3    960383.200 2
 91  4  6 21 37 15.0010000  0  6 11 16 06 18 02 19
  23420387.918    -5768416.161 3  -4494837.569 1
  24462783.062    -2348587.635 2  -1830067.477 1
  24815686.458    -1714524.012 2  -1335984.687 1
  21537621.420     6390912.993 4   4979923.708 2
  23047344.144   -10276523.523 3  -8007665.201 1
  21276381.050     1244287.049 3    969576.387 2
 91  4  6 21 37 30.0010000  0  6 11 16 06 18 02 19
  23419565.874    -5772732.322 3  -4498200.761 1
  24461051.163    -2357688.461 2  -1837159.015 1
  24811393.146    -1737066.750 2  -1353550.372 1
  21545305.693     6431308.018 4   5011400.279 3
  23041899.327   -10305122.925 3  -8029950.342 2
  21278633.420     1256117.324 3    978794.783 2
 91  4  6 21 37 45.0010000  0  6 11 16 06 18 02 19
  23418768.713    -5776921.626 3  -4501465.111 1
  24459337.551    -2366672.879 2  -1844159.841 1
  24807107.896    -1759611.309 2  -1371117.516 1
  21553010.348     6471796.540 4   5042949.706 3
  23036472.169   -10333666.315 3  -8052191.852 1
  21280890.850     1267978.452 3    988037.225 2
 91  4  6 21 38  0.0010000  0  6 11 16 06 18 02 19
  23417995.563    -5780986.597 3  -4504632.560 1
  24457655.420    -2375543.299 2  -1851071.822 1
  24802814.584    -1782160.490 2  -1388688.136 1
  21560734.512     6512375.898 4   5074569.924 2
  23031049.549   -10362156.186 3  -8074391.656 2
  21283154.283     1279867.748 4    997301.605 2
 91  4  6 21 38 15.0010000  0  6 11 16 06 18 02 19
  23417247.577    -5784907.570 3  -4507687.793 1
  24455999.080    -2384280.674 2  -1857880.164 1
  24798526.647    -1804694.970 2  -1406247.305
  21568474.871     6553065.151 4   5106275.774 2
  23025640.680   -10390573.240 3  -8096534.706 2
  21285426.999     1291804.484 4   1006602.968 2
 91  4  6 21 38 30.0010000  0  6 11 16 06 18 02 19
  23416529.571    -5788686.086 3  -4510632.051 1
  24454359.493    -2392886.363 2  -1864585.903 1
  24794240.490    -1827216.474 2  -1423796.510 1
  21576237.670     6593862.581 4   5138065.917 3
  23020245.317   -10418919.053 3  -8118622.254 1
  21287708.720     1303786.974 4   1015939.966 2
 91  4  6 21 38 45.0010000  0  6 11 16 06 18 02 19
  23415839.763    -5792322.894 3  -4513465.891 1
  24452751.106    -2401361.404 2  -1871189.826 1
  24789953.460    -1849725.990 2  -1441336.616 1
  21584021.200     6634767.200 4   5169939.575 2
  23014865.240   -10447194.246 3  -8140654.789 1
  21289996.443     1315814.458 3   1025312.033 3
 91  4  6 21 39  0.0010000  0  6 11 16 06 18 02 19
  23415176.620    -5795814.396 3  -4516186.488 1
  24451154.411    -2409702.397 2  -1877689.279 1
  24785676.342    -1872220.232 2  -1458864.555 1
  21591831.080     6675782.142 4   5201899.212 2
  23009498.042   -10475395.588 3  -8162629.755 1
  21292294.358     1327890.301 3   1034721.775 3
 91  4  6 21 39 15.0010000  0  6 11 16 06 18 02 19
  23414540.734    -5799160.613 3  -4518793.876 1
  24449596.979    -2417909.310 2  -1884084.281 1
  24781406.099    -1894699.563 2  -1476380.817 1
  21599652.372     6716907.181 4   5233944.633 3
  23004147.665   -10503523.083 3  -8184547.183 2
  21294601.242     1340014.337 3   1044169.079 2
 91  4  6 21 39 30.0010000  0  6 11 16 06 18 02 19
  23413925.579    -5802364.217 3  -4521290.145 1
  24448060.557    -2425984.722 2  -1890376.803 1
  24777126.538    -1917166.689 2  -1493887.477 1
  21607498.827     6758139.384 4   5266073.561 3
  22998809.539   -10531579.565 3  -8206409.282 2
  21296917.165     1352183.840 4   1053651.816 2
 91  4  6 21 39 45.0010000  0  6 11 16 06 18 02 19
  23413341.590    -5805428.421 3  -4523677.771 2
  24446544.203    -2433932.262 2  -1896569.702 1
  24772845.825    -1939625.216 2  -1511387.506
  21615366.293     6799474.961 4   5298283.042 3
  22993480.452   -10559568.331 3  -8228218.616 2
  21299239.335     1364395.340 3   1063167.273 2
 91  4  6 21 40  0.0010000  0  6 11 16 06 18 02 19
  23412787.267    -5808356.433 3  -4525959.287 1
  24445053.641    -2441755.192 2  -1902665.501 1
  24768571.359    -1962078.711 2  -1528883.596 1
  21623248.452     6840910.455 4   5330570.379 2
  22988169.338   -10587492.677 3  -8249977.744 1
  21301569.637     1376645.552 4   1072712.884 2
 91  4  6 21 40 15.0010000  0  6 11 16 06 18 02 19
  23412256.640    -5811151.255 3  -4528137.022 1
  24443589.742    -2449456.290 2  -1908666.314 1
  24764300.837    -1984530.252 2  -1546378.151 1
  21631153.365     6882442.534 4   5362932.974 2
  22982864.507   -10615355.669 3  -8271689.073 1
  21303906.815     1388931.194 3   1082286.117 2
 91  4  6 21 40 30.0010000  0  6 11 16 06 18 02 19
  23411743.081    -5813817.289 3  -4530214.399 1
  24442147.167    -2457040.193 2  -1914575.841 1
  24760036.283    -2006984.525 2  -1563874.942 1
  21639075.380     6924066.276 4   5395366.995 3
  22977574.055   -10643161.727 3  -8293356.040 2
  21306254.497     1401247.789 4   1091883.463 2
 91  4  6 21 40 45.0010000  0  6 11 16 06 18 02 19
  23411267.318    -5816348.339 3  -4532186.588 1
  24440725.254    -2464501.039 2  -1920389.459 1
  24755760.037    -2029435.696 2  -1581369.260 1
  21647015.683     6965787.706 4   5427877.131 2
  22972290.827   -10670904.613 3  -8314973.791 2
  21308604.274     1413601.387 3   1101509.645 2
 91  4  6 21 41  0.0010000  0  6 11 16 06 18 02 19
  23410807.435    -5818748.151 3  -4534056.540 2
  24439332.691    -2471842.532 2  -1926110.130 1
  24751487.701    -2051887.623 2  -1598864.094 1
  21654970.679     7007602.998 4   5460460.411 2
  22967026.166   -10698588.422 3  -8336545.475 1
  21310961.240     1425988.199 4   1111161.696 2
 91  4  6 21 41 15.0010000  0  6 11 16 06 18 02 19
  23410376.624    -5821021.234 3  -4535827.715 1
  24437954.543    -2479069.183 2  -1931741.293 1
  24747211.176    -2074345.063 2  -1616363.300 1
  21662945.149     7049506.865 4   5493112.715 2
  22961769.602   -10726217.631 3  -8358074.655 2
  21313321.486     1438403.506 3   1120835.953 2
 91  4  6 21 41 30.0010000  0  6 11 16 06 18 02 19
  23409970.104    -5823163.118 3  -4537496.657 1
  24436604.001    -2486176.610 2  -1937279.476 1
  24742933.115    -2096803.883 2  -1633863.512 1
  21670939.408     7091503.470 4   5525837.281 2
  22956518.448   -10753788.004 3  -8379557.957 1
  21315688.364     1450851.664 4   1130535.824 2
 91  4  6 21 41 45.0010000  0  6 11 16 06 18 02 19
  23409586.094    -5825158.648 3  -4539051.572 1
  24435279.215    -2493149.786 2  -1942713.154 1
  24738661.372    -2119249.030 2  -1651353.093 1
  21678949.861     7133607.822 4   5558645.803 2
  22951290.956   -10781284.276 3  -8400983.523 2
  21318070.214     1463347.698 3   1140272.994 2
 91  4  6 21 42  0.0010000  0  6 11 16 06 18 02 19
  23409232.622    -5827005.137 3  -4540490.338 1
  24433979.593    -2499986.258 2  -1948040.229 1
  24734401.320    -2141678.207 2  -1668830.246 1
  21686981.917     7175822.329 4   5591540.162 2
  22946074.248   -10808703.998 3  -8422349.453 1
  21320459.847     1475894.102 4   1150049.405 2
 91  4  6 21 42 15.0010000  0  6 11 16 06 18 02 19
  23408917.541    -5828692.284 3  -4541804.923 1
  24432697.107    -2506675.964 2  -1953253.011 1
  24730129.891    -2164081.415 2  -1686287.190 1
  21695039.136     7218156.797 4   5624527.984 2
  22940869.581   -10836037.193 3  -8443647.944 1
  21322853.388     1488501.001 3   1159872.957 2
 91  4  6 21 42 30.0010000  0  6 11 16 06 18 02 19
  23408627.030    -5830217.267 3  -4542993.176 1
  24431459.851    -2513216.070 2  -1958349.198 1
  24725880.937    -2186456.041 2  -1703721.868 1
  21703120.332     7260613.687 4   5657611.210 2
  22935685.854   -10863281.029 3  -8464876.823 1
  21325265.811     1501170.932 4   1169745.640 2
 91  4  6 21 42 45.0010000  0  6 11 16 06 18 02 19
  23408371.035    -5831579.455 3  -4544054.573 1
  24430240.605    -2519605.903 2  -1963328.232 1
  24721627.481    -2208801.600 2  -1721133.839 1
  21711221.944     7303193.419 4   5690790.150 2
  22930516.227   -10890434.761 3  -8486035.476 2
  21327690.554     1513904.422 3   1179667.834 2
 91  4  6 21 43  0.0010000  0  6 11 16 06 18 02 19
  23408137.796    -5832780.315 3  -4544990.259 1
  24429059.120    -2525847.147 2  -1968191.563 1
  24717383.309    -2231119.759 2  -1738524.505 1
  21719346.905     7345894.034 4   5724063.290 2
  22925368.204   -10917500.072 3  -8507125.238 1
  21330128.175     1526700.134 3   1189638.518 2
 91  4  6 21 43 15.0010000  0  6 11 16 06 18 02 19
  23407940.818    -5833815.007 3  -4545796.458 1
  24427900.705    -2531934.979 2  -1972935.338 1
  24713140.638    -2253405.914 2  -1755890.218 1
  21727498.251     7388720.172 4   5757434.233 2
  22920234.245   -10944472.141 3  -8528142.338 2
  21332570.856     1539562.913 3   1199661.456 2
 91  4  6 21 43 30.0010000  0  6 11 16 06 18 02 19
  23407777.449    -5834685.851 3  -4546474.978 1
  24426762.706    -2537871.842 2  -1977561.480 1
  24708898.874    -2275662.644 2  -1773232.996 1
  21735670.921     7431669.241 4   5790900.974 2
  22915119.481   -10971353.313 3  -8549088.597 2
  21335031.861     1552490.062 4   1209734.559 2
 91  4  6 21 43 45.0010000  0  6 11 16 06 18 02 19
  23407640.744    -5835395.000 3  -4547027.514 1
  24425665.472    -2543659.821 2  -1982071.559 1
  24704667.615    -2297892.238 2  -1790554.604 1
  21743866.625     7474739.113 4   5824461.840 2
  22910024.820   -10998145.717 3  -8569965.715 2
  21337504.556     1565479.530 3   1219856.228 2
 91  4  6 21 44  0.0010000  0  6 11 16 06 18 02 19
  23407540.894    -5835937.867 3  -4547450.461 1
  24424590.119    -2549294.414 2  -1986462.171 1
  24700448.641    -2320090.331 2  -1807851.663 1
  21752086.341     7517933.542 4   5858119.769 2
  22904940.944   -11024844.971 3  -8590770.225 2
  21339990.130     1578535.690 3   1230029.848 2
 91  4  6 21 44 15.0010000  0  6 11 16 06 18 02 19
  23407468.964    -5836312.504 3  -4547742.346 1
  24423550.121    -2554774.038 2  -1990732.010 1
  24696226.665    -2342255.359 2  -1825122.959 1
  21760330.626     7561254.298 4   5891876.135 2
  22899880.136   -11051449.317 3  -8611500.788 2
  21342487.117     1591660.125 3   1240256.676 2
 91  4  6 21 44 30.0010000  0  6 11 16 06 18 02 19
  23407426.979    -5836529.026 3  -4547911.015 1
  24422533.821    -2560108.839 2  -1994889.001 1
  24692017.882    -2364397.713 2  -1842376.654 1
  21768595.608     7604690.677 4   5925722.590 2
  22894831.649   -11077968.941 3  -8632165.326 2
  21344999.355     1604842.602 3   1250528.728 2
 91  4  6 21 44 45.0010000  0  6 11 16 06 18 02 19
  23407418.288    -5836581.549 3  -4547951.904 2
  24421547.220    -2565292.932 2  -1998928.531 1
  24687806.970    -2386511.653 2  -1859608.129 1
  21776882.786     7648248.397 4   5959663.597 2
  22889803.508   -11104397.998 3  -8652759.316 2
  21347514.909     1618089.015 3   1260850.608 2
 91  4  6 21 45  0.0010000  0  6 11 16 06 18 02 19
  23407435.355    -5836468.868 3  -4547864.030 2
  24420591.472    -2570325.345 2  -2002849.877 1
  24683606.284    -2408596.191 2  -1876816.748 1
  21785196.314     7691928.188 4   5993699.727 2
  22884791.003   -11130735.521 3  -8673281.961 2
  21350050.879     1631400.544 3   1271223.231 2
 91  4  6 21 45 15.0010000  0  6 11 16 06 18 02 19
  23407489.032    -5836185.738 3  -4547643.365 1
  24419656.733    -2575200.955 2  -2006649.071 1
  24679413.380    -2430646.179 2  -1893998.416 1
  21793533.260     7735735.127 4   6027834.930 2
  22879796.751   -11156976.029 3  -8693729.030 2
  21352595.505     1644782.486 3   1281650.701 2
 91  4  6 21 45 30.0010000  0  6 11 16 06 18 02 19
  23407575.061    -5835742.720 3  -4547298.095 1
  24418767.540    -2579930.342 2  -2010334.353 1
  24675218.104    -2452672.494 2  -1911161.659 1
  21801892.368     7779658.582 4   6062060.916 2
  22874822.880   -11183130.229 3  -8714108.814 2
  21355153.951     1658223.832 4   1292124.474 2
 91  4  6 21 45 45.0010000  0  6 11 16 06 18 02 19
  23407690.198    -5835142.949 3  -4546830.703 2
  24417889.759    -2584516.644 2  -2013908.075 1
  24671028.202    -2474678.448 2  -1928308.957 1
  21810271.579     7823694.622 4   6096374.643 2
  22869857.735   -11209201.492 3  -8734423.985 1
  21357724.368     1671721.488 3   1302642.131 2
 91  4  6 21 46  0.0010000  0  6 11 16 06 18 02 19
  23407833.185    -5834386.230 3  -4546241.001 2
  24417039.829    -2588959.886 2  -2017370.330 1
  24666848.212    -2496664.090 2  -1945440.472 1
  21818672.044     7867843.451 4   6130776.253 2
  22864913.250   -11235189.596 3  -8754674.362 2
  21360300.788     1685275.489 4   1313203.689 2
 91  4  6 21 46 15.0010000  0  6 11 16 06 18 02 19
  23408009.188    -5833470.512 3  -4545527.425 1
  24416229.196    -2593258.197 2  -2020719.701 1
  24662666.406    -2518627.406 2  -1962554.704 1
  21827094.427     7912106.901 4   6165267.181 2
  22859987.054   -11261092.443 3  -8774858.308 2
  21362891.587     1698887.989 3   1323810.819 2
 91  4  6 21 46 30.0010000  0  6 11 16 06 18 02 19
  23408210.319    -5832403.586 3  -4544696.007 2
  24415435.944    -2597419.028 2  -2023961.900 1
  24658488.475    -2540576.455 2  -1979657.711 1
  21835536.284     7956476.719 4   6199840.996 2
  22855067.454   -11286917.893 3  -8794981.948 2
  21365491.983     1712550.906 3   1334457.250 2
 91  4  6 21 46 45.0010000  0  6 11 16 06 18 02 19
  23408445.373    -5831180.006 3  -4543742.518 1
  24414671.171    -2601437.243 2  -2027092.974 1
  24654313.266    -2562506.105 2  -1996745.642 1
  21844002.117     8000957.992 4   6234501.652 2
  22850171.272   -11312660.660 3  -8815041.155 2
  21368101.070     1726269.600 3   1345147.134 2
 91  4  6 21 47  0.0010000  0  6 11 16 06 18 02 19
  23408703.776    -5829805.731 3  -4542671.625 1
  24413930.689    -2605319.034 2  -2030117.748 1
  24650149.156    -2584422.619 2  -2013823.280 1
  21852489.519     8045544.581 4   6269244.375 2
  22845289.119   -11338326.785 3  -8835040.616 2
  21370724.257     1740037.923 3   1355875.695 2
 91  4  6 21 47 15.0010000  0  6 11 16 06 18 02 19
  23408994.287    -5828289.909 3  -4541490.392 1
  24413213.869    -2609073.616 2  -2033043.406 1
  24645973.040    -2606335.223 2  -2030897.892 1
  21860990.462     8090226.828 4   6304061.643 2
  22840412.098   -11363925.517 3  -8854987.603 1
  21373351.631     1753846.668 3   1366635.741 2
 91  4  6 21 47 30.0010000  0  6 11 16 06 18 02 19
  23409311.183    -5826626.351 3  -4540194.094 1
  24412525.562    -2612695.062 2  -2035865.325 1
  24641807.742    -2628237.925 2  -2047964.738 1
  21869512.939     8135010.653 4   6338958.058 2
  22835558.180   -11389450.814 3  -8874877.346 2
  21375988.603     1767702.024 4   1377432.119 2
 91  4  6 21 47 45.0010000  0  6 11 16 06 18 02 19
  23409652.928    -5824812.205 3  -4538780.442 2
  24411866.607    -2616180.263 2  -2038581.091 1
  24637639.130    -2650128.074 2  -2065021.921 1
  21878053.146     8179898.527 4   6373935.544 2
  22830714.418   -11414899.790 3  -8894707.626 2
  21378633.673     1781606.711 3   1388266.934 2
 91  4  6 21 48  0.0010000  0  6 11 16 06 18 02 19
  23410028.562    -5822849.358 3  -4537250.925 2
  24411227.475    -2619531.303 2  -2041192.250 1
  24633476.799    -2672007.743 2  -2082070.813 1
  21886616.700     8224888.416 4   6408992.515 2
  22825884.757   -11440274.431 3  -8914479.980 2
  21381291.655     1795558.784 3   1399138.679 2
 91  4  6 21 48 15.0010000  0  6 11 16 06 18 02 19
  23410430.894    -5820731.360 3  -4535600.482 1
  24410614.973    -2622741.716 2  -2043693.909 1
  24629327.067    -2693870.660 2  -2099106.748 1
  21895194.983     8269986.264 4   6444133.625 2
  22821073.383   -11465568.198 3  -8934189.320 2
  21383951.382     1809564.614 3   1410052.309 2
 91  4  6 21 48 30.0010000  0  6 11 16 06 18 02 19
  23410863.206    -5818459.565 3  -4533830.226 1
  24410036.079    -2625813.143 2  -2046087.273 1
  24625157.547    -2715718.419 2  -2116130.843 1
  21903797.208     8315190.416 4   6479357.556 2
  22816274.922   -11490782.632 3  -8953836.838 2
  21386626.431     1823622.768 3   1421006.703 2
 91  4  6 21 48 45.0010000  0  6 11 16 06 18 02 19
  23411323.961    -5816027.549 3  -4531935.115 2
  24409474.880    -2628739.331 2  -2048367.394 1
  24621007.816    -2737544.729 2  -2133138.257 1
  21912422.536     8360507.038 4   6514669.131 2
  22811495.342   -11515911.340 3  -8973417.572 2
  21389315.893     1837739.332 3   1432006.628 2
 91  4  6 21 49  0.0010000  0  6 11 16 06 18 02 19
  23411816.546    -5813443.530 3  -4529921.559 1
  24408945.441    -2631528.527 2  -2050540.832 1
  24616859.899    -2759358.047 2  -2150135.462 1
  21921065.245     8405927.770 4   6550061.825 2
  22806726.232   -11540962.655 3  -8992937.977 2
  21392011.917     1851906.280 3   1443045.801 2
 91  4  6 21 49 15.0010000  0  6 11 16 06 18 02 19
  23412338.761    -5810708.174 3  -4527790.076 1
  24408439.384    -2634181.425 2  -2052608.023 1
  24612706.887    -2781159.186 2  -2167123.246 1
  21929726.870     8451451.541 4   6585534.810 2
  22801974.224   -11565937.204 3  -9012398.573 2
  21394717.259     1866122.785 3   1454123.601 2
 91  4  6 21 49 30.0010000  0  6 11 16 06 18 02 19
  23412885.581    -5807820.197 3  -4525539.663 1
  24407961.807    -2636696.927 2  -2054568.171 1
  24608560.436    -2802947.137 2  -2184100.784 1
  21938409.749     8497079.119 4   6621088.690 2
  22797232.092   -11590834.020 3  -9031798.597 2
  21397430.663     1880390.023 4   1465240.917 3
 91  4  6 21 49 45.0010000  0  6 11 16 06 18 02 19
  23413465.382    -5804782.130 3  -4523172.309 1
  24407506.147    -2639077.550 2  -2056423.220 1
  24604420.616    -2824724.523 2  -2201070.006 1
  21947112.138     8542807.970 4   6656721.478 2
  22792515.159   -11615655.447 3  -9051139.893 2
  21400153.386     1894705.576 3   1476395.895 2
 91  4  6 21 50  0.0010000  0  6 11 16 06 18 02 19
  23414071.289    -5801601.381 3  -4520693.789 1
  24407079.524    -2641330.838 2  -2058179.053 1
  24600274.200    -2846498.978 2  -2218036.962 1
  21955833.408     8588630.319 4   6692427.122 2
  22787804.822   -11640409.041 3  -9070428.303 2
  21402888.673     1909061.916 3   1487582.650 2
 91  4  6 21 50 15.0010000  0  6 11 16 06 18 02 19
  23414704.452    -5798269.265 3  -4518097.299 1
  24406671.817    -2643448.308 2  -2059828.998 1
  24596134.659    -2868261.936 2  -2234995.056 1
  21964571.430     8634554.368 4   6728212.016 2
  22783104.082   -11665086.078 3  -9089657.093 2
  21405628.496     1923467.488 3   1498807.770 2
 91  4  6 21 50 30.0010000  0  6 11 16 06 18 02 19
  23415364.594    -5794790.077 3  -4515386.209 1
  24406300.372    -2645434.177 2  -2061376.519 1
  24591996.619    -2890017.924 2  -2251947.576 1
  21973331.090     8680575.604 4   6764072.642 2
  22778421.316   -11689690.884 3  -9108829.568 2
  21408378.476     1937918.014 4   1510067.904 2
 91  4  6 21 50 45.0010000  0  6 11 16 06 18 02 19
  23416056.495    -5791158.606 3  -4512556.467 2
  24405950.216    -2647283.215 2  -2062817.303 1
  24587851.390    -2911761.900 2  -2268890.816 1
  21982108.096     8726698.786 4   6800012.707 2
  22773755.965   -11714218.396 3  -9127941.833 2
  21411137.181     1952418.650 3   1521367.103 2
 91  4  6 21 51  0.0010000  0  6 11 16 06 18 02 19
  23416777.503    -5787386.197 3  -4509616.916 1
  24405616.253    -2649007.007 2  -2064160.572 1
  24583713.943    -2933505.382 2  -2285833.651 1
  21990900.702     8772912.357 4   6836023.202 2
  22769100.771   -11738680.014 3  -9147002.753 2
  21413904.262     1966957.899 4   1532696.396 2
 91  4  6 21 51 15.0010000  0  6 11 16 06 18 02 19
  23417521.581    -5783469.107 3  -4506564.602 1
  24405308.641    -2650601.840 2  -2065403.272 1
  24579581.906    -2955244.671 2  -2302773.231 1
  21999712.225     8819220.139 4   6872107.112 2
  22764459.676   -11763071.943 3  -9166009.358 2
  21416680.627     1981539.586 3   1544058.754 2
 91  4  6 21 51 30.0010000  0  6 11 16 06 18 02 19
  23418296.545    -5779401.826 3  -4503395.260 2
  24405029.856    -2652062.423 2  -2066541.415 1
  24575445.367    -2976974.602 2  -2319705.497 1
  22008542.907     8865626.976 4   6908268.201 2
  22759833.588   -11787388.916 3  -9184957.569 2
  21419465.716     1996169.022 3   1555458.305 3
 91  4  6 21 51 45.0010000  0  6 11 16 06 18 02 19
  23419096.707    -5775190.053 3  -4500113.338 1
  24404779.515    -2653394.538 2  -2067579.453 1
  24571306.455    -2998700.950 2  -2336634.998 1
  22017391.285     8912126.725 4   6944501.687 2
  22755220.100   -11811636.541 3  -9203851.747 2
  21422254.680     2010840.587 3   1566890.695 2
 91  4  6 21 52  0.0010000  0  6 11 16 06 18 02 19
  23419926.814    -5770827.889 3  -4496714.202 1
  24404557.967    -2654592.091 2  -2068512.635 1
  24567173.789    -3020417.978 2  -2353557.220 1
  22026262.138     8958725.398 4   6980812.257 2
  22750616.488   -11835809.004 3  -9222687.340 2
  21425054.742     2025560.150 3   1578360.483 2
 91  4  6 21 52 15.0010000  0  6 11 16 06 18 02 19
  23420782.433    -5766322.451 3  -4493203.446 1
  24404353.206    -2655662.989 2  -2069347.094 1
  24563045.661    -3042133.014 2  -2370477.899 1
  22035146.776     9005415.276 4   7017193.894 2
  22746030.257   -11859913.579 3  -9241470.051 2
  21427862.307     2040320.413 3   1589861.995 2
 91  4  6 21 52 30.0010000  0  6 11 16 06 18 02 19
  23421672.813    -5761670.233 3  -4489578.303 1
  24404173.644    -2656603.133 2  -2070079.762 1
  24558904.934    -3063842.706 2  -2387394.429 1
  22044049.424     9052199.532 4   7053649.080 2
  22741457.218   -11883946.592 3  -9260196.986 2
  21430679.156     2055124.686 3   1601397.792 2
 91  4  6 21 52 45.0010000  0  6 11 16 06 18 02 19
  23422582.667    -5756875.527 3  -4485842.141 1
  24404015.649    -2657416.978 2  -2070713.943 1
  24554777.992    -3085551.392 2  -2404310.177 1
  22052968.265     9099073.743 4   7090174.353 2
  22736895.870   -11907912.498 3  -9278871.642 2
  21433505.882     2069968.812 3   1612964.647 2
 91  4  6 21 53  0.0010000  0  6 11 16 06 18 02 19
  23423524.944    -5751939.916 3  -4481996.183 2
  24403899.047    -2658106.267 2  -2071251.090 1
  24550646.828    -3107261.044 2  -2421226.660 1
  22061904.452     9146035.863 4   7126768.124 2
  22732351.624   -11931812.938 3  -9297495.286 2
  21436339.833     2084851.101 3   1624561.233 2
 91  4  6 21 53 15.0010000  0  6 11 16 06 18 02 19
  23424488.161    -5746870.802 3  -4478046.171 1
  24403779.408    -2658678.888 2  -2071697.266 1
  24546522.608    -3128979.081 2  -2438149.637 1
  22070855.052     9193078.213 4   7163424.414 2
  22727814.254   -11955655.373 3  -9316073.718 2
  21439174.655     2099764.076 3   1636181.732 2
 91  4  6 21 53 30.0010000  0  6 11 16 06 18 02 19
  23425477.484    -5741667.322 3  -4473991.509 1
  24403690.971    -2659133.544 2  -2072051.587 1
  24542380.660    -3150704.851 2  -2455078.659 1
  22079826.942     9240201.633 4   7200143.868 2
  22723285.887   -11979438.998 3  -9334606.342 2
  21442016.702     2114708.521 3   1647826.751 2
 91  4  6 21 53 45.0010000  0  6 11 16 06 18 02 19
  23426488.968    -5736330.049 3  -4469832.559 1
  24403628.010    -2659471.201 2  -2072314.708 1
  24538244.120    -3172439.043 2  -2472014.295 1
  22088806.650     9287404.988 4   7236925.623 2
  22718768.933   -12003164.322 3  -9353093.532 2
  21444867.126     2129683.873 3   1659495.850 3
 91  4  6 21 54  0.0010000  0  6 11 16 06 18 02 19
  23427530.153    -5730868.724 3  -4465576.934 2
  24403584.245    -2659701.354 2  -2072494.064 1
  24534105.801    -3194191.464 2  -2488964.078 1
  22097800.701     9334678.438 4   7273761.986 2
  22714264.858   -12026840.998 3  -9371542.817 2
  21447723.552     2144680.593 3   1671181.614 2
 91  4  6 21 54 15.0010000  0  6 11 16 06 18 02 19
  23428593.813    -5725280.590 3  -4461222.516 1
  24403560.269    -2659821.537 2  -2072587.778 1
  24529965.667    -3215959.529 2  -2505926.133 1
  22106813.355     9382024.319 4   7310654.797 2
  22709769.158   -12050466.405 3  -9389952.138 2
  21450583.573     2159701.333 3   1682886.085 2
 91  4  6 21 54 30.0010000  0  6 11 16 06 18 02 19
  23429678.763    -5719563.779 3  -4456767.832 1
  24403557.267    -2659829.957 2  -2072594.335 1
  24525822.811    -3237741.569 2  -2522898.969 1
  22115834.419     9429444.132 4   7347605.221 2
  22705286.372   -12074038.785 3  -9408320.153 2
  21453447.782     2174747.799 3   1694610.607 2
 91  4  6 21 54 45.0010000  0  6 11 16 06 18 02 19
  23430796.694    -5713706.299 3  -4452203.537 1
  24403583.059    -2659714.782 2  -2072504.612 1
  24521674.615    -3259525.711 2  -2539873.490 1
  22124877.367     9476949.572 4   7384622.356 2
  22700809.867   -12097546.175 3  -9426637.525 2
  21456312.305     2189831.885 3   1706364.435 2
 91  4  6 21 55  0.0010000  0  6 11 16 06 18 02 19
  23431935.600    -5707703.233 3  -4447525.810 2
  24403626.510    -2659471.281 2  -2072314.927 1
  24517525.163    -3281307.312 2  -2556846.032 1
  22133933.506     9524545.465 4   7421709.981 2
  22696351.057   -12120983.697 3  -9444900.453 2
  21459194.208     2204958.437 3   1718151.354 2
 91  4  6 21 55 15.0010000  0  6 11 16 06 18 02 19
  23433110.802    -5701547.588 3  -4442729.177 1
  24403699.068    -2659092.301 2  -2072019.584 1
  24513384.435    -3303079.354 2  -2573811.104 1
  22143007.619     9572238.407 4   7458873.222 2
  22691903.939   -12144344.417 3  -9463103.545 2
  21462083.301     2220134.391 3   1729976.779 2
 91  4  6 21 55 30.0010000  0  6 11 16 06 18 02 19
  23434313.262    -5695222.729 3  -4437800.678 1
  24403799.197    -2658561.452 2  -2071605.984 1
  24509245.209    -3324825.491 2  -2590756.011 1
  22152108.117     9620044.684 4   7496124.776 2
  22687475.074   -12167611.662 3  -9481233.787 1
  21464987.995     2235376.388 3   1741853.658 2
 91  4  6 21 55 45.0010000  0  6 11 16 06 18 02 19
  23435549.296    -5688741.702 3  -4432750.486 1
  24403925.118    -2657891.757 2  -2071084.177 1
  24505111.671    -3346558.835 2  -2607690.928 1
  22161221.494     9667950.779 4   7533454.113 2
  22683065.439   -12190798.643 3  -9499301.479 2
  21467892.095     2250671.322 3   1753771.781 2
 91  4  6 21 56  0.0010000  0  6 11 16 06 18 02 19
  23436809.027    -5682107.578 3  -4427581.014 1
  24404083.705    -2657086.275 2  -2070456.600 1
  24500979.634    -3368282.621 2  -2624618.423 1
  22170360.068     9715953.674 4   7570858.870 2
  22678666.902   -12213908.317 3  -9517308.957 2
  21470811.760     2266016.032 3   1765728.691 3
 91  4  6 21 56 15.0010000  0  6 11 16 06 18 02 19
  23438103.554    -5675314.614 3  -4422287.771 1
  24404258.766    -2656139.537 2  -2069718.853 1
  24496850.598    -3389991.188 2  -2641534.062 1
  22179511.241     9764058.763 4   7608343.272 2
  22674283.617   -12236934.979 3  -9535251.737 2
  21473743.432     2281416.383 3   1777728.968 2
 91  4  6 21 56 30.0010000  0  6 11 16 06 18 02 19
  23439423.523    -5668367.026 3  -4416874.044 1
  24404469.250    -2655055.964 2  -2068874.524 1
  24492720.341    -3411688.799 2  -2658441.122 1
  22188683.390     9812261.621 4   7645903.851 2
  22669916.839   -12259882.933 3  -9553133.174 2
  21476687.388     2296868.091 3   1789769.250 2
 91  4  6 21 56 45.0010000  0  6 11 16 06 18 02 19
  23440782.197    -5661260.647 3  -4411336.570 1
  24404704.584    -2653831.183 2  -2067920.211 1
  24488593.714    -3433371.442 2  -2675336.569 1
  22197875.048     9860566.025 4   7683543.558 2
  22665565.662   -12282748.141 3  -9570950.143 2
  21479634.660     2312375.375 3   1801852.851 2
 91  4  6 21 57  0.0010000  0  6 11 16 06 18 02 19
  23442155.844    -5653999.660 3  -4405678.644 1
  24404955.518    -2652469.600 2  -2066859.220 1
  24484468.552    -3455043.477 2  -2692223.735 1
  22207086.145     9908967.539 4   7721258.931 2
  22661230.644   -12305534.503 3  -9588705.666 2
  21482597.812     2327934.143 3   1813976.560 2
 91  4  6 21 57 15.0010000  0  6 11 16 06 18 02 19
  23443564.844    -5646598.155 3  -4399911.226 1
  24405237.304    -2650985.400 2  -2065702.752 1
  24480347.893    -3476719.132 2  -2709113.738 1
  22216315.251     9957451.711 4   7759038.727 2
  22656905.259   -12328256.329 3  -9606410.909 2
  21485562.464     2343530.186 3   1826129.321 2
 91  4  6 21 57 30.0010000  0  6 11 16 06 18 02 19
  23445000.264    -5639054.781 3  -4394033.239 2
  24405542.509    -2649377.260 2  -2064449.669 1
  24476214.076    -3498397.069 2  -2726005.457 1
  22225556.677    10006019.655 4   7796883.793 2
  22652596.626   -12350912.289 3  -9624064.831 2
  21488539.088     2359164.979 3   1838312.264 2
 91  4  6 21 57 45.0010000  0  6 11 16 06 18 02 19
  23446465.663    -5631368.637 3  -4388044.013 1
  24405875.563    -2647644.530 2  -2063099.475 1
  24472085.633    -3520076.577 2  -2742898.480 1
  22234816.356    10054672.136 4   7834794.727 2
  22648297.311   -12373501.379 3  -9641666.629 2
  21491517.840     2374839.278 3   1850526.005 3
 91  4  6 21 58  0.0020000  0  6 11 16 06 18 02 19
  23447953.804    -5623543.297 3  -4381946.314 1
  24406231.429    -2645790.999 2  -2061655.256 1
  24467966.774    -3541763.387 2  -2759797.141 1
  22244085.653    10103407.733 3   7872770.426 2
  22644008.766   -12396029.332 3  -9659220.799 2
  21494510.643     2390550.090 3   1862768.183 2
 91  4  6 21 58 15.0020000  0  6 11 16 06 18 02 19
  23449466.563    -5615588.865 3  -4375748.030 1
  24406598.965    -2643826.176 2  -2060124.203 1
  24463831.143    -3563463.665 2  -2776706.310 1
  22253374.404    10152210.498 4   7910798.460 2
  22639735.243   -12418502.129 3  -9676731.997 2
  21497503.774     2406286.154 3   1875030.051 2
 91  4  6 21 58 30.0020000  0  6 11 16 06 18 02 19
  23451006.615    -5607490.448 3  -4369437.561 1
  24407002.484    -2641735.578 2  -2058495.213 1
  24459699.420    -3585164.667 2  -2793616.075 1
  22262677.569    10201098.280 3   7948892.740 2
  22635471.282   -12440906.984 3  -9694190.244 2
  21500503.501     2422063.040 3   1887323.720 2
 91  4  6 21 58 45.0020000  0  6 11 16 06 18 02 19
  23452580.205    -5599244.635 3  -4363012.232 1
  24407418.602    -2639515.829 2  -2056765.530 1
  24455583.262    -3606862.935 2  -2810523.655 1
  22272000.208    10250074.255 3   7987055.735 2
  22631219.641   -12463240.589 3  -9711592.963 2
  21503515.513     2437884.063 3   1899651.783 2
 91  4  6 21 59  0.0020000  0  6 11 16 06 18 02 19
  23454174.213    -5590842.865 3  -4356465.375 1
  24407872.168    -2637158.641 2  -2054928.794 1
  24451447.316    -3628550.255 2  -2827422.743 1
  22281335.760    10299146.261 3   8025293.560 2
  22626984.473   -12485494.337 3  -9728933.469 2
  21506539.531     2453757.711 3   1912020.854 3
 91  4  6 21 59 15.0020000  0  6 11 16 06 18 02 19
  23455806.576    -5582279.685 3  -4349792.731 1
  24408349.746    -2634658.602 2  -2052980.759 1
  24447320.689    -3650221.192 2  -2844309.052 1
  22290691.974    10348319.763 3   8063610.493 2
  22622768.780   -12507662.887 3  -9746207.581 2
  21509570.146     2469689.431 3   1924435.177 2
 91  4  6 21 59 30.0020000  0  6 11 16 06 18 02 19
  23457461.729    -5573559.885 3  -4342998.061 2
  24408852.207    -2632020.542 2  -2050925.127 1
  24443199.436    -3671880.664 2  -2861186.431 1
  22300070.977    10397589.501 3   8102002.407 2
  22618562.998   -12529750.882 3  -9763418.923 2
  21512616.325     2485674.380 3   1936890.973 2
 91  4  6 21 59 45.0020000  0  6 11 16 06 18 02 19
  23459153.772    -5564678.262 3  -4336077.276 1
  24409382.834    -2629239.671 2  -2048758.244 1
  24439082.092    -3693523.680 2  -2878051.029 1
  22309464.988    10446960.538 3   8140473.245 2
  22614380.286   -12551753.257 3  -9780563.561 2
  21515664.599     2501717.638 3   1949392.204 3
 91  4  6 22  0  0.0020000  0  6 11 16 06 18 02 19
  23460876.074    -5555632.104 3  -4329028.325 1
  24409940.752    -2626312.992 2  -2046477.729 1
  24434973.124    -3715147.411 2  -2894900.524 1
  22318879.345    10496435.313 3   8179024.923 2
  22610205.984   -12573667.117 3  -9797639.215 2
  21518730.288     2517822.123 3   1961941.140 3
 91  4  6 22  0 15.0020000  0  6 11 16 06 18 02 19
  23462629.856    -5546419.617 3  -4321849.715 1
  24410525.055    -2623238.722 2  -2044082.196 1
  24430859.968    -3736750.197 2  -2911733.780 1
  22328314.434    10546015.178 3   8217658.500 2
  22606052.972   -12595490.681 3  -9814644.492 2
  21521807.355     2533989.714 3   1974539.254 2
 91  4  6 22  0 30.0020000  0  6 11 16 06 18 02 19
  23464413.931    -5537046.650 3  -4314546.083 1
  24411130.927    -2620023.043 2  -2041576.464 1
  24426753.723    -3758338.001 2  -2928555.262 1
  22337767.775    10595694.433 4   8256369.504 2
  22601914.025   -12617229.964 3  -9831584.114 2
  21524897.021     2550214.611 3   1987182.021 2
 91  4  6 22  0 45.0020000  0  6 11 16 06 18 02 19
  23466228.579    -5527515.822 3  -4307119.435 1
  24411770.372    -2616668.568 2  -2038962.666 1
  24422649.850    -3779913.532 2  -2945367.280 1
  22347238.532    10645469.966 4   8295155.543 2
  22597794.587   -12638887.582 3  -9848460.097 2
  21527990.281     2566494.220 3   1999867.419 3
 91  4  6 22  1  0.0020000  0  6 11 16 06 18 02 19
  23468072.579    -5517823.041 3  -4299566.590 1
  24412438.611    -2613171.285 2  -2036237.510 1
  24418548.979    -3801472.860 2  -2962166.641 1
  22356731.171    10695345.403 4   8334019.427 2
  22593689.528   -12660459.441 3  -9865269.252 2
  21531100.643     2582832.320 3   2012598.399 2
 91  4  6 22  1 15.0020000  0  6 11 16 06 18 02 19
  23469950.187    -5507961.216 3  -4291882.019 2
  24413132.641    -2609523.941 2  -2033395.455 1
  24414453.832    -3823008.843 2  -2978947.769 1
  22366242.971    10745327.712 4   8372966.591 2
  22589603.350   -12681938.238 3  -9882005.903 2
  21534218.473     2599236.290 3   2025380.704 2
 91  4  6 22  1 30.0020000  0  6 11 16 06 18 02 19
  23471856.274    -5497938.102 3  -4284071.769 1
  24413852.742    -2605734.729 2  -2030442.845 1
  24410350.867    -3844529.369 2  -2995716.853 1
  22375769.777    10795408.974 4   8411990.853 2
  22585532.144   -12703331.861 3  -9898676.169 2
  21537360.280     2615698.325 3   2038208.264 2
 91  4  6 22  1 45.0020000  0  6 11 16 06 18 02 19
  23473797.122    -5487742.897 3  -4276127.425 1
  24414599.541    -2601792.612 2  -2027371.081 1
  24406260.187    -3866023.685 2  -3012465.572 1
  22385325.656    10845599.712 4   8451100.419 2
  22581478.668   -12724629.563 3  -9915271.699 2
  21540500.622     2632229.361 3   2051089.589 3
 91  4  6 22  2  0.0020000  0  6 11 16 06 18 02 19
  23475771.266    -5477372.067 3  -4268046.246 1
  24415384.382    -2597694.216 2  -2024177.523 1
  24402175.231    -3887488.481 2  -3029191.278 1
  22394896.542    10895903.356 4   8490297.963 2
  22577443.759   -12745827.792 3  -9931789.702 2
  21543659.251     2648832.930 3   2064027.421 3
 91  4  6 22  2 15.0020000  0  6 11 16 06 18 02 19
  23477774.760    -5466827.234 3  -4259829.451 2
  24416194.736    -2593441.275 2  -2020863.596 1
  24398092.647    -3908925.367 2  -3045895.208 1
  22404490.777    10946317.661 4   8529581.739 2
  22573431.640   -12766928.088 3  -9948231.422 2
  21546830.444     2665507.387 3   2077020.495 2
 91  4  6 22  2 30.0020000  0  6 11 16 06 18 02 19
  23479815.772    -5456114.542 3  -4251481.858 1
  24417031.124    -2589039.992 2  -2017434.029 1
  24394014.881    -3930340.646 2  -3062582.278 1
  22414100.053    10996836.426 4   8568946.917 2
  22569426.710   -12787936.718 3  -9964601.692 2
  21550020.518     2682246.491 3   2090063.942 2
 91  4  6 22  2 45.0020000  0  6 11 16 06 18 02 19
  23481884.042    -5445232.617 3  -4243002.405 2
  24417893.654    -2584488.929 2  -2013887.749
  24389952.086    -3951732.862 2  -3079251.456 1
  22423736.273    11047460.808 4   8608394.395 2
  22565450.573   -12808852.268 3  -9980899.463 2
  21553216.002     2699051.653 3   2103158.881 2
 91  4  6 22  3  0.0020000  0  6 11 16 06 18 02 19
  23483987.666    -5434188.406 3  -4234396.513 1
  24418783.126    -2579795.340 2  -2010230.473 1
  24385884.789    -3973109.158 2  -3095908.130 1
  22433390.780    11098183.414 4   8647918.389 2
  22561487.315   -12829681.785 3  -9997130.164 2
  21556425.306     2715916.075 3   2116299.977 3
 91  4  6 22  3 15.0020000  0  6 11 16 06 18 02 19
  23486120.082    -5422979.851 3  -4225662.537 2
  24419710.396    -2574957.488 2  -2006460.725 1
  24381819.307    -3994467.597 2  -3112550.927 1
  22443058.794    11149006.218 4   8687520.475 2
  22557540.843   -12850423.078 3 -10013292.133 2
  21559647.175     2732841.841 3   2129488.882 3
 91  4  6 22  3 30.0020000  0  6 11 16 06 18 02 19
  23488281.606    -5411614.466 3  -4216806.357 2
  24420663.422    -2569982.892 2  -2002584.427 1
  24377758.328    -4015815.706 2  -3129185.718 1
  22452750.471    11199921.329 4   8727194.492 2
  22553606.657   -12871083.718 3 -10029391.262 2
  21562876.233     2749821.276 3   2142719.606 2
 91  4  6 22  3 45.0020000  0  6 11 16 06 18 02 19
  23490469.793    -5400102.514 3  -4207835.968 2
  24421629.362    -2564881.593 2  -1998609.418 1
  24373689.530    -4037163.800 2  -3145820.439 1
  22462453.280    11250918.211 3   8766932.225 2
  22549688.385   -12891673.877 3 -10045435.462 2
  21566116.983     2766844.304 3   2155984.308 2
 91  4  6 22  4  0.0020000  0  6 11 16 06 18 02 19
  23492692.742    -5388443.177 3  -4198750.758 2
  24422620.464    -2559652.836 2  -1994535.110 1
  24369629.458    -4058511.143 2  -3162454.626 1
  22472175.844    11301997.415 3   8806734.101 2
  22545783.584   -12912192.759 3 -10061424.113 2
  21569367.330     2783911.874 3   2169283.704 2
 91  4  6 22  4 15.0020000  0  6 11 16 06 18 02 19
  23494934.885    -5376650.664 3  -4189561.761 1
  24423639.766    -2554311.129 2  -1990372.739 1
  24365567.256    -4079871.973 2  -3179099.239 1
  22481905.003    11353144.762 3   8846589.090 2
  22541891.383   -12932654.574 3 -10077368.306 2
  21572618.585     2801009.700 3   2182606.678 2
 91  4  6 22  4 30.0020000  0  6 11 16 06 18 02 19
  23497206.415    -5364716.852 3  -4180262.681 2
  24424675.541    -2548848.289 2  -1986115.977 1
  24361499.087    -4101238.299 2  -3195748.217 1
  22491654.545    11404367.941 3   8886503.153 2
  22538008.465   -12953051.254 3 -10093261.758 2
  21575881.811     2818146.150 3   2195959.745 2
 91  4  6 22  4 45.0020000  0  6 11 16 06 18 02 19
  23499502.550    -5352649.929 3  -4170859.863 1
  24425738.609    -2543272.484 2  -1981771.216 1
  24357426.695    -4122618.410 2  -3212407.877 1
  22501417.278    11455658.403 3   8926469.646 2
  22534140.834   -12973391.133 3 -10109110.936 2
  21579146.572     2835312.863 3   2209336.401 2
 91  4  6 22  5  0.0020000  0  6 11 16 06 18 02 19
  23501826.221    -5340442.231 3  -4161347.362 1
  24426826.246    -2537576.262 2  -1977332.656 1
  24353358.805    -4144004.715 2  -3229072.453 1
  22511188.737    11507023.632 3   8966494.403 2
  22530278.926   -12993666.311 3 -10124909.689 2
  21582421.210     2852517.474 3   2222742.586 2
 91  4  6 22  5 15.0020000  0  6 11 16 06 18 02 19
  23504172.717    -5328097.175 3  -4151727.810 2
  24427931.577    -2531763.035 2  -1972802.902 1
  24349289.449    -4165400.583 2  -3245744.421 1
  22520977.541    11558459.894 3   9006574.503 2
  22526434.364   -13013880.161 3 -10140660.671 2
  21585698.221     2869756.781 3   2236175.808 3
 91  4  6 22  5 30.0020000  0  6 11 16 06 18 02 19
  23506546.156    -5315615.288 3  -4142001.630 1
  24429060.607    -2525833.707 2  -1968182.657 1
  24345220.966    -4186806.772 2  -3262424.395 1
  22530777.165    11609966.498 3   9046709.424 2
  22522596.747   -13034033.391 3 -10156364.425 2
  21588988.739     2887030.116 3   2249635.538 3
 91  4  6 22  5 45.0020000  0  6 11 16 06 18 02 19
  23508953.483    -5302998.567 3  -4132170.397 1
  24430212.426    -2519790.122 2  -1963473.458 1
  24341138.068    -4208225.092 2  -3279113.875 1
  22540593.576    11661541.060 3   9086897.283 2
  22518774.382   -13054127.907 3 -10172022.408 2
  21592278.070     2904335.567 3   2263120.303 2
 91  4  6 22  6  0.0020000  0  6 11 16 06 18 02 19
  23511380.320    -5290235.424 3  -4122225.074 1
  24431379.810    -2513620.683 2  -1958666.083 1
  24337061.209    -4229644.157 2  -3295803.902 1
  22550422.864    11713195.112 3   9127147.093 2
  22514964.022   -13074151.987 3 -10187625.504 2
  21595580.908     2921685.010 3   2276639.352 3
 91  4  6 22  6 15.0020000  0  6 11 16 06 18 02 19
  23513832.913    -5277335.403 3  -4112173.095 2
  24432580.490    -2507335.059 2  -1953768.197 1
  24332984.035    -4251073.521 2  -3312501.951 1
  22560266.253    11764918.820 3   9167451.184 2
  22511165.633   -13094115.317 3 -10203181.265 2
  21598887.899     2939068.772 3   2290185.132 2
 91  4  6 22  6 30.0020000  0  6 11 16 06 18 02 19
  23516314.578    -5264296.329 3  -4102012.758 1
  24433795.549    -2500931.036 2  -1948778.129 1
  24328899.951    -4272511.094 2  -3329206.444 1
  22570120.147    11816714.113 3   9207811.036 2
  22507378.971   -13114015.604 3 -10218687.911 2
  21602204.208     2956489.109 3   2303759.415 3
 91  4  6 22  6 45.0020000  0  6 11 16 06 18 02 19
  23518825.350    -5251118.047 3  -4091743.937 1
  24435038.179    -2494408.832 2  -1943695.886 1
  24324824.872    -4293956.676 2  -3345917.151 1
  22579995.295    11868580.929 3   9248226.637 2
  22503602.464   -13133852.704 3 -10234145.315 2
  21605523.204     2973946.032 3   2317362.211 2
 91  4  6 22  7  0.0020000  0  6 11 16 06 18 02 19
  23521357.098    -5237797.409 3  -4081364.204 1
  24436305.099    -2487765.256 2  -1938519.145 1
  24320743.196    -4315407.172 2  -3362631.699 1
  22589874.945    11920522.269 3   9288700.319 2
  22499842.466   -13153623.235 3 -10249550.851 2
  21608857.801     2991443.138 3   2330996.315 2
 91  4  6 22  7 15.0020000  0  6 11 16 06 18 02 19
  23523920.919    -5224342.881 3  -4070880.130 2
  24437588.807    -2481008.990 2  -1933254.546 1
  24316655.238    -4336871.159 2  -3379356.710 1
  22599773.790    11972529.442 3   9329225.271 2
  22496092.693   -13173335.831 3 -10264911.250 2
  21612187.896     3008971.953 3   2344655.125 2
 91  4  6 22  7 30.0020000  0  6 11 16 06 18 02 19
  23526502.434    -5210749.307 3  -4060287.733 1
  24438899.807    -2474134.671 2  -1927897.947 1
  24312571.469    -4358343.355 2  -3396088.174 1
  22609683.141    12024607.398 3   9369805.391 2
  22492351.262   -13192985.158 3 -10280222.329 2
  21615533.277     3026537.767 3   2358342.771 2
 91  4  6 22  7 45.0020000  0  6 11 16 06 18 02 19
  23529116.930    -5197020.206 3  -4049589.689 1
  24440226.373    -2467145.916 2  -1922452.220 1
  24308486.477    -4379827.428 2  -3412828.865 1
  22619606.870    12076752.114 3   9410437.513 2
  22488623.965   -13212574.820 3 -10295486.931 2
  21618884.661     3044137.036 3   2372056.479 2
 91  4  6 22  8  0.0020000  0  6 11 16 06 18 02 19
  23531757.218    -5183147.466 3  -4038779.736 1
  24441576.636    -2460034.640 2  -1916911.032 1
  24304390.737    -4401315.176 2  -3429572.451 1
  22629542.884    12128971.554 3   9451127.884 2
  22484911.327   -13232096.792 3 -10310698.770 2
  21622243.235     3061777.906 3   2385802.623 2
 91  4  6 22  8 15.0020000  0  6 11 16 06 18 02 19
  23534424.763    -5169136.494 3  -4027862.088 1
  24442952.690    -2452806.523 2  -1911278.783 1
  24300305.431    -4422812.277 2  -3446323.252 1
  22639490.905    12181260.195 3   9491872.176 2
  22481204.691   -13251556.426 3 -10325862.061 2
  21625603.309     3079454.943 3   2399576.923 2
 91  4  6 22  8 30.0020000  0  6 11 16 06 18 02 19
  23537115.098    -5154986.000 3  -4016835.705 2
  24444350.313    -2445460.178 2  -1905554.349 1
  24296214.193    -4444317.350 2  -3463080.357 1
  22649458.120    12233618.976 3   9532671.116 2
  22477513.935   -13270952.292 3 -10340975.649 2
  21628973.261     3097169.685 3   2413380.598 2
 91  4  6 22  8 45.0020000  0  6 11 16 06 18 02 19
  23539836.006    -5140700.756 3  -4005704.330 1
  24445771.354    -2438000.765 2  -1899741.862 1
  24292116.009    -4465835.080 2  -3479847.293 1
  22659433.711    12286042.981 3   9573520.885 2
  22473836.372   -13290289.180 3 -10356043.285 2
  21632350.122     3114917.382 3   2427209.976 2
 91  4  6 22  9  0.0020000  0  6 11 16 06 18 02 19
  23542580.611    -5126274.914 3  -3994463.403 1
  24447212.149    -2430422.272 2  -1893836.560 1
  24288023.549    -4487359.954 2  -3496619.769 1
  22669423.368    12338537.969 3   9614425.964 2
  22470166.312   -13309561.298 3 -10371060.434 2
  21635741.676     3132703.806 3   2441069.526 2
 91  4  6 22  9 15.0020000  0  6 11 16 06 18 02 19
  23545351.287    -5111704.068 3  -3983109.485 1
  24448676.047    -2422720.158 2  -1887834.961 1
  24283918.490    -4508887.264 2  -3513394.164 1
  22679425.972    12391107.849 3   9655389.404 2
  22466514.853   -13328764.099 3 -10386023.589 2
  21639131.137     3150533.529 3   2454962.790 2
 91  4  6 22  9 30.0020000  0  6 11 16 06 18 02 19
  23548151.942    -5096986.623 3  -3971641.310 2
  24450169.297    -2414893.289 2  -1881736.139 1
  24279826.030    -4530415.540 2  -3530169.308 1
  22689443.514    12443754.174 3   9696412.419 2
  22462869.677   -13347895.862 3 -10400931.372 2
  21642535.884     3168408.264 3   2468891.172 2
 91  4  6 22  9 45.0020000  0  6 11 16 06 18 02 19
  23550980.483    -5082124.422 3  -3960060.359 1
  24451679.055    -2406943.233 2  -1875541.336 1
  24275727.567    -4551946.674 2  -3546946.702 1
  22699478.192    12496474.766 3   9737493.296 2
  22459245.791   -13366958.364 3 -10415785.194 2
  21645939.723     3186326.294 3   2482853.268 2
 91  4  6 22 10  0.0020000  0  6 11 16 06 18 02 19
  23553834.535    -5067119.745 3  -3948368.369 1
  24453220.887    -2398872.411 2  -1869252.411 1
  24271637.795    -4573482.976 2  -3563728.114 1
  22709524.527    12549267.176 3   9778630.122 2
  22455633.002   -13385953.885 3 -10430586.826 2
  21649363.351     3204285.268 3   2496847.271 2
 91  4  6 22 10 15.0020000  0  6 11 16 06 18 02 19
  23556718.812    -5051974.799 3  -3936567.090 1
  24454777.411    -2390683.405 2  -1862871.395 1
  24267533.050    -4595026.681 2  -3580515.252 1
  22719583.460    12602128.934 3   9819821.000 2
  22452030.370   -13404884.832 3 -10445338.141 2
  21652782.198     3222283.112 3   2510871.571 2
 91  4  6 22 10 30.0020000  0  6 11 16 06 18 02 19
  23559629.823    -5036682.741 3  -3924651.201 1
  24456354.911    -2382369.358 2  -1856392.914 1
  24263427.677    -4616570.936 2  -3597302.880 1
  22729659.495    12655066.590 3   9861071.015 2
  22448438.557   -13423744.242 3 -10460033.715 2
  21656216.017     3240326.854 3   2524931.622 2
 91  4  6 22 10 45.0020000  0  6 11 16 06 18 02 19
  23562563.588    -5021247.303 3  -3912623.566 1
  24457965.112    -2373933.898 2  -1849819.940 1
  24259331.622    -4638119.425 2  -3614093.734 1
  22739744.185    12708076.347 3   9902377.211 2
  22444862.937   -13442535.817 3 -10474676.417 2
  21659657.933     3258412.766 3   2539024.534 2
 91  4  6 22 11  0.0020000  0  6 11 16 06 18 02 19
  23565530.614    -5005665.094 3  -3900481.564 1
  24459590.879    -2365373.439 2  -1843149.409 1
  24255233.438    -4659668.734 2  -3630885.253 1
  22749849.013    12761161.403 3   9943742.076 2
  22441297.509   -13461255.955 3 -10489263.472 2
  21663108.539     3276544.384 3   2553153.066 2
 91  4  6 22 11 15.0020000  0  6 11 16 06 18 02 19
  23568519.243    -4989937.550 3  -3888226.328 1
  24461250.535    -2356689.818 2  -1836383.058 1
  24251130.788    -4681220.362 2  -3647678.652 1
  22759963.718    12814319.920 3   9985164.192 2
  22437750.054   -13479906.220 3 -10503796.070 2
  21666565.148     3294720.257 3   2567316.079 2
 91  4  6 22 11 30.0020000  0  6 11 16 06 18 02 19
  23571542.947    -4974059.637 3  -3875853.909 1
  24462924.569    -2347878.277 2  -1829516.896 1
  24247028.416    -4702769.410 2  -3664469.968 1
  22770092.487    12867556.798 3  10026647.361 2
  22434216.420   -13498481.484 3 -10518270.229 2
  21670039.137     3312945.475 3   2581517.542 2
 91  4  6 22 11 45.0020000  0  6 11 16 06 18 02 19
  23574597.537    -4958021.974 3  -3863357.005 2
  24464630.083    -2338929.183 2  -1822543.644 1
  24242928.173    -4724306.371 2  -3681251.907 1
  22780241.359    12920881.308 3  10068198.827 2
  22430698.665   -13516972.221 4 -10532678.521 2
  21673511.940     3331229.651 3   2595764.951 2
 91  4  6 22 12  0.0020000  0  6 11 16 06 18 02 19
  23577675.512    -4941829.641 3  -3850739.595 1
  24466355.980    -2329847.679 2  -1815467.208 1
  24238829.710    -4745836.358 2  -3698028.383 1
  22790404.017    12974287.958 3  10109814.290 2
  22427196.791   -13535383.628 4 -10547024.997 2
  21677009.627     3349567.771 3   2610054.401 2
 91  4  6 22 12 15.0020000  0  6 11 16 06 18 02 19
  23580790.655    -4925473.223 3  -3837994.331 1
  24468113.670    -2320624.443 2  -1808280.235 1
  24234734.249    -4767349.788 2  -3714791.978 1
  22800583.497    13027786.130 3  10151501.071 2
  22423708.387   -13553706.136 4 -10561302.199 2
  21680506.685     3367969.546 3   2624393.440 2
 91  4  6 22 12 30.0020000  0  6 11 16 06 18 02 19
  23583933.369    -4908954.801 3  -3825122.818 1
  24469888.462    -2311261.662 2  -1800984.631 1
  24230645.070    -4788848.941 2  -3731544.420 1
  22810781.230    13081373.475 3  10193257.337 2
  22420237.993   -13571941.780 4 -10575511.718 2
  21684022.660     3386432.721 3   2638780.322 2
 91  4  6 22 12 45.0020000  0  6 11 16 06 18 02 19
  23587105.470    -4892280.349 3  -3812129.728 1
  24471693.513    -2301765.706 2  -1793585.144 1
  24226556.518    -4810339.765 2  -3748290.367 1
  22820993.656    13135043.743 3  10235078.216 2
  22416781.384   -13590096.655 4 -10589658.311 2
  21687544.009     3404951.433 3   2653210.487 2
 91  4  6 22 13  0.0020000  0  6 11 16 06 18 02 19
  23590312.680    -4875445.621 3  -3799011.757 2
  24473529.136    -2292131.928 2  -1786078.372 1
  24222470.341    -4831817.974 2  -3765026.527 1
  22831220.460    13188800.877 3  10276966.773 2
  22413345.750   -13608166.266 4 -10603738.444 2
  21691085.775     3423530.167 3   2667687.419 2
 91  4  6 22 13 15.0020000  0  6 11 16 06 18 02 19
  23593544.146    -4858447.625 3  -3785766.560 2
  24475389.643    -2282357.241 2  -1778461.760 1
  24218382.348    -4853280.471 2  -3781750.432 1
  22841469.183    13242647.973 3  10318925.440 2
  22409922.750   -13626147.585 4 -10617749.793 2
  21694629.007     3442172.036 3   2682213.549 2
 91  4  6 22 13 30.0020000  0  6 11 16 06 18 02 19
  23596815.469    -4841271.411 3  -3772382.481 2
  24477280.130    -2272427.304 2  -1770724.180 1
  24214309.991    -4874712.482 2  -3798450.547 1
  22851736.786    13296599.576 3  10360965.524 2
  22406521.005   -13644025.701 4 -10631680.720 2
  21698189.968     3460892.067 3   2696800.572 2
 91  4  6 22 13 45.0020000  0  6 11 16 06 18 02 19
  23600114.398    -4823926.734 3  -3758867.149 1
  24479193.721    -2262351.825 2  -1762873.215 1
  24210235.818    -4896123.530 2  -3815134.380 1
  22862017.861    13350645.688 3  10403079.277 2
  22403135.139   -13661810.341 4 -10645538.806 2
  21701763.493     3479680.525 3   2711440.924 2
 91  4  6 22 14  0.0020000  0  6 11 16 06 18 02 19
  23603446.586    -4806413.113 3  -3745220.178 1
  24481142.073    -2252130.235 2  -1754908.376 1
  24206160.425    -4917513.209 2  -3831801.542 1
  22872325.321    13404786.675 3  10445266.939 2
  22399770.249   -13679500.833 4 -10659323.526 2
  21705358.901     3498538.165 3   2726135.190 2
 91  4  6 22 14 15.0020000  0  6 11 16 06 18 02 19
  23606811.128    -4788737.352 3  -3731446.850 2
  24483109.585    -2241769.330 2  -1746834.988 1
  24202095.850    -4938888.295 2  -3848457.328 1
  22882638.783    13459015.461 3  10487523.034 2
  22396421.273   -13697104.033 4 -10673040.231 2
  21708951.901     3517458.162 3   2740878.035 2
 91  4  6 22 14 30.0020000  0  6 11 16 06 18 02 19
  23610206.277    -4770904.515 3  -3717551.114 2
  24485111.299    -2231274.377 2  -1738657.153 1
  24198026.739    -4960253.887 2  -3865105.721 1
  22892977.409    13513326.956 3  10529843.565 2
  22393085.489   -13714624.865 4 -10686692.745 2
  21712565.318     3536435.641 3   2755665.669 2
 91  4  6 22 14 45.0020000  0  6 11 16 06 18 02 19
  23613624.531    -4752924.918 3  -3703541.031 2
  24487128.928    -2220655.879 2  -1730383.023 1
  24193961.257    -4981620.166 2  -3881754.602 1
  22903325.074    13567710.386 3  10572220.154 2
  22389765.271   -13732073.618 4 -10700289.112 2
  21716186.796     3555460.393 3   2770490.146 2
 91  4  6 22 15  0.0020000  0  6 11 16 06 18 02 19
  23617074.823    -4734800.367 3  -3689417.988 1
  24489180.097    -2209915.562 2  -1722013.981 1
  24189894.274    -5002989.018 2  -3898405.572 1
  22913689.771    13622163.754 3  10614651.233 2
  22386457.966   -13749452.068 4 -10713830.688 2
  21719814.592     3574530.599 3   2785350.041 2
 91  4  6 22 15 15.0020000  0  6 11 16 06 18 02 19
  23620551.220    -4716527.257 3  -3675179.211 2
  24491248.646    -2199049.803 2  -1713547.221 1
  24185829.106    -5024356.822 2  -3915055.670 1
  22924066.508    13676690.632 3  10657139.593 2
  22383164.447   -13766756.478 4 -10727314.565 2
  21723450.484     3593650.112 3   2800248.354 2
 91  4  6 22 15 30.0020000  0  6 11 16 06 18 02 19
  23624054.002    -4698107.511 3  -3660826.164 2
  24493336.704    -2188060.620 2  -1704984.241 1
  24181767.498    -5045725.551 2  -3931706.520 1
  22934456.716    13731288.637 3  10699683.375 2
  22379888.029   -13783988.826 4 -10740742.297 2
  21727101.349     3612816.947 3   2815183.539 2
 91  4  6 22 15 45.0020000  0  6 11 16 06 18 02 19
  23627590.673    -4679535.448 3  -3646354.415 1
  24495452.054    -2176942.411 2  -1696320.742 1
  24177697.514    -5067089.252 2  -3948353.440 1
  22944860.117    13785963.522 3  10742287.070 2
  22376621.488   -13801143.272 4 -10754109.326 2
  21730758.810     3632037.166 3   2830160.318 2
 91  4  6 22 16  0.0020000  0  6 11 16 06 18 02 19
  23631156.101    -4660801.662 3  -3631756.643 1
  24497593.754    -2165685.854 2  -1687549.438 1
  24173636.534    -5088438.546 2  -3964989.125 1
  22955280.585    13840724.444 3  10784957.806 2
  22373372.641   -13818210.424 4 -10767408.325 2
  21734429.777     3651320.361 3   2845186.189 2
 91  4  6 22 16 15.0020000  0  6 11 16 06 18 02 19
  23634752.417    -4641905.159 3  -3617032.086 2
  24499756.464    -2154290.092 2  -1678669.669 1
  24169572.867    -5109772.658 2  -3981612.970 1
  22965718.467    13895572.149 3  10827696.156 2
  22370144.455   -13835189.166 4 -10780638.457 2
  21738108.214     3670667.511 3   2860261.875 2
 91  4  6 22 16 30.0020000  0  6 11 16 06 18 02 19
  23638374.803    -4622856.569 3  -3602189.039 1
  24501954.564    -2142765.788 2  -1669689.712 1
  24165514.854    -5131101.833 2  -3998233.020 1
  22976171.043    13950495.813 3  10870493.697 2
  22366927.089   -13852090.064 4 -10793807.898 2
  21741804.065     3690068.034 3   2875379.165 2
 91  4  6 22 16 45.0020000  0  6 11 16 06 18 02 19
  23642027.482    -4603654.647 3  -3587226.493 1
  24504169.101    -2131111.757 2  -1660608.740 1
  24161460.470    -5152425.021 2  -4014848.373 1
  22986635.276    14005496.603 3  10913351.346 2
  22363724.416   -13868911.808 4 -10806915.684 2
  21745505.291     3709523.493 3   2890539.245 2
 91  4  6 22 17  0.0020000  0  6 11 16 06 18 02 19
  23645712.829    -4584305.895 3  -3572149.540 2
  24506413.373    -2119334.426 2  -1651431.618 1
  24157403.085    -5173748.483 2  -4031463.953 1
  22997114.829    14060567.870 3  10956263.914 2
  22360538.529   -13885660.800 4 -10819966.787 2
  21749212.241     3729027.598 3   2905737.237 2
 91  4  6 22 17 15.0020000  0  6 11 16 06 18 02 19
  23649422.152    -4564807.196 3  -3556955.754 2
  24508674.991    -2107430.817 2  -1642156.119 1
  24153345.700    -5195069.111 2  -4048077.266 1
  23007612.357    14115712.164 3  10999233.370 2
  22357366.115   -13902333.907 4 -10832958.755 2
  21752935.664     3748583.566 3   2920975.645 2
 91  4  6 22 17 30.0020000  0  6 11 16 06 18 02 19
  23653162.047    -4545160.287 3  -3541646.442 1
  24510966.903    -2095402.865 2  -1632783.762 1
  24149287.408    -5216388.540 2  -4064689.697 1
  23018115.573    14170927.829 3  11042258.461 1
  22354208.393   -13918932.673 4 -10845892.781 2
  21756665.962     3768189.664 3   2936253.112 2
 91  4  6 22 17 45.0020000  0  6 11 16 06 18 02 19
  23656927.735    -4525358.814 3  -3526216.712 1
  24513286.107    -2083244.137 2  -1623309.474 1
  24145232.710    -5237700.544 2  -4081296.315 1
  23028639.520    14226220.993 3  11085343.930 2
  22351062.084   -13935450.880 4 -10858764.039 2
  21760406.486     3787852.308 3   2951574.648 2
 91  4  6 22 18  0.0020000  0  6 11 16 06 18 02 19
  23660721.935    -4505412.861 3  -3510674.424 1
  24515620.004    -2070964.955 2  -1613741.252 1
  24141178.327    -5259015.261 2  -4097905.136 1
  23039175.124    14281581.545 3  11128481.905 1
  22347933.749   -13951898.442 4 -10871580.260 2
  21764159.295     3807561.537 3   2966932.482 2
 91  4  6 22 18 15.0020000  0  6 11 16 06 18 02 19
  23664547.267    -4485322.395 3  -3495019.514 1
  24517979.343    -2058565.010 2  -1604079.047 1
  24137117.905    -5280332.246 2  -4114515.625 1
  23049723.013    14337009.282 3  11171672.241 2
  22344818.012   -13968275.117 4 -10884341.239 2
  21767918.072     3827317.714 3   2982326.883 2
 91  4  6 22 18 30.0020000  0  6 11 16 06 18 02 19
  23668399.612    -4465087.721 3  -3479252.206 1
  24520361.193    -2046044.724 2  -1594323.022 1
  24133062.335    -5301651.889 2  -4131128.240 1
  23060282.314    14392503.704 3  11214914.531 2
  22341714.840   -13984581.331 4 -10897047.310 2
  21771687.388     3847120.673 3   2997757.755 2
 91  4  6 22 18 45.0020000  0  6 11 16 06 18 02 19
  23672275.934    -4444701.822 3  -3463367.088 1
  24522761.051    -2033397.133 2  -1584467.782 1
  24129005.229    -5322967.235 2  -4147737.502 1
  23070858.682    14448071.540 3  11258214.051 2
  22338625.802   -14000810.039 4 -10909692.998 2
  21775467.455     3866977.526 3   3013230.627 2
 91  4  6 22 19  0.0020000  0  6 11 16 06 18 02 19
  23676184.922    -4424172.832 3  -3447370.481 1
  24525195.357    -2020630.851 2  -1574520.067 1
  24124951.439    -5344286.215 2  -4164349.597 1
  23081442.553    14503704.456 3  11301564.249 2
  22335553.517   -14016969.114 4 -10922284.423 2
  21779252.337     3886880.248 3   3028739.229 2
 91  4  6 22 19 15.0020000  0  6 11 16 06 18 02 19
  23680118.481    -4403501.903 3  -3431263.253 2
  24527650.044    -2007746.920 2  -1564480.694 1
  24120888.644    -5365609.986 2  -4180965.399 1
  23092039.616    14559401.250 3  11344964.241 2
  22332487.549   -14033059.710 4 -10934822.487 2
  21783048.318     3906827.742 3   3044282.707 2
 91  4  6 22 19 30.0020000  0  6 11 16 06 18 02 19
  23684079.959    -4382676.781 3  -3415035.885 1
  24530123.054    -1994732.993 2  -1554340.013 1
  24116835.447    -5386926.229 2  -4197575.369 1
  23102657.062    14615173.746 3  11388423.198 2
  22329440.461   -14049069.565 4 -10947297.623 2
  21786857.770     3926832.630 3   3059870.932 2
 91  4  6 22 19 45.0020000  0  6 11 16 06 18 02 19
  23688072.883    -4361700.453 3  -3398690.687 2
  24532622.728    -1981592.025 2  -1544100.349 1
  24112778.377    -5408237.718 2  -4214181.620 1
  23113282.918    14671019.082 3  11431938.932 2
  22326409.847   -14065001.393 4 -10959711.985 2
  21790674.133     3946891.964 3   3075501.579 2
 91  4  6 22 20  0.0020000  0  6 11 16 06 18 02 19
  23692092.192    -4340576.464 3  -3382230.435 1
  24535149.659    -1968327.595 2  -1533764.459
  24108723.365    -5429547.951 2  -4230786.893 1
  23123920.745    14726933.381 3  11475508.412 1
  22323393.926   -14080858.621 4 -10972068.202 2
  21794497.999     3967002.529 3   3091172.133 2
 91  4  6 22 20 15.0020000  0  6 11 16 06 18 02 19
  23696142.387    -4319298.896 3  -3365650.509 1
  24537693.691    -1954933.827 2  -1523327.801 1
  24104670.168    -5450851.047 2  -4247386.555 1
  23134575.360    14782922.451 3  11519136.137 1
  22320390.011   -14096635.361 4 -10984361.708 2
  21798336.523     3987170.245 3   3106887.227 2
 91  4  6 22 20 30.0020000  0  6 11 16 06 18 02 19
  23700218.374    -4297864.951 3  -3348948.706 1
  24540266.237    -1941407.948 2  -1512788.184 1
  24100617.006    -5472144.112 2  -4263978.527 1
  23145248.576    14838988.926 3  11562824.181 2
  22317403.476   -14112328.662 4 -10996590.195 2
  21802190.648     4007398.036 3   3122649.135 2
 91  4  6 22 20 45.0020000  0  6 11 16 06 18 02 19
  23704330.030    -4276281.250 3  -3332130.242 2
  24542871.136    -1927757.020 2  -1502151.142 1
  24096570.405    -5493433.660 2  -4280567.687 1
  23155927.481    14895126.071 3  11606567.292 2
  22314432.855   -14127945.105 4 -11008758.787 2
  21806044.180     4027679.517 3   3138452.882 2
 91  4  6 22 21  0.0020000  0  6 11 16 06 18 02 19
  23708465.068    -4254534.937 3  -3315185.074 1
  24545493.415    -1913968.141 2  -1491406.590 1
  24092521.710    -5514706.882 2  -4297144.110 1
  23166627.675    14951346.371 3  11650375.185 2
  22311477.487   -14143471.959 4 -11020857.579 2
  21809919.001     4048027.851 3   3154308.728 3
 91  4  6 22 21 15.0020000  0  6 11 16 06 18 02 19
  23712633.087    -4232631.031 3  -3298117.077 1
  24548142.672    -1900046.119 2  -1480558.316 1
  24088472.701    -5535968.685 2  -4313711.677 1
  23177344.343    15007644.684 3  11694243.868 1
  22308538.626   -14158914.018 4 -11032890.304 2
  21813800.732     4068438.075 3   3170212.787 3
 91  4  6 22 21 30.0020000  0  6 11 16 06 18 02 19
  23716831.680    -4210573.505 3  -3280929.389 1
  24550817.128    -1885995.382 2  -1469609.718 1
  24084427.601    -5557222.811 2  -4330273.210 1
  23188067.048    15064017.099 3  11738170.314 1
  22305615.958   -14174275.034 4 -11044859.860 2
  21817701.309     4088906.292 3   3186162.043 3
 91  4  6 22 21 45.0020000  0  6 11 16 06 18 02 19
  23721057.843    -4188361.192 3  -3263621.105 1
  24553511.965    -1871814.429 2  -1458559.670 1
  24080381.594    -5578468.090 2  -4346827.862 1
  23198810.693    15120464.548 3  11782155.208 2
  22302708.264   -14189553.856 4 -11056765.373 2
  21821607.610     4109433.825 3   3202157.525 3
 91  4  6 22 22  0.0020000  0  6 11 16 06 18 02 19
  23725312.520    -4166001.853 3  -3246198.234 1
  24556237.654    -1857511.200 2  -1447414.377 1
  24076340.402    -5599712.248 2  -4363381.661 1
  23209568.159    15176979.002 3  11826192.323 1
  22299815.855   -14204758.158 4 -11068612.818 2
  21825522.916     4130013.109 3   3218193.325 3
 91  4  6 22 22 15.0020000  0  6 11 16 06 18 02 19
  23729594.734    -4143501.158 3  -3228665.194 2
  24558975.663    -1843091.402 2  -1436178.211 1
  24072297.990    -5620960.898 2  -4379938.946 1
  23220329.185    15233554.579 3  11870277.049 2
  22296934.266   -14219893.543 4 -11080406.575 2
  21829441.502     4150638.522 3   3234265.068 3
 91  4  6 22 22 30.0020000  0  6 11 16 06 18 02 19
  23733905.147    -4120865.433 3  -3211026.961 1
  24561746.653    -1828561.447 2  -1424856.182 1
  24068251.389    -5642220.072 2  -4396504.453 1
  23231110.942    15290184.851 3  11914404.403 2
  22294066.148   -14234966.145 4 -11092151.407 2
  21833378.969     4171303.997 3   3250368.027 3
 91  4  6 22 22 45.0020000  0  6 11 16 06 18 02 19
  23738234.162    -4098088.900 3  -3193279.009 2
  24564528.427    -1813915.829 2  -1413444.032 1
  24064201.507    -5663483.980 2  -4413073.586 1
  23241893.885    15346875.303 3  11958578.666 2
  22291210.315   -14249970.266 4 -11103842.867 2
  21837317.029     4192015.575 3   3266506.915 3
 91  4  6 22 23  0.0020000  0  6 11 16 06 18 02 19
  23742596.438    -4075165.782 3  -3175416.808 1
  24567347.370    -1799148.787 2  -1401937.358 1
  24060161.503    -5684746.889 2  -4429641.985 1
  23252693.894    15403631.645 3  12002804.265 2
  22288368.268   -14264899.916 4 -11115476.301 2
  21841272.505     4212779.230 3   3282686.384 3
 91  4  6 22 23 15.0020000  0  6 11 16 06 18 02 19
  23746991.414    -4052098.991 3  -3157442.693 1
  24570177.725    -1784262.852 2  -1390337.916 1
  24056115.181    -5706011.609 2  -4446211.801 1
  23263508.597    15460450.873 3  12047078.858 2
  22285541.856   -14279757.759 4 -11127053.789 2
  21845229.446     4233592.289 3   3298904.346 3
 91  4  6 22 23 30.0020000  0  6 11 16 06 18 02 19
  23751407.960    -4028891.549 3  -3139358.960 1
  24573028.742    -1769261.574 2  -1378648.690 1
  24052064.986    -5727280.942 2  -4462785.174 1
  23274332.025    15517329.609 3  12091399.830 2
  22282727.974   -14294546.879 4 -11138577.715 2
  21849199.615     4254451.757 3   3315158.468 3
 91  4  6 22 23 45.0020000  0  6 11 16 06 18 02 19
  23755852.356    -4005536.309 3  -3121160.074 2
  24575907.958    -1754137.569 2  -1366863.787 1
  24048020.200    -5748547.607 2  -4479356.544 1
  23285167.423    15574275.056 3  12135772.792 2
  22279929.133   -14309260.123 4 -11150042.533 2
  21853178.160     4275365.007 3   3331454.506 2
 91  4  6 22 24  0.0020000  0  6 11 16 06 18 02 19
  23760320.763    -3982033.569 3  -3102846.238 1
  24578809.929    -1738891.181 2  -1354983.537 1
  24043976.286    -5769811.789 2  -4495925.931 1
  23296018.388    15631286.800 3  12180197.408 1
  22277143.450   -14323897.548 4 -11161448.261 2
  21857169.583     4296331.986 3   3347792.407 3
 91  4  6 22 24 15.0020000  0  6 11 16 06 18 02 19
  23764821.872    -3958382.505 3  -3084416.843 2
  24581731.410    -1723521.676 2  -1343007.343 1
  24039924.311    -5791072.627 2  -4512492.664 1
  23306878.391    15688365.407 3  12224674.111 1
  22274373.368   -14338458.187 4 -11172794.162 2
  21861168.824     4317353.698 3   3364172.953 3
 91  4  6 22 24 30.0020000  0  6 11 16 06 18 02 19
  23769349.611    -3934597.054 3  -3065882.727 2
  24584678.368    -1708043.258 2  -1330946.291 1
  24035879.490    -5812344.015 2  -4529067.665 1
  23317751.552    15745496.917 3  12269192.052 2
  22271612.883   -14352955.955 4 -11184091.065 2
  21865182.165     4338416.315 3   3380585.373 3
 91  4  6 22 24 45.0020000  0  6 11 16 06 18 02 19
  23773901.954    -3910667.897 3  -3047236.606 1
  24587650.524    -1692446.669 2  -1318793.172 1
  24031829.294    -5833616.514 2  -4545643.520 1
  23328634.938    15802690.254 3  12313758.164 1
  22268867.370   -14367381.393 4 -11195331.603 2
  21869193.970     4359529.301 3   3397037.047 3
 91  4  6 22 25  0.0020000  0  6 11 16 06 18 02 19
  23778486.091    -3886582.766 3  -3028468.969 1
  24590641.247    -1676719.542 2  -1306538.348 1
  24027783.008    -5854877.595 2  -4562210.468 1
  23339532.390    15859957.687 3  12358382.011 1
  22266137.772   -14381722.049 4 -11206506.093 2
  21873225.878     4380705.407 3   3413537.902 2
 91  4  6 22 25 15.0020000  0  6 11 16 06 18 02 19
  23783100.208    -3862351.925 3  -3009587.799 1
  24593654.166    -1660872.008 2  -1294189.653 1
  24023737.628    -5876137.410 2  -4578776.461 1
  23350442.127    15917288.544 3  12403055.272 1
  22263424.054   -14395988.265 4 -11217622.560 2
  21877265.289     4401934.296 3   3430079.889 3
 91  4  6 22 25 30.0020000  0  6 11 16 06 18 02 19
  23787735.579    -3837975.895 3  -2990593.490 2
  24596698.252    -1644904.824 2  -1281747.723 1
  24019695.809    -5897396.585 2  -4595341.919 1
  23361363.869    15974682.232 3  12447777.524 1
  22260723.214   -14410180.422 4 -11228681.328 2
  21881320.580     4423215.477 3   3446662.613 3
 91  4  6 22 25 45.0020000  0  6 11 16 06 18 02 19
  23792402.151    -3813452.307 3  -2971484.178 2
  24599757.345    -1628815.676 2  -1269210.808 1
  24015646.207    -5918652.615 2  -4611904.935 1
  23372295.488    16032141.243 3  12492550.668 1
  22258037.381   -14424296.027 4 -11239680.438 2
  21885373.777     4444551.714 3   3463288.252 3
 91  4  6 22 26  0.0020000  0  6 11 16 06 18 02 19
  23797096.609    -3788777.572 3  -2952257.144 2
  24602845.510    -1612600.977 2  -1256576.012 1
  24011601.107    -5939901.680 2  -4628462.539 1
  23383248.117    16089668.863 3  12537377.261 1
  22255366.835   -14438331.353 4 -11250616.989 2
  21889444.948     4465946.882 3   3479959.801 3
 91  4  6 22 26 15.0020000  0  6 11 16 06 18 02 19
  23801818.358    -3763958.505 3  -2932917.612 1
  24605951.056    -1596267.482 2  -1243848.725 1
  24007559.915    -5961150.413 2  -4645019.856 1
  23394200.432    16147258.038 3  12582251.823 2
  22252709.481   -14452293.050 4 -11261496.178 2
  21893527.217     4487394.361 3   3496672.111 3
 91  4  6 22 26 30.0020000  0  6 11 16 06 18 02 19
  23806572.740    -3738993.029 3  -2913464.001 2
  24609080.578    -1579813.567 2  -1231027.519 1
  24003518.724    -5982396.558 2  -4661575.202 1
  23405179.725    16204910.832 3  12627175.957 1
  22250068.600   -14466178.946 4 -11272316.282 2
  21897624.179     4508896.269 3   3513426.843 3
 91  4  6 22 26 45.0020000  0  6 11 16 06 18 02 19
  23811350.854    -3713875.167 3  -2893891.648 1
  24612234.705    -1563233.185 2  -1218107.809 1
  23999473.903    -6003634.143 2  -4678123.857 1
  23416157.238    16262633.219 3  12672154.310 1
  22247438.503   -14479983.016 4 -11283072.645 2
  21901720.862     4530458.954 3   3530228.923 3
 91  4  6 22 27  0.0020000  0  6 11 16 06 18 02 19
  23816157.726    -3688604.439 3  -2874200.162 2
  24615413.995    -1546525.410 2  -1205088.834 1
  23995430.618    -6024862.681 2  -4694665.456 1
  23427155.413    16320425.439 3  12717187.085 1
  22244828.823   -14493704.593 4 -11293764.723 2
  21905837.298     4552083.033 3   3547078.845 2
 91  4  6 22 27 15.0020000  0  6 11 16 06 18 02 19
  23820999.358    -3663178.329 3  -2854387.618 1
  24618622.078    -1529688.247 2  -1191969.013 1
  23991393.022    -6046079.317 2  -4711197.773 1
  23438165.279    16378289.649 3  12762275.956 1
  22242235.023   -14507341.125 4 -11304390.516 2
  21909961.239     4573771.241 3   3563978.735 3
 91  4  6 22 27 30.0020000  0  6 11 16 06 18 02 19
  23825863.502    -3637598.081 3  -2834454.951 1
  24621847.262    -1512722.909 2  -1178749.334 1
  23987361.079    -6067285.127 2  -4727721.683 1
  23449197.062    16436224.813 3  12807420.111 1
  22239655.601   -14520893.758 4 -11314950.949 2
  21914105.595     4595522.467 3   3580927.733 3
 91  4  6 22 27 45.0020000  0  6 11 16 06 18 02 19
  23830762.092    -3611873.704 3  -2814409.990 2
  24625100.890    -1495639.375 2  -1165437.528 1
  23983323.483    -6088490.097 2  -4744244.923 1
  23460224.622    16494220.703 3  12852611.594 1
  22237090.594   -14534372.364 4 -11325453.690 2
  21918251.104     4617326.932 3   3597918.208 3
 91  4  6 22 28  0.0020000  0  6 11 16 06 18 02 19
  23835681.099    -3586007.087 3  -2794254.190 2
  24628372.247    -1478439.437 2  -1152035.045 1
  23979293.983    -6109695.861 2  -4760768.765 1
  23471274.973    16552275.317 3  12897848.816 1
  22234541.431   -14547778.775 4 -11335900.181 2
  21922410.433     4639183.082 3   3614948.963 3
 91  4  6 22 28 15.0020000  0  6 11 16 06 18 02 19
  23840631.865    -3559994.701 3  -2773984.794 1
  24631671.455    -1461119.986 2  -1138539.399 1
  23975257.887    -6130899.007 2  -4777290.620 1
  23482334.607    16610391.772 3  12943134.248 1
  22232002.808   -14561109.305 4 -11346287.537 2
  21926580.861     4661094.605 3   3632022.872 3
 91  4  6 22 28 30.0020000  0  6 11 16 06 18 02 19
  23845606.923    -3533843.420 3  -2753607.176 1
  24634984.763    -1443687.955 2  -1124956.016 1
  23971219.977    -6152106.159 2  -4793815.532 1
  23493405.060    16668562.975 3  12988462.354 2
  22229479.437   -14574370.691 4 -11356621.016 2
  21930760.851     4683054.795 3   3649134.693 3
 91  4  6 22 28 45.0020000  0  6 11 16 06 18 02 19
  23850611.366    -3507553.124 3  -2733121.234 1
  24638329.830    -1426142.877 2  -1111284.603 1
  23967188.348    -6173316.977 2  -4810343.331 1
  23504484.796    16726789.249 3  13033833.323 1
  22226968.385   -14587562.674 4 -11366900.421 2
  21934946.565     4705063.956 3   3666284.679 2
 91  4  6 22 29  0.0020000  0  6 11 16 06 18 02 19
  23855643.066    -3481118.339 3  -2712522.710 1
  24641687.531    -1408479.604 2  -1097521.067 1
  23963149.844    -6194525.979 2  -4826869.709 1
  23515574.724    16785075.714 3  13079251.236 1
  22224472.306   -14600679.705 4 -11377121.415 2
  21939152.347     4727127.785 3   3683477.255 3
 91  4  6 22 29 15.0020000  0  6 11 16 06 18 02 19
  23860696.998    -3454540.860 3  -2691812.984 1
  24645073.362    -1390700.185 2  -1083667.046 1
  23959113.434    -6215734.711 2  -4843395.872 1
  23526682.311    16843420.709 3  13124714.753 1
  22221991.548   -14613723.448 4 -11387285.304 2
  21943353.033     4749244.647 3   3700711.167 2
 91  4  6 22 29 30.0020000  0  6 11 16 06 18 02 19
  23865785.656    -3427818.722 3  -2670990.546 2
  24648473.607    -1372802.447 2  -1069720.785 1
  23955078.839    -6236940.991 2  -4859920.129 1
  23537792.934    16901825.719 3  13170225.020 1
  22219524.541   -14626691.892 4 -11397390.520 2
  21947575.916     4771416.682 3   3717988.053 3
 91  4  6 22 29 45.0020000  0  6 11 16 06 18 02 19
  23870898.012    -3400952.796 3  -2650056.070 1
  24651902.051    -1354787.326 2  -1055683.073 1
  23951040.335    -6258145.818 2  -4876443.272 1
  23548919.717    16960289.822 3  13215781.331 2
  22217069.854   -14639585.560 4 -11407437.468 2
  21951802.987     4793643.340 3   3735307.522 3
 91  4  6 22 30  0.0020000  0  6 11 16 06 18 02 19
  23876037.066    -3373940.811 3  -2629007.781 1
  24655356.845    -1336652.459 2  -1041552.098 1
  23947010.243    -6279346.556 2  -4892963.240 1
  23560059.726    17018815.209 3  13261385.405 2
  22214630.418   -14652402.039 4 -11417424.267 2
  21956041.435     4815927.290 3   3752671.626 3
 91  4  6 22 30 15.0020000  0  6 11 16 06 18 02 19
  23881203.692    -3346783.986 3  -2607846.609 2
  24658832.649    -1318399.112 2  -1027328.736 1
  23942977.113    -6300544.124 2  -4909480.692 1
  23571205.110    17077400.800 3  13307036.402 1
  22212207.525   -14665142.588 4 -11427351.899 2
  21960295.205     4838267.331 3   3770079.421 3
 91  4  6 22 30 30.0020000  0  6 11 16 06 18 02 19
  23886400.890    -3319483.962 3  -2586573.870 2
  24662324.333    -1300028.874 2  -1013014.304 1
  23938942.204    -6321740.334 2  -4925997.109 1
  23582363.059    17136044.507 3  13352732.670 1
  22209794.789   -14677808.810 4 -11437221.620 2
  21964559.445     4860662.079 3   3787529.875 2
 91  4  6 22 30 45.0020000  0  6 11 16 06 18 02 19
  23891624.159    -3292040.178 3  -2565189.102 2
  24665843.309    -1281541.433 2   -998608.567 1
  23934910.296    -6342934.241 2  -4942511.731 1
  23593535.142    17194746.998 3  13398474.730 1
  22207397.652   -14690399.981 4 -11447032.847 2
  21968825.814     4883112.329 3   3805023.564 3
 91  4  6 22 31  0.0020000  0  6 11 16 06 18 02 19
  23896872.626    -3264451.718 3  -2543691.592 1
  24669379.945    -1262936.012 2   -984110.877 1
  23930876.609    -6364124.782 2  -4959023.750 1
  23604715.601    17253508.820 3  13444263.035 2
  22205016.675   -14702914.840 4 -11456784.623 2
  21973111.029     4905619.231 3   3822561.393 3
 91  4  6 22 31 15.0020000  0  6 11 16 06 18 02 19
  23902146.884    -3236722.848 3  -2522084.697 2
  24672943.593    -1244216.830 2   -969524.581 1
  23926839.885    -6385316.008 2  -4975536.252 1
  23615912.254    17312325.978 3  13490094.449 1
  22202648.610   -14715357.590 4 -11466480.204 2
  21977404.655     4928178.812 3   3840140.273 3
 91  4  6 22 31 30.0020000  0  6 11 16 06 18 02 19
  23907453.216    -3208851.338 3  -2500366.639 2
  24676533.278    -1225381.537 2   -954847.783 1
  23922808.885    -6406505.514 2  -4992047.432 1
  23627116.690    17371200.313 3  13535970.427 1
  22200294.367   -14727725.779 4 -11476117.687 2
  21981709.693     4950793.595 3   3857762.166 3
 91  4  6 22 31 45.0020000  0  6 11 16 06 18 02 19
  23912782.932    -3180833.802 3  -2478534.796 1
  24680138.004    -1206426.824 2   -940077.902 1
  23918779.664    -6427689.727 2  -5008554.510 1
  23638326.815    17430135.141 3  13581893.535 1
  22197957.189   -14740015.867 4 -11485694.314 2
  21986021.886     4973467.285 3   3875429.971 3
 91  4  6 22 32  0.0020000  0  6 11 16 06 18 02 19
  23918145.628    -3152669.769 3  -2456588.808 1
  24683769.080    -1187352.595 2   -925214.943 1
  23914750.758    -6448868.302 2  -5025057.188 1
  23649555.855    17489130.811 3  13627864.041 1
  22195632.890   -14752227.704 4 -11495209.968 2
  21990349.994     4996200.255 3   3893143.968 3
 91  4  6 22 32 15.0020000  0  6 11 16 06 18 02 19
  23923532.894    -3124360.745 3  -2434529.845 2
  24687414.849    -1168160.077 2   -910259.773 1
  23910722.759    -6470042.271 2  -5041556.256 1
  23660791.492    17548185.624 3  13673880.653 1
  22193322.690   -14764362.418 4 -11504665.520 2
  21994685.885     5018991.531 3   3910903.389 3
 91  4  6 22 32 30.0020000  0  6 11 16 06 18 02 19
  23928945.044    -3095912.130 3  -2412362.070 1
  24691094.228    -1148854.932 2   -895216.848 1
  23906692.352    -6491216.885 2  -5058055.834 1
  23672043.602    17607294.228 3  13719939.189 1
  22191028.057   -14776425.147 4 -11514064.986 2
  21999033.188     5041835.840 3   3928704.134 3
 91  4  6 22 32 45.0020000  0  6 11 16 06 18 02 19
  23934390.175    -3067316.765 3  -2390079.997 1
  24694788.858    -1129429.846 2   -880080.445 1
  23902661.317    -6512385.047 2  -5074550.390 1
  23683302.308    17666463.623 3  13766045.043 1
  22188747.837   -14788408.595 4 -11523402.676 2
  22003393.962     5064740.397 3   3946551.833 3
 91  4  6 22 33  0.0020000  0  6 11 16 06 18 02 19
  23939859.283    -3038579.261 3  -2367687.141 1
  24698505.370    -1109889.703 2   -864854.460 1
  23898632.725    -6533551.007 2  -5091043.213 1
  23694571.484    17725688.990 3  13812194.570 1
  22186479.937   -14800317.334 4 -11532682.149 2
  22007766.742     5087700.836 3   3964443.082 3
 91  4  6 22 33 15.0020000  0  6 11 16 06 18 02 19
  23945351.181    -3009700.639 3  -2345184.311 1
  24702247.395    -1090235.378 2   -849539.415 1
  23894608.006    -6554715.623 2  -5107535.038 1
  23705851.479    17784969.065 3  13858386.702 1
  22184227.881   -14812152.206 4 -11541904.061 2
  22012139.802     5110716.560 3   3982377.396 3
 91  4  6 22 33 30.0020000  0  6 11 16 06 18 02 19
  23950870.056    -2980683.979 3  -2322573.927 1
  24706007.079    -1070469.853 2   -834137.699 1
  23890576.099    -6575881.968 2  -5124028.151 1
  23717142.852    17844300.825 3  13904619.110 1
  22181988.739   -14823916.131 4 -11551070.704 2
  22016532.057     5133784.721 3   4000352.573 3
 91  4  6 22 33 45.0020000  0  6 11 16 06 18 02 19
  23956417.131    -2951532.126 3  -2299858.181 2
  24709793.183    -1050596.109 2   -818651.789 1
  23886554.382    -6597052.322 2  -5140524.418 1
  23728445.323    17903681.204 3  13950889.405 1
  22179764.569   -14835611.790 4 -11560184.139 2
  22020929.128     5156902.679 3   4018366.560 3
 91  4  6 22 34  0.0020000  0  6 11 16 06 18 02 19
  23961991.743    -2922252.860 3  -2277043.206 1
  24713593.038    -1030622.250 2   -803087.764 1
  23882520.066    -6618234.634 2  -5157029.991 1
  23739749.330    17963102.545 3  13997191.611 1
  22177551.184   -14847246.953 4 -11569250.444 2
  22025339.077     5180062.826 3   4036413.424 2
 91  4  6 22 34 15.0020000  0  6 11 16 06 18 02 19
  23967584.992    -2892848.676 3  -2254130.846 2
  24717413.589    -1010550.548 2   -787447.535 1
  23878483.970    -6639430.974 2  -5173546.507 1
  23751068.274    18022562.153 3  14043523.652 1
  22175346.244   -14858823.796 4 -11578271.300 2
  22029749.305     5203262.999 3   4054491.476 3
 91  4  6 22 34 30.0020000  0  6 11 16 06 18 02 19
  23973205.811    -2863310.774 3  -2231114.319 1
  24721251.240     -990372.422 2   -771724.375 1
  23874450.876    -6660632.476 2  -5190067.021 1
  23762387.532    18082068.524 3  14089892.106 1
  22173157.428   -14870333.516 4 -11587239.850 2
  22034181.137     5226512.058 3   4072607.606 3
 91  4  6 22 34 45.0020000  0  6 11 16 06 18 02 19
  23978854.168    -2833645.265 3  -2207998.351 1
  24725105.365     -970093.804 2   -755922.892 1
  23870416.246    -6681845.002 2  -5206596.162 1
  23773719.983    18141615.868 3  14136292.479 1
  22170977.966   -14881782.085 4 -11596160.758 2
  22038610.002     5249804.479 3   4090757.540 3
 91  4  6 22 35  0.0020000  0  6 11 16 06 18 02 19
  23984523.255    -2803848.339 3  -2184779.980 1
  24728993.379     -949711.086 2   -740040.279 1
  23866376.556    -6703064.485 2  -5223130.692 1
  23785062.031    18201207.799 3  14182727.628 1
  22168814.942   -14893165.350 4 -11605030.774 2
  22043052.025     5273144.191 3   4108944.318 3
 91  4  6 22 35 15.0020000  0  6 11 16 06 18 02 19
  23990218.727    -2773907.814 3  -2161449.699 2
  24732892.490     -929211.885 2   -724066.986 1
  23862340.739    -6724278.619 2  -5239661.067 1
  23796412.176    18260856.059 3  14229206.648 1
  22166662.143   -14904471.141 4 -11613840.432 2
  22047501.831     5296543.529 3   4127177.563 2
 91  4  6 22 35 30.0020000  0  6 11 16 06 18 02 19
  23995944.457    -2743823.411 3  -2138007.325 1
  24736814.357     -908596.114 2   -708002.789 1
  23858299.827    -6745486.890 2  -5256186.876 2
  23807770.418    18320560.897 3  14275729.789 1
  22164525.224   -14915698.990 4 -11622589.345 2
  22051966.050     5320003.301 3   4145457.888 3
 91  4  6 22 35 45.0020000  0  6 11 16 06 18 02 19
  24001694.164    -2713594.921 3  -2114452.659 1
  24740763.830     -887863.845 2   -691847.803 1
  23854271.828    -6766688.973 2  -5272707.860 1
  23819147.855    18380322.572 3  14322297.168 2
  22162404.779   -14926848.569 4 -11631277.266 2
  22056445.556     5343523.901 3   4163785.615 2
 91  4  6 22 36  0.0020000  0  6 11 16 06 18 02 19
  24007475.666    -2683232.845 3  -2090793.909 2
  24744726.774     -867025.414 2   -675610.114 1
  23850230.323    -6787895.135 2  -5289232.025 1
  23830530.667    18440130.349 3  14368900.489 1
  22160296.932   -14937930.358 4 -11639912.372 2
  22060926.248     5367094.899 3   4182152.613 3
 91  4  6 22 36 15.0020000  0  6 11 16 06 18 02 19
  24013282.051    -2652723.530 3  -2067020.426 1
  24748715.231     -846067.256 2   -659279.171 1
  23846201.417    -6809091.620 2  -5305748.646 1
  23841915.887    18499997.886 3  14415550.382 1
  22158200.498   -14948930.667 4 -11648483.982 2
  22065428.509     5390730.058 3   4200569.603 3
 91  4  6 22 36 30.0020000  0  6 11 16 06 18 02 19
  24019112.413    -2622072.232 3  -2043136.312 1
  24752719.846     -824994.681 2   -642859.014 1
  23842170.416    -6830283.358 2  -5322261.557 1
  23853325.398    18559919.757 3  14462242.606 1
  22156120.536   -14959854.202 4 -11656995.770 2
  22069934.714     5414424.498 3   4219032.798 3
 91  4  6 22 36 45.0020000  0  6 11 16 06 18 02 19
  24024972.441    -2591276.869 3  -2019139.928 2
  24756760.165     -803805.595 2   -626348.088 1
  23838134.286    -6851468.069 2  -5338769.018 1
  23864734.595    18619897.906 3  14508978.676 1
  22154058.549   -14970698.713 4 -11665445.978 2
  22074456.763     5438180.779 3   4237544.170 2
 91  4  6 22 37  0.0020000  0  6 11 16 06 18 02 19
  24030863.669    -2560335.884 3  -1995030.093 2
  24760804.044     -782498.381 2   -609745.065 1
  23834106.601    -6872644.000 2  -5355269.645 1
  23876162.673    18679933.947 3  14555759.867 1
  22152008.881   -14981462.570 4 -11673833.339 2
  22078992.040     5462000.529 3   4256105.002 3
 91  4  6 22 37 15.0020000  0  6 11 16 06 18 02 19
  24036775.000    -2529256.954 3  -1970812.730 1
  24764883.032     -761080.700 2   -593056.046 1
  23830077.695    -6893818.448 2  -5371769.049 1
  23887591.065    18740020.289 3  14602580.280 1
  22149974.186   -14992153.290 4 -11682163.714 2
  22083531.504     5485876.454 3   4274709.604 2
 91  4  6 22 37 30.0020000  0  6 11 16 06 18 02 19
  24042709.680    -2498045.718 3  -1946492.299 1
  24768980.901     -739558.301 2   -576285.411 1
  23826049.661    -6914996.944 2  -5388271.694 1
  23899039.838    18800151.160 3  14649435.366 1
  22147956.592   -15002776.323 4 -11690441.344 2
  22088087.128     5509803.230 3   4293353.843 2
 91  4  6 22 37 45.0020000  0  6 11 16 06 18 02 19
  24048678.841    -2466700.591 3  -1922067.535 1
  24773091.928     -717929.736 2   -559432.105 1
  23822016.566    -6936177.725 2  -5404776.069 1
  23910493.114    18860327.888 3  14696326.178 1
  22145946.187   -15013330.144 4 -11698665.049 2
  22092646.696     5533782.554 3   4312039.013 2
 91  4  6 22 38  0.0020000  0  6 11 16 06 18 02 19
  24054667.511    -2435222.023 3  -1897538.800 2
  24777236.285     -696195.706 2   -542496.548 1
  23817981.971    -6957361.220 2  -5421282.556 1
  23921947.891    18920549.804 3  14743252.209 1
  22143948.346   -15023815.111 4 -11706835.096 2
  22097226.610     5557814.310 3   4330765.036 3
 91  4  6 22 38 15.0020000  0  6 11 16 06 18 02 19
  24060683.125    -2403611.781 3  -1872907.445 1
  24781383.016     -674357.820 2   -525480.065 1
  23813953.938    -6978548.775 2  -5437792.245 1
  23933418.547    18980814.955 3  14790211.917 1
  22141965.827   -15034232.743 4 -11714952.668 2
  22101802.057     5581896.864 3   4349530.648 2
 91  4  6 22 38 30.0020000  0  6 11 16 06 18 02 19
  24066726.065    -2371876.329 3  -1848178.534 1
  24785563.320     -652422.450 2   -508387.669 1
  23809920.843    -6999746.703 2  -5454309.985 1
  23944891.612    19041117.067 3  14837200.418 2
  22139994.406   -15044589.285 4 -11723022.644 2
  22106393.977     5606024.211 3   4368331.172 2
 91  4  6 22 38 45.0020000  0  6 11 16 06 18 02 19
  24072783.664    -2340023.126 3  -1823357.860 1
  24789751.721     -630396.966 2   -491224.951 1
  23805882.619    -7020962.178 3  -5470841.414 1
  23956373.331    19101448.374 3  14884211.668 1
  22138039.458   -15054892.115 4 -11731050.766 2
  22110991.865     5630189.197 3   4387161.015 2
 91  4  6 22 39  0.0020000  0  6 11 16 06 18 02 19
  24078872.150    -2308047.030 3  -1798441.444 1
  24793962.005     -608276.324 2   -473988.172 1
  23801842.021    -7042189.801 3  -5487382.318 1
  23967858.681    19161814.152 3  14931249.802 1
  22136088.105   -15065135.634 4 -11739032.668 2
  22115606.296     5654397.245 3   4406024.408 2
 91  4  6 22 39 15.0020000  0  6 11 16 06 18 02 19
  24084979.831    -2275948.035 3  -1773429.238 2
  24798195.672     -586060.931 2   -456677.547 1
  23797800.236    -7063429.317 2  -5503932.468 1
  23979353.035    19222214.407 3  14978314.799 1
  22134151.131   -15075319.766 4 -11746968.303 2
  22120215.597     5678648.531 3   4424921.496 2
 91  4  6 22 39 30.0020000  0  6 11 16 06 18 02 19
  24091111.453    -2243727.311 3  -1748322.199 1
  24802432.934     -563751.879 2   -439293.901 1
  23793753.915    -7084681.623 2  -5520492.579 1
  23990854.264    19282647.598 3  15025405.433 1
  22132220.788   -15085445.773 4 -11754858.639 2
  22124835.995     5702942.193 3   4443851.601 2
 91  4  6 22 39 45.0020000  0  6 11 16 06 18 02 19
  24097260.805    -2211397.917 3  -1723130.485 2
  24806695.394     -541362.074 2   -421847.403 1
  23789702.532    -7105959.769 3  -5537072.829 1
  24002358.215    19343100.771 3  15072511.677 1
  22130301.194   -15095526.350 4 -11762713.581 2
  22129463.898     5727265.368 3   4462804.717 2
 91  4  6 22 40  0.0020000  0  6 11 16 06 18 02 19
  24103437.449    -2178938.969 3  -1697837.816 2
  24810974.327     -518870.585 2   -404321.614 1
  23785657.747    -7127242.282 3  -5553656.525 1
  24013865.447    19403595.069 2  15119649.940 1
  22128398.737   -15105540.257 4 -11770516.573 2
  22134103.492     5751639.327 3   4481797.397 2
 91  4  6 22 40 15.0020000  0  6 11 16 06 18 02 19
  24109638.349    -2146355.792 3  -1672448.324 1
  24815274.235     -496282.840 2   -386720.871 1
  23781604.235    -7148534.488 3  -5570247.732 1
  24025388.873    19464124.743 3  15166815.781 1
  22126505.528   -15115492.837 4 -11778271.772 2
  22138749.961     5776059.145 3   4500825.810 2
 91  4  6 22 40 30.0020000  0  6 11 16 06 18 02 19
  24115858.445    -2113655.493 3  -1646967.615 1
  24819592.152     -473606.098 2   -369050.698 1
  23777552.853    -7169843.317 3  -5586851.905 1
  24036910.204    19524682.410 3  15214003.428 2
  22124619.229   -15125391.202 4 -11785984.741 2
  22143406.622     5800517.520 3   4519884.257 2
 91  4  6 22 40 45.0020000  0  6 11 16 06 18 02 19
  24122111.521    -2080835.419 3  -1621393.532 1
  24823921.446     -450837.778 2   -351309.311 1
  23773491.245    -7191165.842 3  -5603466.755 1
  24048441.413    19585270.716 2  15261214.975 1
  22122746.437   -15135232.380 4 -11793653.130 2
  22148067.505     5825017.688 3   4538975.292 2
 91  4  6 22 41  0.0020000  0  6 11 16 06 18 02 19
  24128376.289    -2047894.165 3  -1595725.039 1
  24828269.657     -427976.442 2   -333495.270 1
  23769429.672    -7212500.330 2  -5620090.948 1
  24059980.439    19645890.905 3  15308451.331 1
  22120888.931   -15145014.913 4 -11801275.829 2
  22152742.488     5849561.417 3   4558100.258 2
 91  4  6 22 41 15.0020000  0  6 11 16 06 18 02 19
  24134665.312    -2014833.668 3  -1569963.620 1
  24832641.529     -405023.940 2   -315610.270 1
  23765368.972    -7233848.584 3  -5636725.827 1
  24071514.929    19706541.271 2  15355711.194 1
  22119035.019   -15154740.480 4 -11808854.139 2
  22157416.529     5874146.895 3   4577257.769 2
 91  4  6 22 41 30.0020000  0  6 11 16 06 18 02 19
  24140981.035    -1981651.190 3  -1544107.168 1
  24837024.501     -381977.764 2   -297652.279 1
  23761305.305    -7255207.510 3  -5653369.062 1
  24083065.053    19767224.290 2  15402996.552 1
  22117196.674   -15164406.198 4 -11816385.821 2
  22162108.893     5898777.155 3   4596450.152 2
 91  4  6 22 41 45.0020000  0  6 11 16 06 18 02 19
  24147321.048    -1948341.204 3  -1518151.335 1
  24841425.446     -358832.456 2   -279617.100 1
  23757238.322    -7276571.402 3  -5670016.138 1
  24094619.052    19827945.486 2  15450311.591 1
  22115369.148   -15174006.366 4 -11823866.413 2
  22166803.036     5923457.999 3   4615681.961 2
 91  4  6 22 42  0.0020000  0  6 11 16 06 18 02 19
  24153686.538    -1914887.341 3  -1492083.412 1
  24845853.368     -335571.558 2   -261491.732 1
  23753173.433    -7297923.662 2  -5686654.155 1
  24106187.743    19888721.493 2  15497669.363 1
  22113556.593   -15183524.512 4 -11831283.094 2
  22171508.592     5948206.344 3   4634966.369 2
 91  4  6 22 42 15.0020000  0  6 11 16 06 18 02 19
  24160078.134    -1881293.397 3  -1465906.326 1
  24850305.896     -312198.836 2   -243279.311 1
  23749110.639    -7319267.679 2  -5703285.760 1
  24117762.124    19949547.922 2  15545066.435 1
  22111761.734   -15192964.119 4 -11838638.576 3
  22176230.621     5973018.485 3   4654300.485 2
 91  4  6 22 42 30.0020000  0  6 11 16 06 18 02 19
  24166497.266    -1847574.202 3  -1439631.669 1
  24854770.116     -288729.204 2   -224991.335 1
  23745050.846    -7340618.075 2  -5719922.349 1
  24129340.099    20010410.078 2  15592491.336 1
  22109975.285   -15202339.759 4 -11845944.215 2
  22180964.621     5997879.895 3   4673672.998 2
 91  4  6 22 42 45.0020000  0  6 11 16 06 18 02 19
  24172939.538    -1813727.442 3  -1413257.590 1
  24859251.087     -265160.352 2   -206626.181 1
  23740988.958    -7361972.267 2  -5736561.899 1
  24140934.582    20071310.089 2  15639945.727 1
  22108205.310   -15211649.061 4 -11853198.160 2
  22185704.658     6022793.205 3   4693085.949 2
 91  4  6 22 43  0.0020000  0  6 11 16 06 18 02 19
  24179400.655    -1779751.266 3  -1386782.664 1
  24863764.167     -241490.434 2   -188182.081 1
  23736921.662    -7383328.399 2  -5753202.925 1
  24152526.657    20132249.772 2  15687431.024 1
  22106447.933   -15220890.081 4 -11860398.895 2
  22190452.758     6047760.466 3   4712540.932 2
 91  4  6 22 43 15.0020000  0  6 11 16 06 18 02 19
  24185890.252    -1745645.357 3  -1360206.642 1
  24868285.344     -217719.657 2   -169659.413 1
  23732857.680    -7404685.777 2  -5769844.948 1
  24164130.424    20193229.377 2  15734947.448 1
  22104699.840   -15230062.379 4 -11867546.084 2
  22195215.865     6072782.327 3   4732038.467 2
 91  4  6 22 43 30.0020000  0  6 11 16 06 18 02 19
  24192407.454    -1711407.031 3  -1333527.450 2
  24872823.902     -193844.925 2   -151055.847 1
  23728796.107    -7426041.483 2  -5786485.672 1
  24175746.475    20254251.444 2  15782496.980 1
  22102971.222   -15239163.095 4 -11874637.493 2
  22199988.883     6097861.828 3   4751580.915 2
 91  4  6 22 43 45.0030000  0  6 11 16 06 18 02 19
  24198950.399    -1677030.898 3  -1306740.860 1
  24877392.424     -169861.546 2   -132367.546 1
  23724731.519    -7447393.584 2  -5803123.550 1
  24187368.236    20315323.301 2  15830085.293 1
  22101251.314   -15248189.540 4 -11881671.033 3
  22204773.265     6123003.901 3   4771172.130 2
 91  4  6 22 44  0.0030000  0  6 11 16 06 18 02 19
  24205514.369    -1642522.810 3  -1279851.471 1
  24881970.873     -145773.953 2   -113598.091 1
  23720670.225    -7468740.101 2  -5819757.113 1
  24198992.978    20376435.513 2  15877705.032 1
  22099546.393   -15257141.407 4 -11888646.459 2
  22209571.446     6148204.229 3   4790808.728 2
 91  4  6 22 44 15.0030000  0  6 11 16 06 18 02 19
  24212111.912    -1607874.049 3  -1252852.439 1
  24886579.894     -121574.393 2    -94741.286 1
  23716606.523    -7490075.831 2  -5836382.254 1
  24210634.821    20437598.438 2  15925364.305 1
  22097861.853   -15266012.713 4 -11895559.108 2
  22214370.815     6173471.534 3   4810497.517 2
 91  4  6 22 44 30.0030000  0  6 11 16 06 18 02 19
  24218728.930    -1573086.826 3  -1225745.532 2
  24891207.168      -97265.087 2    -75799.120 1
  23712549.452    -7511402.681 2  -5853000.489 1
  24222285.668    20498809.544 2  15973061.130 1
  22096186.912   -15274805.439 4 -11902410.529 2
  22219199.883     6198803.680 3   4830236.833 2
 91  4  6 22 44 45.0030000  0  6 11 16 06 18 02 19
  24225377.428    -1538161.770 3  -1198531.240 1
  24895848.856      -72846.286 2    -56771.530 1
  23708495.661    -7532720.991 2  -5869612.074 1
  24233942.797    20560068.526 2  16020795.243 1
  22094528.792   -15283520.099 4 -11909201.118 2
  22224028.638     6224200.433 3   4850026.500 2
 91  4  6 22 45  0.0030000  0  6 11 16 06 18 02 19
  24232046.901    -1503101.740 3  -1171211.743 1
  24900513.928      -48321.061 2    -37661.005 1
  23704437.962    -7554033.286 2  -5886218.944 1
  24245609.524    20621372.259 2  16068564.216 1
  22092885.924   -15292159.275 4 -11915932.888 3
  22228874.459     6249659.197 3   4869864.483 2
 91  4  6 22 45 15.0030000  0  6 11 16 06 18 02 19
  24238742.759    -1467907.778 3  -1143787.904 1
  24905210.165      -23690.488 2    -18468.538
  23700384.451    -7575340.521 2  -5902821.905 1
  24257278.345    20682719.695 2  16116367.294 1
  22091255.026   -15300723.921 4 -11922606.589 2
  22233729.912     6275179.108 3   4889750.109 2
 91  4  6 22 45 30.0030000  0  6 11 16 06 18 02 19
  24245463.815    -1432574.786 3  -1116255.701 1
  24909915.128        1050.529 2       810.105 1
  23696332.476    -7596637.139 2  -5919416.581 1
  24268969.049    20744115.919 2  16164208.303 1
  22089639.450   -15309208.809 4 -11929218.131 2
  22238605.119     6300765.659 3   4909687.657 2
 91  4  6 22 45 45.0030000  0  6 11 16 06 18 02 19
  24252216.351    -1397104.674 3  -1088616.681 2
  24914641.659       25899.708 2     20173.076 1
  23692279.872    -7617924.955 2  -5936004.409 1
  24280654.343    20805558.994 2  16212085.900 1
  22088039.754   -15317615.736 4 -11935768.928 2
  22243482.455     6326417.078 3   4929675.763 2
 91  4  6 22 46  0.0030000  0  6 11 16 06 18 02 19
  24258994.051    -1361494.914 3  -1060868.820 1
  24919385.570       50859.759 2     39622.368 1
  23688229.677    -7639200.989 2  -5952583.044 1
  24292355.866    20867051.294 2  16260001.785 1
  22086456.566   -15325941.777 4 -11942256.693 2
  22248372.669     6352136.340 3   4949716.732 2
 91  4  6 22 46 15.0030000  0  6 11 16 06 18 02 19
  24265796.948    -1325749.621 3  -1033015.364 1
  24924164.243       75926.352 2     59154.764 1
  23684183.390    -7660469.218 2  -5969155.592 1
  24304068.452    20928588.718 2  16307952.874 1
  22084888.349   -15334191.155 4 -11948684.731 2
  22253278.483     6377919.623 3   4969807.586 2
 91  4  6 22 46 30.0030000  0  6 11 16 06 18 02 19
  24272623.823    -1289868.339 3  -1005055.932 1
  24928946.265      101100.379 2     78770.817 1
  23680140.070    -7681728.723 2  -5985721.355 1
  24315787.041    20990171.518 2  16355939.303 1
  22083330.324   -15342363.082 4 -11955052.418 2
  22258205.552     6403767.771 3   4989948.972 2
 91  4  6 22 46 45.0030000  0  6 11 16 06 18 02 19
  24279475.860    -1253852.711 3   -976991.846 2
  24933762.700      126380.162 2     98469.235 1
  23676092.876    -7702980.978 2  -6002281.444 1
  24327514.320    21051798.353 2  16403960.030 1
  22081789.679   -15350458.881 4 -11961360.779 2
  22263127.840     6429679.339 3   5010139.787 2
 91  4  6 22 47  0.0030000  0  6 11 16 06 18 02 19
  24286358.191    -1217697.450 3   -948818.929 2
  24938600.459      151770.554 2    118253.899 1
  23672051.684    -7724220.425 2  -6018831.572 1
  24339256.886    21113474.116 2  16452018.929 1
  22080266.764   -15358473.159 4 -11967605.621 2
  22268079.828     6455660.047 3   5030384.477 2
 91  4  6 22 47 15.0030000  0  6 11 16 06 18 02 19
  24293264.813    -1181404.225 3   -920538.502 1
  24943445.128      177269.799 2    138123.330 1
  23668012.273    -7745448.369 2  -6035372.722 1
  24350999.451    21175197.199 2  16500114.684 1
  22078755.505   -15366407.211 4 -11973787.946 2
  22273030.315     6481708.508 3   5050681.961 2
 91  4  6 22 47 30.0030000  0  6 11 16 06 18 02 19
  24300195.132    -1144973.542 3   -892150.983 1
  24948318.834      202877.522 2    158077.378 1
  23663974.956    -7766665.027 2  -6051905.090 1
  24362748.334    21236967.165 2  16548246.933 1
  22077261.941   -15374261.502 4 -11979908.117 3
  22278005.651     6507824.493 3   5071032.063 2
 91  4  6 22 47 45.0030000  0  6 11 16 06 18 02 19
  24307156.896    -1108405.980 3   -863656.773 1
  24953208.769      228593.094 2    178115.385 1
  23659940.361    -7787870.723 2  -6068428.937 1
  24374515.784    21298783.422 2  16596415.280 1
  22075781.255   -15382036.355 4 -11985966.391 3
  22282984.617     6534007.747 3   5091434.583 2
 91  4  6 22 48  0.0030000  0  6 11 16 06 18 02 19
  24314139.356    -1071706.864 3   -835060.078 2
  24958125.054      254411.130 2    198233.232 1
  23655904.858    -7809070.606 3  -6084948.241 1
  24386287.142    21360640.230 2  16644615.287 1
  22074316.170   -15389737.267 4 -11991967.046 2
  22287979.742     6560253.108 3   5111885.491 2
 91  4  6 22 48 15.0030000  0  6 11 16 06 18 02 19
  24321147.922    -1034873.424 3   -806358.713 1
  24963062.942      280334.334 2    218433.106 1
  23651877.139    -7830261.443 3  -6101460.476 1
  24398061.188    21422540.534 2  16692849.074 1
  22072863.684   -15397361.009 4 -11997907.574 3
  22292985.093     6586563.786 3   5132387.305 2
 91  4  6 22 48 30.0030000  0  6 11 16 06 18 02 19
  24328178.650     -997915.701 3   -777560.487 1
  24968013.394      306352.828 2    238707.132 1
  23647838.949    -7851453.183 2  -6117973.432 1
  24409852.614    21484474.319 2  16741109.013 1
  22071429.450   -15404917.465 4 -12003795.670 3
  22298000.006     6612930.252 3   5152932.590 2
 91  4  6 22 48 45.0030000  0  6 11 16 06 18 02 19
  24335236.356     -960834.784 3   -748666.279 1
  24972978.260      332465.455 2    259054.583 1
  23643807.635    -7872646.425 3  -6134487.547 1
  24421646.448    21546440.404 2  16789394.112 1
  22070002.755   -15412407.473 4 -12009631.985 2
  22303030.520     6639351.594 3   5173520.638 2
 91  4  6 22 49  0.0030000  0  6 11 16 06 18 02 19
  24342316.258     -923630.268 3   -719675.796 1
  24977965.009      358672.538 2    279475.600 1
  23639774.540    -7893840.577 3  -6151002.365 1
  24433442.691    21608439.102 2  16837704.620 1
  22068590.439   -15419830.560 4 -12015416.164 3
  22308070.946     6665828.388 3   5194151.881 3
 91  4  6 22 49 15.0030000  0  6 11 16 06 18 02 19
  24349417.450     -886296.706 3   -690584.738 1
  24982977.828      384979.333 2    299974.370 1
  23635744.098    -7915029.903 3  -6167513.455 1
  24445244.308    21670475.776 2  16886044.718 1
  22067191.595   -15427181.149 4 -12021143.839 2
  22313118.246     6692366.387 3   5214830.822 2
 91  4  6 22 49 30.0030000  0  6 11 16 06 18 02 19
  24356547.713     -848838.206 3   -661396.306 1
  24987994.871      411382.054 2    320547.820 1
  23631711.318    -7936218.083 3  -6184023.635 1
  24457059.432    21732546.226 2  16934411.113 1
  22065806.257   -15434462.842 4 -12026817.839 2
  22318187.151     6718961.993 3   5235554.652 2
 91  4  6 22 49 45.0030000  0  6 11 16 06 18 02 19
  24363701.046     -811254.440 3   -632110.278 1
  24993046.988      437880.927 2    341196.190 1
  23627677.910    -7957404.632 3  -6200532.547 1
  24468879.058    21794650.743 2  16982804.096 1
  22064431.424   -15441675.317 4 -12032437.901 2
  22323250.332     6745615.733 3   5256323.796 2
 91  4  6 22 50  0.0030000  0  6 11 16 06 18 02 19
  24370877.797     -773547.867 3   -602728.551 2
  24998107.167      464473.668 2    361917.769 1
  23623648.689    -7978591.512 3  -6217041.693 1
  24480700.777    21856786.893 2  17031221.720 1
  22063070.656   -15448820.660 4 -12038005.655 2
  22328337.803     6772325.438 3   5277136.534 2
 91  4  6 22 50 15.0030000  0  6 11 16 06 18 02 19
  24378076.710     -735713.277 3   -573247.082 1
  25003179.666      491164.947 2    382716.080 1
  23619613.187    -7999773.349 3  -6233546.948 1
  24492532.967    21918960.142 2  17079668.223 1
  22061727.269   -15455893.567 4 -12043516.955 2
  22333427.997     6799096.591 3   5297997.154 2
 91  4  6 22 50 30.0030000  0  6 11 16 06 18 02 19
  24385300.507     -697751.556 3   -543666.548 1
  25008277.643      517953.910 2    403590.540 1
  23615585.188    -8020950.665 3  -6250048.653 1
  24504374.476    21981169.250 2  17128142.702 1
  22060395.014   -15462894.943 4 -12048972.524 2
  22338542.760     6825928.783 3   5318905.336 2
 91  4  6 22 50 45.0030000  0  6 11 16 06 18 02 19
  24392544.685     -659662.631 3   -513986.879 1
  25013391.185      544840.739 2    424541.215 2
  23611556.561    -8042123.200 3  -6266546.636 1
  24516215.670    22043414.212 2  17176645.067 1
  22059076.511   -15469824.412 4 -12054372.047 2
  22343655.709     6852822.236 3   5339861.262 2
 91  4  6 22 51  0.0030000  0  6 11 16 06 18 02 19
  24399819.158     -621451.351 3   -484211.877 1
  25018532.333      571820.626 2    445564.437 1
  23607528.562    -8063295.356 3  -6283044.351 1
  24528064.368    22105690.368 2  17225171.794 1
  22057769.734   -15476686.544 4 -12059719.120 3
  22348782.164     6879772.580 3   5360861.516 2
 91  4  6 22 51 15.0030000  0  6 11 16 06 18 02 19
  24407113.698     -583116.637 3   -454340.691 1
  25023684.579      598894.481 2    466660.850 1
  23603498.155    -8084465.590 3  -6299540.524 1
  24539925.351    22167998.731 2  17273723.623 1
  22056475.835   -15483479.864 4 -12065012.567 3
  22353916.995     6906781.306 3   5381907.259 2
 91  4  6 22 51 30.0030000  0  6 11 16 06 18 02 19
  24414431.342     -544660.657 3   -424375.021 1
  25028851.798      626060.460 2    487829.080 1
  23599470.435    -8105635.944 3  -6316036.828 1
  24551789.335    22230337.024 2  17322298.788 1
  22055197.816   -15490206.413 4 -12070253.986 2
  22359076.117     6933846.527 3   5402997.026 2
 91  4  6 22 51 45.0030000  0  6 11 16 06 18 02 19
  24421776.243     -506080.600 3   -394312.662 1
  25034041.493      653321.324 2    509071.213 1
  23595446.904    -8126803.285 3  -6332530.771 1
  24563656.041    22292708.089 2  17370899.441 1
  22053927.301   -15496863.207 4 -12075441.049 3
  22364232.273     6960971.296 3   5424133.193 2
 91  4  6 22 52  0.0030000  0  6 11 16 06 18 02 19
  24429139.746     -467380.799 3   -364157.008 1
  25039241.379      680672.367 2    530383.617 1
  23591412.902    -8147971.585 3  -6349025.469 1
  24575529.623    22355107.552 2  17419522.209 1
  22052676.853   -15503454.489 4 -12080577.067 3
  22369402.493     6988151.619 3   5445312.648 2
 91  4  6 22 52 15.0030000  0  6 11 16 06 18 02 19
  24436524.539     -428552.016 3   -333900.836 1
  25044463.182      708122.914 2    551773.555 1
  23587388.184    -8169131.248 3  -6365513.435 1
  24587414.303    22417544.587 2  17468174.297 1
  22051436.596   -15509970.664 4 -12085654.550 3
  22374589.186     7015397.184 3   5466542.941 2
 91  4  6 22 52 30.0030000  0  6 11 16 06 18 02 19
  24443939.625     -389598.804 3   -303547.686 1
  25049714.650      735668.515 2    573237.617 1
  23583361.372    -8190286.483 3  -6381997.920 2
  24599301.043    22480014.688 2  17516852.133 1
  22050210.753   -15516416.095 4 -12090676.920 3
  22379789.979     7042703.769 3   5487820.792 2
 91  4  6 22 52 45.0030000  0  6 11 16 06 18 02 19
  24451379.875     -350513.048 3   -273091.241 1
  25054975.088      763317.275 2    594782.001 1
  23579341.749    -8211428.757 3  -6398472.343 1
  24611195.041    22542525.804 2  17565561.916 1
  22048998.103   -15522782.345 4 -12095637.585 3
  22384998.276     7070079.805 3   5509152.753 2
 91  4  6 22 53  0.0030000  0  6 11 16 06 18 02 19
  24458839.005     -311299.799 3   -242535.521 1
  25060255.036      791063.782 2    616402.554 1
  23575317.031    -8232563.039 3  -6414940.520 1
  24623099.475    22605072.868 2  17614299.720 1
  22047798.924   -15529074.542 4 -12100540.544 3
  22390218.264     7097520.437 3   5530535.043 2
 91  4  6 22 53 15.0030000  0  6 11 16 06 18 02 19
  24466326.021     -271952.473 3   -211875.281 2
  25065557.180      818914.950 2    638104.701 1
  23571296.815    -8253682.399 3  -6431397.073 1
  24635011.133    22667662.518 2  17663070.701 1
  22046619.847   -15535285.937 4 -12105380.542 3
  22395454.446     7125032.552 3   5551973.051 2
 91  4  6 22 53 30.0030000  0  6 11 16 06 18 02 19
  24473840.015     -232475.883 3   -181114.326 1
  25070872.202      846865.760 2    659884.504 1
  23567278.413    -8274791.225 3  -6447845.438 1
  24646926.386    22730289.808 2  17711871.040 1
  22045450.055   -15541420.868 4 -12110160.961 3
  22400705.601     7152611.751 3   5573463.323 2
 91  4  6 22 53 45.0030000  0  6 11 16 06 18 02 19
  24481375.612     -192871.917 3   -150254.131 1
  25076206.105      874914.442 2    681740.502 1
  23563268.388    -8295890.977 3  -6464286.715 1
  24658845.827    22792953.117 2  17760699.376 1
  22044297.049   -15547481.118 4 -12114883.189 3
  22405963.072     7180256.600 3   5595004.743 2
 91  4  6 22 54  0.0030000  0  6 11 16 06 18 02 19
  24488937.559     -153132.462 2   -119288.316 1
  25081565.486      903068.827 2    703678.889 1
  23559256.583    -8316973.337 3  -6480714.427 1
  24670774.273    22855660.186 2  17809561.869 1
  22043158.736   -15553458.328 4 -12119540.713 2
  22411240.926     7207975.430 3   5616603.812 2
 91  4  6 22 54 15.0030000  0  6 11 16 06 18 02 19
  24496522.296     -113262.686 2    -88220.983 1
  25086941.689      931323.989 2    725695.903 1
  23555243.836    -8338043.168 3  -6497132.384 1
  24682721.320    22918405.866 2  17858454.468 1
  22042038.712   -15559357.646 4 -12124137.535 3
  22416523.874     7235763.299 3   5638256.680 2
 91  4  6 22 54 30.0030000  0  6 11 16 06 18 02 19
  24504138.828      -73257.505 2    -57048.143 1
  25092342.740      959684.915 2    747795.183 1
  23551237.719    -8359094.861 3  -6513536.209 1
  24694673.742    22981195.488 2  17907381.301 1
  22040931.565   -15565173.514 4 -12128669.329 3
  22421826.577     7263625.766 3   5659967.669 2
 91  4  6 22 54 45.0030000  0  6 11 16 06 18 02 19
  24511778.149      -33122.053 2    -25773.773 1
  25097756.077      988146.570 2    769973.013 1
  23547233.697    -8380133.373 3  -6529929.755 1
  24706627.350    23044023.942 2  17956338.384 1
  22039840.019   -15570910.909 4 -12133139.985 2
  22427141.913     7291557.934 3   5681732.982 2
 91  4  6 22 55  0.0030000  0  6 11 16 06 18 02 19
  24519436.945        7141.715 3      5600.576 1
  25103183.514     1016706.785 2    792227.632 1
  23543232.048    -8401160.352 3  -6546314.311 1
  24718591.464    23106889.048 2  18005324.051 1
  22038761.386   -15576571.741 4 -12137550.970 2
  22432469.813     7319558.214 3   5703551.357 2
 91  4  6 22 55 15.0030000  0  6 11 16 06 18 02 19
  24527126.314       47537.435 3     37077.710 1
  25108646.339     1045369.034 2    814561.797 1
  23539234.343    -8422171.712 3  -6562686.693 1
  24730555.892    23169794.436 2  18054341.012 1
  22037699.505   -15582152.071 4 -12141899.238 3
  22437811.534     7347630.637 3   5725425.953 2
 91  4  6 22 55 30.0030000  0  6 11 16 06 18 02 19
  24534835.471       88063.592 3     68656.534 1
  25114116.668     1074131.794 2    836974.276 1
  23535241.977    -8443168.556 3  -6579047.789 1
  24742541.888    23232738.427 2  18103388.070 1
  22036652.946   -15587653.056 4 -12146185.676 2
  22443172.102     7375773.946 3   5747355.792 2
 91  4  6 22 55 45.0030000  0  6 11 16 06 18 02 19
  24542574.643      128718.220 3    100335.426 1
  25119612.161     1102993.423 2    859463.714 1
  23531245.773    -8464152.637 3  -6595398.940 1
  24754525.790    23295719.290 2  18152463.930 1
  22035621.673   -15593076.606 4 -12150411.772 3
  22448535.391     7403986.640 3   5769339.702 2
 91  4  6 22 56  0.0030000  0  6 11 16 06 18 02 19
  24550331.160      169499.586 3    132113.097 1
  25125123.847     1131951.982 2    882028.761 1
  23527254.908    -8485125.262 3  -6611741.138 1
  24766516.602    23358735.299 2  18201567.140 1
  22034602.964   -15598424.256 4 -12154578.721 3
  22453921.157     7432267.260 3   5791376.534 2
 91  4  6 22 56 15.0030000  0  6 11 16 06 18 02 19
  24558117.377      210407.725 3    163989.530 1
  25130651.727     1161007.652 2    904669.496 1
  23523269.488    -8506086.082 3  -6628074.144 1
  24778514.290    23421786.317 2  18250697.645 1
  22033599.263   -15603695.688 4 -12158686.290 2
  22459313.239     7460616.235 3   5813466.632 2
 91  4  6 22 56 30.0030000  0  6 11 16 06 18 02 19
  24565926.349      251434.765 3    195958.636 1
  25136198.174     1190152.331 2    927379.548 1
  23519281.624    -8527042.569 2  -6644403.788 1
  24790520.389    23484864.483 2  18299849.293 1
  22032609.347   -15608898.584 4 -12162740.442 3
  22464720.294     7489026.027 3   5835604.113 2
 91  4  6 22 56 45.0030000  0  6 11 16 06 18 02 19
  24573754.238      292578.737 3    228018.836 1
  25141758.127     1219384.038 2    950157.389 1
  23515289.014    -8547996.361 2  -6660731.316 1
  24802524.080    23547967.857 2  18349020.602 1
  22031631.716   -15614034.669 4 -12166742.544 3
  22470138.447     7517494.919 3   5857787.646 2
 91  4  6 22 57  0.0030000  0  6 11 16 06 18 02 19
  24581607.604      333843.123 3    260172.889 1
  25147336.962     1248706.190 2    973005.718 1
  23511304.746    -8568943.655 3  -6677053.793 1
  24814537.368    23611100.063 2  18398214.386 1
  22030670.872   -15619100.229 4 -12170689.686 2
  22475569.478     7546026.841 3   5880020.306 2
 91  4  6 22 57 15.0030000  0  6 11 16 06 18 02 19
  24589480.444      375223.122 3    292417.023 1
  25152936.178     1278113.882 2    995920.727 1
  23507320.233    -8589889.002 3  -6693374.741 1
  24826564.128    23674256.083 2  18447426.675 1
  22029717.252   -15624099.795 4 -12174585.398 2
  22481002.324     7574617.327 3   5902298.585 2
 91  4  6 22 57 30.0030000  0  6 11 16 06 18 02 19
  24597376.388      416723.853 3    324755.237 1
  25158544.713     1307612.283 2   1018906.418
  23503333.870    -8610826.729 3  -6709689.761 1
  24838583.105    23737440.850 2  18496661.408 1
  22028780.106   -15629028.072 4 -12178425.557 3
  22486457.367     7603271.864 3   5924626.782 2
 91  4  6 22 57 45.0030000  0  6 11 16 06 18 02 19
  24605296.623      458346.863 2    357188.737 1
  25164178.411     1337203.356 2   1041964.299 1
  23499352.638    -8631755.071 3  -6725997.446 1
  24850611.994    23800656.091 2  18545919.882 1
  22027855.244   -15633883.509 4 -12182208.962 3
  22491923.752     7631992.204 3   5947006.247 2
 91  4  6 22 58  0.0030000  0  6 11 16 06 18 02 19
  24613238.427      500078.573 3    389706.933 1
  25169818.392     1366873.239 2   1065083.574 1
  23495368.684    -8652687.320 3  -6742308.211 1
  24862638.439    23863888.184 2  18595191.484 1
  22026943.261   -15638679.324 4 -12185945.915 3
  22497407.553     7660765.257 3   5969426.784 2
 91  4  6 22 58 15.0030000  0  6 11 16 06 18 02 19
  24621202.113      541921.146 2    422311.523 1
  25175488.072     1396623.867 2   1088265.766 1
  23491386.265    -8673620.724 3  -6758619.866 1
  24874685.302    23927139.431 2  18644477.975 1
  22026043.598   -15643412.954 4 -12189634.411 3
  22502886.293     7689593.530 3   5991890.364 2
 91  4  6 22 58 30.0030000  0  6 11 16 06 18 02 19
  24629189.776      583879.491 3    455006.290 1
  25181164.035     1426460.181 2   1111514.787 1
  23487400.809    -8694549.987 3  -6774928.288 1
  24886718.693    23990414.711 2  18693783.269 1
  22025154.718   -15648079.234 4 -12193270.418 2
  22508385.380     7718482.343 3   6014401.113 2
 91  4  6 22 58 45.0030000  0  6 11 16 06 18 02 19
  24637188.816      625945.578 2    487785.043 2
  25186855.004     1456374.172 2   1134824.254 1
  23483418.984    -8715483.012 3  -6791239.644 1
  24898761.333    24053705.885 2  18743100.844 1
  22024275.402   -15652686.162 4 -12196860.188 3
  22513888.062     7747423.817 3   6036952.886 2
 91  4  6 22 59  0.0030000  0  6 11 16 06 18 02 19
  24645218.778      668119.524 3    520647.831 1
  25192565.448     1486366.116 2   1158194.578 1
  23479435.937    -8736419.110 3  -6807553.390 1
  24910819.607    24117013.237 2  18792431.078 1
  22023414.094   -15657233.414 4 -12200403.453 3
  22519411.719     7776418.613 3   6059546.214 2
 91  4  6 22 59 15.0030000  0  6 11 16 06 18 02 19
  24653262.805      710403.495 3    553596.350 1
  25198284.897     1516437.965 2   1181627.013 1
  23475449.888    -8757355.824 3  -6823867.611 1
  24922865.563    24180338.828 2  18841775.583 1
  22022558.510   -15661718.699 4 -12203898.427 3
  22524934.504     7805469.023 3   6082182.876 2
 91  4  6 22 59 30.0030000  0  6 11 16 06 18 02 19
  24661331.716      752797.812 3    586630.868 1
  25204027.415     1546590.428 2   1205122.389 1
  23471465.340    -8778292.355 3  -6840181.687 1
  24934912.425    24243683.190 2  18891134.658 1
  22021716.991   -15666141.223 4 -12207344.508 2
  22530476.763     7834575.908 3   6104863.549 2
 91  4  6 22 59 45.0030000  0  6 11 16 06 18 02 19
  24669418.914      795306.337 2    619754.364 1
  25209780.437     1576827.147 2   1228683.363 1
  23467486.481    -8799224.562 3  -6856492.423 1
  24946978.762    24307050.006 2  18940511.216 1
  22020885.941   -15670497.039 4 -12210738.598 3
  22536024.152     7863743.329 3   6127591.391 2
 91  4  6 23  0  0.0030000  0  6 11 16 06 18 02 19
  24677533.405      837933.386 3    652970.238 1
  25215549.340     1607152.257 2   1252313.202 1
  23463497.466    -8820147.694 3  -6872796.073 1
  24959037.630    24370443.440 2  18989908.532 1
  22020071.714   -15674781.455 4 -12214077.051 3
  22541590.388     7892976.141 3   6150370.185 2
 91  4  6 23  0 15.0030000  0  6 11 16 06 18 02 19
  24685665.870      880677.749 3    686277.470 1
  25221332.935     1637564.350 2   1276010.834 1
  23459522.795    -8841062.732 3  -6889093.426 1
  24971108.749    24433862.135 2  19039325.522 1
  22019270.959   -15678995.487 4 -12217360.670 3
  22547163.813     7922273.336 3   6173199.144 2
 91  4  6 23  0 30.0030000  0  6 11 16 06 18 02 19
  24693822.311      923540.813 2    719677.253 1
  25227134.504     1668065.012 2   1299777.405 1
  23455544.564    -8861967.811 3  -6905383.007 1
  24983181.717    24497307.974 2  19088763.657 1
  22018482.209   -15683137.523 4 -12220588.176 3
  22552751.651     7951636.665 3   6196079.638 2
 91  4  6 23  0 45.0030000  0  6 11 16 06 18 02 19
  24702002.449      966515.908 3    753164.322 1
  25232954.396     1698647.619 2   1323607.914 1
  23451564.519    -8882869.230 3  -6921669.741 1
  24995258.559    24560774.147 2  19138217.701 1
  22017708.152   -15687213.951 4 -12223764.574 2
  22558352.089     7981059.884 3   6219006.810 2
 91  4  6 23  1  0.0030000  0  6 11 16 06 18 02 19
  24710198.188     1009603.986 3    786739.425 1
  25238792.855     1729313.299 2   1347503.155
  23447589.883    -8903765.493 3  -6937952.471 1
  25007341.369    24624261.735 2  19187688.356 1
  22016943.379   -15691223.565 4 -12226888.900 2
  22563959.089     8010544.330 3   6241981.684 2
 91  4  6 23  1 15.0030000  0  6 11 16 06 18 02 19
  24718420.591     1052804.332 2    820402.032 1
  25244643.913     1760060.940 2   1371462.194 1
  23443613.711    -8924657.049 3  -6954231.489 1
  25019422.119    24687769.761 2  19237174.964 1
  22016194.520   -15695166.931 4 -12229961.604 3
  22569580.816     8040089.674 3   6265003.993 2
 91  4  6 23  1 30.0030000  0  6 11 16 06 18 02 19
  24726666.099     1096125.071 2    854158.418 1
  25250514.132     1790898.636 2   1395491.458
  23439638.482    -8945535.637 3  -6970500.437 1
  25031512.433    24751306.174 2  19286683.680 1
  22015454.631   -15699035.874 4 -12232976.316 3
  22575221.389     8069704.240 3   6288080.257 2
 91  4  6 23  1 45.0030000  0  6 11 16 06 18 02 19
  24734929.265     1139564.238 2    888007.096 1
  25256403.545     1821824.483 2   1419589.467 1
  23435668.941    -8966402.653 3  -6986760.360 2
  25043612.065    24814869.214 2  19336213.156 1
  22014734.216   -15702832.086 4 -12235934.364 3
  22580865.593     8099386.347 3   6311209.154 2
 91  4  6 23  2  0.0030000  0  6 11 16 06 18 02 19
  24743221.539     1183120.504 2    921947.038 1
  25262307.058     1852837.045 2   1443755.036 1
  23431699.365    -8987259.095 3  -7003012.035 2
  25055709.289    24878457.582 2  19385762.408 1
  22014027.622   -15706556.458 4 -12238836.431 2
  22586534.051     8129135.081 3   6334389.963 2
 91  4  6 23  2 15.0030000  0  6 11 16 06 18 02 19
  24751533.880     1226792.471 2    955977.102 1
  25268219.576     1883934.971 2   1467986.997 1
  23427731.919    -9008105.972 3  -7019256.275 1
  25067812.201    24942069.973 2  19435330.361 1
  22013329.404   -15710210.364 4 -12241683.588 3
  22592201.359     8158949.628 3   6357622.059 2
 91  4  6 23  2 30.0030000  0  6 11 16 06 18 02 19
  24759869.291     1270585.969 2    990101.909 1
  25274154.570     1915124.347 2   1492290.308 1
  23423772.848    -9028936.962 3  -7035488.121 1
  25079927.120    25005712.108 2  19484921.504 1
  22012646.751   -15713787.675 4 -12244471.055 2
  22597892.922     8188836.018 3   6380910.131 2
 91  4  6 23  2 45.0030000  0  6 11 16 06 18 02 19
  24768216.428     1314493.276 2   1024315.372 1
  25280109.945     1946397.267 2   1516658.759 1
  23419807.216    -9049759.446 3  -7051713.363 1
  25092042.352    25069376.160 2  19534529.639 1
  22011982.107   -15717295.844 4 -12247204.651 2
  22603589.545     8218786.750 3   6404248.331 2
 91  4  6 23  3  0.0030000  0  6 11 16 06 18 02 19
  24776597.733     1358518.526 2   1058620.724 1
  25286079.106     1977757.942 2   1541095.506 1
  23415846.052    -9070568.938 3  -7067928.451 1
  25104166.240    25133066.618 2  19584158.405 1
  22011326.782   -15720730.530 4 -12249880.988 3
  22609306.306     8248806.453 3   6427640.275 2
 91  4  6 23  3 15.0030000  0  6 11 16 06 18 02 19
  24784995.196     1402659.332 2   1093016.115 1
  25292060.866     2009203.750 2   1565598.558 1
  23411888.203    -9091367.414 3  -7084134.970 1
  25116288.348    25196780.977 2  19633805.770 1
  22010689.709   -15724093.928 4 -12252501.773 2
  22615027.535     8278893.109 3   6451084.410 2
 91  4  6 23  3 30.0030000  0  6 11 16 06 18 02 19
  24793413.670     1446909.924 2   1127497.089 1
  25298053.131     2040729.021 2   1590163.644 1
  23407933.635    -9112160.165 3  -7100337.039 2
  25128414.958    25260513.516 2  19683467.365 1
  22010057.453   -15727391.611 4 -12255071.359 3
  22620763.456     8309041.336 3   6474576.506 2
 91  4  6 23  3 45.0030000  0  6 11 16 06 18 02 19
  24801857.621     1491268.038 2   1162061.806 1
  25304066.651     2072331.321 2   1614788.691 1
  23403974.878    -9132949.155 3  -7116536.160 1
  25140544.255    25324261.617 2  19733141.104 1
  22009444.671   -15730625.498 4 -12257591.232 3
  22626509.604     8339249.126 3   6498115.025 2
 91  4  6 23  4  0.0030000  0  6 11 16 06 18 02 19
  24810321.360     1535731.003 2   1196708.246 1
  25310099.366     2104008.208 2   1639471.803 1
  23400021.217    -9153736.505 3  -7132734.019 2
  25152681.056    25388022.915 2  19782825.032 1
  22008839.986   -15733797.903 4 -12260063.193 2
  22632276.098     8369514.311 3   6521698.246 2
 91  4  6 23  4 15.0030000  0  6 11 16 06 18 02 19
  24818798.292     1580298.985 2   1231436.527 1
  25316134.210     2135759.831 2   1664213.223 1
  23396065.742    -9174521.791 3  -7148930.269 1
  25164819.044    25451797.554 2  19832519.403 1
  22008250.309   -15736908.466 4 -12262486.966 2
  22638040.812     8399837.296 3   6545326.516 2
 91  4  6 23  4 30.0030000  0  6 11 16 06 18 02 19
  24827301.330     1624976.978 2   1266250.517 1
  25322199.905     2167590.919 2   1689016.632 1
  23392112.395    -9195299.447 3  -7165120.569 1
  25176961.568    25515590.592 2  19882228.112 1
  22007668.100   -15739951.881 4 -12264858.419 3
  22643822.314     8430223.554 3   6569004.097 2
 91  4  6 23  4 45.0030000  0  6 11 16 06 18 02 19
  24835825.901     1669767.212 2   1301151.942 1
  25328263.193     2199503.914 2   1713883.750 1
  23388159.920    -9216066.910 3  -7181302.922 1
  25189101.650    25579404.553 2  19931953.095 1
  22007104.492   -15742925.895 4 -12267175.784 2
  22649614.913     8460675.689 3   6592733.015 2
 91  4  6 23  5  0.0030000  0  6 11 16 06 18 02 19
  24844372.982     1714663.646 2   1336136.176 1
  25334362.777     2231492.798 2   1738810.066 1
  23384209.261    -9236829.888 3  -7197481.757 1
  25201245.640    25643233.014 2  19981689.380 1
  22006549.575   -15745836.257 4 -12269443.573 3
  22655425.766     8491188.101 3   6616508.891 2
 91  4  6 23  5 15.0030000  0  6 11 16 06 18 02 19
  24852933.257     1759669.143 2   1371205.375 1
  25340465.956     2263560.505 2   1763797.731 1
  23380257.101    -9257585.064 3  -7213654.551 1
  25213392.632    25707078.953 2  20031439.273 1
  22006010.259   -15748679.860 4 -12271659.319 3
  22661240.563     8521763.924 3   6640334.177 2
 91  4  6 23  5 30.0030000  0  6 11 16 06 18 02 19
  24861517.542     1804781.631 2   1406357.956 1
  25346581.419     2295704.789 2   1788845.122 1
  23376309.722    -9278334.219 3  -7229822.639 1
  25225544.406    25770940.346 2  20081201.272 1
  22005479.040   -15751458.703 4 -12273824.606 3
  22667073.612     8552401.370 3   6664207.495 2
 91  4  6 23  5 45.0030000  0  6 11 16 06 18 02 19
  24870119.487     1850000.087 2   1441593.066 1
  25352705.294     2327924.278 2   1813951.100 1
  23372357.562    -9299077.952 3  -7245986.516 2
  25237700.402    25834816.352 2  20130974.619 1
  22004962.792   -15754173.445 4 -12275939.954 3
  22672915.072     8583099.623 3   6688128.177 2
 91  4  6 23  6  0.0030000  0  6 11 16 06 18 02 19
  24878747.817     1895329.079 2   1476914.351 1
  25358855.239     2360223.805 2   1839119.459 1
  23368417.966    -9319811.233 3  -7262142.222 1
  25249862.087    25898711.148 2  20180762.585 1
  22004458.830   -15756819.237 4 -12278001.571 3
  22678771.226     8613863.509 3   6712100.011 2
 91  4  6 23  6 15.0030000  0  6 11 16 06 18 02 19
  24887395.901     1940771.793 3   1512324.196 1
  25365022.844     2392606.581 2   1864352.684 1
  23364474.496    -9340530.436 3  -7278286.970 2
  25262022.271    25962628.094 2  20230567.790 1
  22003969.282   -15759392.560 4 -12280006.711 3
  22684634.848     8644697.086 3   6736126.142 2
 91  4  6 23  6 30.0030000  0  6 11 16 06 18 02 19
  24896062.307     1986324.481 3   1547819.797 1
  25371191.391     2425068.932 2   1889647.894 1
  23360534.341    -9361238.873 3  -7294423.324 1
  25274187.551    26026563.559 2  20280387.534 1
  22003494.391   -15761896.921 4 -12281958.121 3
  22690521.888     8675596.984 3   6760203.968 2
 91  4  6 23  6 45.0030000  0  6 11 16 06 18 02 19
  24904752.097     2031989.856 3   1583403.169 1
  25377389.604     2457613.543 2   1915007.203 1
  23356594.780    -9381933.434 3  -7310548.876 1
  25286364.208    26090520.379 2  20330223.800 1
  22003031.821   -15764329.483 4 -12283853.589 3
  22696408.615     8706566.082 3   6784335.705 2
 91  4  6 23  7  0.0030000  0  6 11 16 06 18 02 19
  24913466.771     2077763.036 3   1619070.550 1
  25383599.194     2490235.261 2   1940426.608 1
  23352659.686    -9402618.592 3  -7326667.093 2
  25298542.087    26154493.729 2  20380073.014 1
  22002579.721   -15766694.880 4 -12285696.699 3
  22702318.410     8737599.783 3   6808517.776 2
 91  4  6 23  7 15.0030000  0  6 11 16 06 18 02 19
  24922198.231     2123647.944 3   1654825.004 1
  25389817.789     2522937.938 2   1965909.123 1
  23348726.128    -9423289.921 3  -7342774.539 1
  25310714.242    26218487.382 2  20429938.060 1
  22002144.722   -15768988.814 4 -12287484.148 3
  22708233.301     8768702.444 3   6832753.600 2
 91  4  6 23  7 30.0030000  0  6 11 16 06 18 02 19
  24930951.575     2169649.024 3   1690669.946 1
  25396063.082     2555726.312 2   1991458.349 1
  23344797.944    -9443942.796 3  -7358867.591 2
  25322894.214    26282505.639 2  20479822.287 1
  22001722.915   -15771206.872 4 -12289212.459 3
  22714167.701     8799878.814 3   6857046.852 2
 91  4  6 23  7 45.0030000  0  6 11 16 06 18 02 19
  24939722.892     2215761.430 3   1726601.668 1
  25402315.251     2588595.463 2   2017070.594 1
  23340872.762    -9464581.493 3  -7374949.626 1
  25335087.694    26346543.998 2  20529722.112 1
  22001315.208   -15773353.511 4 -12290885.127 3
  22720112.886     8831124.400 3   6881394.032 2
 91  4  6 23  8  0.0030000  0  6 11 16 06 18 02 19
  24948523.281     2261986.494 3   1762621.154 2
  25408582.392     2621546.828 2   2042746.894 1
  23336941.577    -9485204.196 3  -7391019.167 2
  25347274.542    26410603.669 2  20579638.593 1
  22000917.971   -15775427.033 4 -12292500.820 3
  22726073.950     8862441.088 3   6905796.647 2
 91  4  6 23  8 15.0030000  0  6 11 16 06 18 02 19
  24957335.082     2308321.752 3   1798726.521 1
  25414874.452     2654577.748 2   2068485.103 1
  23333018.489    -9505812.918 3  -7407077.829 2
  25359465.299    26474682.293 2  20629569.810 1
  22000536.649   -15777429.641 4 -12294061.256 3
  22732042.832     8893826.800 3   6930253.002 2
 91  4  6 23  8 30.0030000  0  6 11 16 06 18 02 19
  24966175.677     2354764.668 2   1834915.772 1
  25421175.202     2687685.692 2   2094283.406 1
  23329098.088    -9526409.990 3  -7423127.405 2
  25371665.374    26538777.188 2  20679513.701 1
  22000167.019   -15779363.862 4 -12295568.406 3
  22738033.596     8925279.177 3   6954761.327 2
 91  4  6 23  8 45.0030000  0  6 11 16 06 18 02 19
  24975033.058     2401321.804 2   1871194.038 1
  25427480.733     2720877.378 2   2120146.926 1
  23325185.505    -9546988.191 3  -7439162.297 1
  25383866.008    26602895.244 2  20729475.694 1
  21999815.362   -15781222.708 4 -12297016.820 3
  22744028.235     8956805.142 3   6979326.984 2
 91  4  6 23  9  0.0030000  0  6 11 16 06 18 02 19
  24983912.008     2447984.386 2   1907554.457 1
  25433819.525     2754144.102 2   2146068.856 1
  23321271.735    -9567555.969 3  -7455189.037 2
  25396068.457    26667027.662 2  20779448.865 1
  21999476.583   -15783014.896 4 -12298413.296 3
  22750042.068     8988396.310 3   7003943.456 2
 91  4  6 23  9 15.0030000  0  6 11 16 06 18 02 19
  24992815.528     2494758.090 2   1944001.475 1
  25440166.134     2787491.147 2   2172053.403 1
  23317364.527    -9588107.211 3  -7471202.927 2
  25408277.816    26731180.042 2  20829437.545 1
  21999148.589   -15784734.374 4 -12299753.109 3
  22756068.501     9020058.774 3   7028615.477 2
 91  4  6 23  9 30.0030000  0  6 11 16 06 18 02 19
  25001739.465     2541643.219 2   1980535.299 1
  25446524.121     2820918.995 2   2198101.018 1
  23313454.631    -9608641.174 3  -7487203.324 1
  25420490.455    26795352.721 2  20879442.209 1
  21998832.321   -15786380.474 4 -12301035.750 3
  22762110.220     9051793.102 3   7053343.502 2
 91  4  6 23  9 45.0030000  0  6 11 16 06 18 02 19
  25010681.375     2588637.841 2   2017154.446 1
  25452900.117     2854425.486 2   2224209.788 1
  23309546.829    -9629159.432 3  -7503191.497 2
  25432709.691    26859543.599 2  20929460.869 1
  21998535.842   -15787955.036 4 -12302262.647 3
  22768155.220     9083597.706 3   7078126.284 2
 91  4  6 23 10  0.0030000  0  6 11 16 06 18 02 19
  25019642.167     2635740.234 2   2053857.563 1
  25459291.084     2888009.051 2   2250378.676 1
  23305648.939    -9649663.298 3  -7519168.455 2
  25444922.051    26923751.408 2  20979492.741 1
  21998248.926   -15789459.439 4 -12303434.870 3
  22774224.231     9115471.440 3   7102962.925 2
 91  4  6 23 10 15.0030000  0  6 11 16 06 18 02 19
  25028630.530     2682954.679 2   2090648.000 1
  25465698.874     2921674.004 2   2276610.981 1
  23301746.233    -9670147.810 3  -7535130.313 1
  25457146.976    26987980.041 2  21029540.889 1
  21997977.016   -15790889.001 4 -12304548.777 3
  22780302.526     9147419.004 3   7127857.109 2
 91  4  6 23 10 30.0030000  0  6 11 16 06 18 02 19
  25037634.493     2730275.828 2   2127521.616 1
  25472119.507     2955415.104 2   2302902.606 1
  23297849.843    -9690618.008 3  -7551081.048 2
  25469368.620    27052224.512 2  21079601.418 1
  21997717.985   -15792249.007 4 -12305608.487 3
  22786398.515     9179435.415 3   7152804.934 2
 91  4  6 23 10 45.0030000  0  6 11 16 06 18 02 19
  25046657.652     2777702.835 2   2164477.698 1
  25478551.274     2989231.213 2   2329252.710 1
  23293960.923    -9711074.424 3  -7567021.022 2
  25481602.863    27116484.049 2  21129673.575 1
  21997473.054   -15793540.196 4 -12306614.578 3
  22792498.099     9211520.112 3   7177805.967 2
 91  4  6 23 11  0.0030000  0  6 11 16 06 18 02 19
  25055703.600     2825237.239 2   2201517.440 1
  25485004.888     3023124.025 2   2355662.550 1
  23290070.222    -9731515.021 3  -7582948.684 1
  25493830.789    27180759.990 2  21179758.597 1
  21997240.443   -15794760.741 4 -12307565.614 3
  22798618.937     9243674.981 3   7202861.681 2
 91  4  6 23 11 15.0030000  0  6 11 16 06 18 02 19
  25064772.618     2872883.562 2   2238644.438 1
  25491462.131     3057098.014 2   2382135.616 1
  23286185.804    -9751934.774 3  -7598860.074 2
  25506062.030    27245056.822 2  21229859.875 1
  21997020.081   -15795905.672 4 -12308457.745 3
  22804750.595     9275904.929 3   7227975.893 2
 91  4  6 23 11 30.0030000  0  6 11 16 06 18 02 19
  25073852.420     2920634.024 2   2275852.564 1
  25497947.854     3091145.327 2   2408665.855 1
  23282302.293    -9772341.021 3  -7614760.972 2
  25518293.551    27309367.189 2  21279971.637 1
  21996815.635   -15796982.521 4 -12309296.810 3
  22810900.226     9308202.533 3   7253142.836 2
 91  4  6 23 11 45.0030000  0  6 11 16 06 18 02 19
  25082965.831     2968490.211 2   2313143.033 1
  25504435.635     3125267.421 2   2435254.395 1
  23278423.598    -9792731.827 3  -7630649.809 2
  25530544.267    27373692.491 2  21330095.067 1
  21996624.939   -15797989.550 4 -12310081.476 3
  22817057.989     9340569.596 3   7278363.890 2
 91  4  6 23 12  0.0030000  0  7 11 15 16 06 18 02 19
  25092089.398     3016449.858 2   2350514.181 1
  25839376.371           0.234 2         0.123 1
  25510952.524     3159462.331 2   2461899.636 1
  23274545.776    -9813108.936 3  -7646527.998 1
  25542788.387    27438030.556 2  21380228.454 1
  21996447.191   -15798928.715 4 -12310813.269 3
  22823234.319     9373004.421 3   7303637.763 2
 91  4  6 23 12 15.0030000  0  7 11 15 16 06 18 02 19
  25101239.071     3064510.373 2   2387963.879 1
  25835023.693      -22908.020 2    -17850.435 1
  25517467.911     3193727.076 2   2488599.290 1
  23270666.453    -9833474.604 3  -7662397.269 1
  25555037.009    27502378.692 2  21430369.717 1
  21996279.285   -15799802.405 4 -12311494.036 3
  22829413.616     9405504.601 3   7328962.549 2
 91  4  6 23 12 30.0030000  0  7 11 15 16 06 18 02 19
  25110398.341     3112671.629 2   2425492.111 1
  25830671.609      -45771.429 2    -35666.285 1
  25524007.590     3228061.730 2   2515353.447 1
  23266797.321    -9853828.457 3  -7678257.336 2
  25567285.631    27566736.651 2  21480518.590 1
  21996127.607   -15800610.409 4 -12312123.615 3
  22835612.143     9438070.376 3   7354338.443 2
 91  4  6 23 12 45.0030000  0  7 11 15 16 06 18 02 19
  25119584.869     3160930.892 2   2463096.716 1
  25826321.619      -68591.706 2    -53448.146 1
  25530550.584     3262463.946 2   2542160.229 1
  23262926.094    -9874172.512 3  -7694109.767 2
  25579528.250    27631102.193 2  21530673.477 1
  21995984.585   -15801355.029 4 -12312703.804 3
  22841822.640     9470699.780 3   7379763.915 2
 91  4  6 23 13  0.0030000  0  7 11 15 16 06 18 02 19
  25128789.091     3209284.779 2   2500775.030 1
  25822001.608      -91371.737 2    -71198.773 1
  25537108.236     3296930.067 2   2569016.725 1
  23259050.680    -9894509.944 3  -7709957.023 1
  25591774.184    27695471.798 2  21580831.384 1
  21995853.604   -15802039.732 4 -12313237.314 3
  22848041.828     9503389.628 3   7405236.501 2
 91  4  6 23 13 15.0030000  0  7 11 15 16 06 18 02 19
  25138005.318     3257740.956 2   2538533.079 1
  25817658.214     -114103.268 2    -88911.502 1
  25543682.361     3331467.682 2   2595929.073 1
  23255182.770    -9914832.617 3  -7725792.788 2
  25604022.492    27759853.135 2  21630998.518 1
  21995738.782   -15802656.530 4 -12313717.902 3
  22854275.116     9536147.938 3   7430762.424 2
 91  4  6 23 13 30.0030000  0  7 11 15 16 06 18 02 19
  25147250.304     3306300.789 2   2576371.898 1
  25813352.582     -136784.220 2   -106584.812 1
  25550265.526     3366077.934 2   2622897.972 1
  23251320.548    -9935138.744 3  -7741615.671 2
  25616282.212    27824247.609 2  21681175.863 1
  21995634.429   -15803203.869 4 -12314144.364 3
  22860521.281     9568976.410 3   7456343.020 2
 91  4  6 23 13 45.0030000  0  7 11 15 16 06 18 02 19
  25156505.202     3354966.095 2   2614292.861 1
  25809051.173     -159411.991 2   -124217.004 1
  25556869.945     3400762.826 2   2649925.034 1
  23247459.513    -9955426.129 3  -7757423.944 1
  25628540.432    27888657.117 2  21731364.892 1
  21995542.990   -15803679.399 4 -12314514.881 3
  22866781.268     9601877.249 3   7481980.008 2
 91  4  6 23 14  0.0030000  0  7 11 15 16 06 18 02 19
  25165786.484     3403729.919 2   2652290.606 1
  25804748.229     -181993.045 2   -141812.637 1
  25563477.679     3435515.326 2   2677004.782 1
  23243602.980    -9975701.211 3  -7773222.638 1
  25640797.744    27953074.625 2  21781560.196 1
  21995464.150   -15804090.094 4 -12314834.872 3
  22873059.821     9634843.623 3   7507668.059 2
 91  4  6 23 14 15.0030000  0  7 11 15 16 06 18 02 19
  25175089.335     3452600.952 2   2690371.949 1
  25800462.106     -204517.867 2   -159364.246 1
  25570109.076     3470344.028 2   2704143.864 1
  23239750.356    -9995954.861 3  -7789004.623 2
  25653061.653    28017508.803 2  21831768.452 1
  21995401.190   -15804427.002 4 -12315097.362 3
  22879341.376     9667884.874 3   7533414.451 2
 91  4  6 23 14 30.0030000  0  7 11 15 16 06 18 02 19
  25184409.286     3501575.936 2   2728534.201 1
  25796190.083     -226988.997 2   -176874.111 1
  25576740.508     3505245.887 2   2731339.930 1
  23235898.918   -10016189.861 3  -7804772.072 2
  25665317.778    28081956.684 2  21881987.443 1
  21995349.642   -15804693.023 4 -12315304.620 3
  22885649.281     9700998.160 3   7559216.978 2
 91  4  6 23 14 45.0030000  0  7 11 15 16 06 18 02 19
  25193746.025     3550653.128 2   2766776.102 1
  25791915.618     -249407.401 2   -194342.774 1
  25583405.165     3540219.223 2   2758591.803 1
  23232050.796   -10036407.571 3  -7820526.064 2
  25677591.877    28146416.474 2  21932215.670 1
  21995310.658   -15804889.715 4 -12315457.866 3
  22891958.442     9734182.125 3   7585074.583 2
 91  4  6 23 15  0.0030000  0  7 11 15 16 06 18 02 19
  25203104.647     3599830.385 2   2805096.053 1
  25787653.472     -271774.474 1   -211771.519 1
  25590073.451     3575261.762 2   2785897.495 1
  23228207.455   -10056609.494 3  -7836267.743 2
  25689858.787    28210886.193 2  21982451.670 1
  21995285.495   -15805018.894 4 -12315558.488 3
  22898289.730     9767434.994 3   7610985.885 2
 91  4  6 23 15 15.0030000  0  7 11 15 16 06 18 02 19
  25212483.371     3649111.254 2   2843496.706 1
  25783413.523     -294085.943 2   -229156.909 1
  25596757.618     3610376.905 2   2813259.752 1
  23224364.708   -10076791.690 3  -7851994.058 2
  25702128.698    28275369.227 2  22032698.099 1
  21995276.491   -15805076.803 4 -12315603.580 3
  22904628.242     9800760.601 3   7636953.858 2
 91  4  6 23 15 30.0030000  0  7 11 15 16 06 18 02 19
  25221880.348     3698491.998 2   2881975.159 1
  25779190.326     -316344.996 2   -246501.482 1
  25603457.105     3645560.803 2   2840675.611 1
  23220530.651   -10096957.446 3  -7867707.565 2
  25714397.981    28339861.777 2  22082951.889 1
  21995281.272   -15805066.972 4 -12315595.876 3
  22910986.543     9834155.400 3   7662975.744 2
 91  4  6 23 15 45.0030000  0  7 11 15 16 06 18 02 19
  25231297.149     3747974.823 2   2920533.140 1
  25774954.285     -338548.681 2   -263802.868 1
  25610158.652     3680815.683 2   2868146.930 1
  23216695.407   -10117104.221 3  -7883406.269 2
  25726678.677    28404366.307 2  22133214.999 1
  21995292.964   -15804986.867 4 -12315533.430 3
  22917353.255     9867622.012 3   7689053.590 2
 91  4  6 23 16  0.0030000  0  7 11 15 16 06 18 02 19
  25240731.295     3797557.182 2   2959168.715 1
  25770736.777     -360698.794 2   -281062.567 1
  25616882.395     3716139.338 2   2895671.736 1
  23212863.758   -10137234.024 3  -7899091.743 2
  25738958.500    28468880.345 2  22183485.477 1
  21995322.350   -15804838.674 4 -12315417.919 3
  22923733.439     9901158.454 3   7715185.846 2
 91  4  6 23 16 15.0030000  0  7 11 15 16 06 18 02 19
  25250183.450     3847232.924 2   2997877.056 1
  25766532.496     -382800.718 2   -298284.687 1
  25623615.143     3751525.829 2   2923245.520 1
  23209036.018   -10157352.453 3  -7914768.378 2
  25751243.383    28533397.718 2  22233758.659 1
  21995361.019   -15804628.256 4 -12315253.928 3
  22930124.721     9934758.917 3   7741368.003 2
 91  4  6 23 16 30.0030000  0  7 11 15 16 06 18 02 19
  25259654.800     3897004.231 2   3036659.875 1
  25762344.095     -404851.406 2   -315466.903 1
  25630366.179     3786976.950 2   2950869.586 1
  23205210.058   -10177457.016 3  -7930434.195 2
  25763513.888    28597920.669 2  22284036.472 1
  21995412.288   -15804353.410 4 -12315039.731 3
  22936537.257     9968425.868 3   7767601.955 2
 91  4  6 23 16 45.0030000  0  7 11 15 16 06 18 02 19
  25269142.623     3946868.254 2   3075514.866 1
  25758150.912     -426853.316 2   -332611.078 1
  25637118.087     3822489.715 2   2978541.641 1
  23201385.005   -10197549.958 3  -7946090.969 2
  25775788.301    28662446.306 2  22334316.210 1
  21995478.250   -15804016.704 4 -12314777.323 3
  22942951.922    10002156.938 3   7793885.876 2
 91  4  6 23 17  0.0030000  0  7 11 15 16 06 18 02 19
  25278651.456     3996826.981 2   3114443.713 1
  25753964.291     -448803.363 2   -349714.870 1
  25643885.909     3858066.320 2   3006263.466 1
  23197564.454   -10217628.824 3  -7961736.770 2
  25788068.996    28726976.910 2  22384600.016 1
  21995553.181   -15803615.725 4 -12314464.843 3
  22949382.781    10035954.498 3   7820221.608 2
 91  4  6 23 17 15.0030000  0  7 11 15 16 06 18 02 19
  25288174.668     4046877.646 2   3153444.219 1
  25749810.371     -470703.680 2   -366779.964 1
  25650675.300     3893703.482 2   3034032.590 1
  23193748.685   -10237696.089 3  -7977373.534 2
  25800347.004    28791509.724 2  22434885.228 1
  21995639.839   -15803153.015 4 -12314104.256 3
  22955828.019    10069816.022 3   7846607.176 2
 91  4  6 23 17 30.0030000  0  7 11 15 16 06 18 02 19
  25297718.262     4097025.672 2   3192520.545 1
  25745648.669     -492548.254 2   -383801.556 1
  25657469.508     3929406.926 2   3061853.340 1
  23189930.228   -10257745.632 3  -7992996.491 2
  25812625.292    28856050.072 2  22485176.250 1
  21995740.876   -15802622.997 4 -12313691.220 3
  22962285.228    10103747.266 3   7873047.078 2
 91  4  6 23 17 45.0030000  0  7 11 15 16 06 18 02 19
  25307284.017     4147273.799 2   3231674.884 1
  25741501.625     -514333.779 2   -400777.176 1
  25664276.907     3965179.495 2   3089727.849 1
  23186120.497   -10277774.259 3  -8008603.141 1
  25824909.582    28920600.944 2  22535475.511 1
  21995857.478   -15802022.461 4 -12313223.243 3
  22968754.477    10137751.433 3   7899543.804 2
 91  4  6 23 18  0.0030000  0  7 11 15 16 06 18 02 19
  25316864.501     4197616.864 2   3270903.233 1
  25737368.401     -536064.639 2   -417710.219 1
  25671093.870     4001016.164 2   3117652.379 1
  23182311.603   -10297786.810 3  -8024197.278 2
  25837197.467    28985157.126 2  22585778.938 1
  21995983.992   -15801356.567 4 -12312704.326 3
  22975237.163    10171823.723 3   7926093.616 2
 91  4  6 23 18 15.0030000  0  7 11 15 16 06 18 02 19
  25326456.956     4248052.992 2   3310204.037 1
  25733234.863     -557741.905 2   -434601.410 1
  25677928.248     4036914.836 2   3145625.170 1
  23178504.244   -10317784.697 3  -8039779.974 2
  25849479.070    29049716.622 2  22636084.879 1
  21996123.384   -15800626.816 4 -12312135.656 3
  22981736.671    10205962.645 3   7952695.351 2
 91  4  6 23 18 30.0030000  0  7 11 15 16 06 18 02 19
  25336072.200     4298579.820 2   3349575.589 1
  25729128.583     -579367.075 2   -451452.025 1
  25684769.501     4072873.053 2   3173644.444 1
  23174704.390   -10337769.748 3  -8055352.678 2
  25861779.554    29114277.306 2  22686392.085 1
  21996273.282   -15799835.354 4 -12311518.907 3
  22988248.778    10240166.279 3   7979347.495 2
 91  4  6 23 18 45.0030000  0  7 11 15 16 06 18 02 19
  25345706.326     4349200.964 2   3389020.578 1
  25725027.432     -600935.940 2   -468258.836 1
  25691626.355     4108894.513 2   3201712.995 1
  23170900.905   -10357737.804 3  -8070912.141 2
  25874056.654    29178842.975 2  22736702.976 1
  21996437.279   -15798978.192 4 -12310850.953 3
  22994765.946    10274438.655 3   8006053.192 2
 91  4  6 23 19  0.0030000  0  7 11 15 16 06 18 02 19
  25355354.237     4399921.987 2   3428543.427 1
  25720928.655     -622442.217 2   -485016.795 1
  25698485.023     4144984.725 2   3229835.012 1
  23167111.242   -10377682.852 3  -8086453.670 2
  25886352.636    29243419.001 2  22787021.804 1
  21996613.875   -15798049.507 4 -12310127.270 3
  23001308.033    10308785.712 3   8032817.106 2
 91  4  6 23 19 15.0030000  0  7 11 15 16 06 18 02 19
  25365027.067     4450734.570 2   3468137.580 1
  25716848.480     -643893.576 2   -501731.998 1
  25705367.040     4181135.539 2   3258004.523 1
  23163315.261   -10397612.788 3  -8101983.432 2
  25898638.741    29307997.147 2  22837342.341 1
  21996804.222   -15797057.344 4 -12309354.130 3
  23007850.398    10343199.371 3   8059632.908 2
 91  4  6 23 19 30.0030000  0  7 11 15 16 06 18 02 19
  25374714.556     4501642.724 2   3507806.258 1
  25712780.311     -665285.006 2   -518400.517 1
  25712258.375     4217350.733 2   3286224.135 1
  23159524.096   -10417522.978 3  -8117497.806 2
  25910930.535    29372581.674 2  22887667.785 1
  21997005.388   -15795997.371 4 -12308528.139 3
  23014413.739    10377684.345 3   8086504.280 2
 91  4  6 23 19 45.0030000  0  7 11 15 16 06 18 02 19
  25384415.550     4552642.586 2   3547546.369 1
  25708716.609     -686619.535 2   -535024.656 1
  25719164.683     4253626.724 2   3314491.107 1
  23155742.215   -10437416.821 3  -8132999.441 2
  25923212.138    29437168.703 2  22937995.190 1
  21997217.653   -15794873.198 4 -12307652.134 3
  23020991.494    10412236.891 3   8113428.322 2
 91  4  6 23 20  0.0030000  0  7 11 15 16 06 18 02 19
  25394141.708     4603737.845 2   3587360.780 1
  25704680.234     -707893.191 2   -551601.438 1
  25726079.401     4289967.161 2   3342808.236 1
  23151957.647   -10457290.360 3  -8148485.261 2
  25935504.839    29501761.740 2  22988327.246 1
  21997444.296   -15793681.140 4 -12306723.222 3
  23027580.033    10446860.806 3   8140407.956 2
 91  4  6 23 20 15.0030000  0  7 11 15 16 06 18 02 19
  25403885.840     4654928.562 2   3627249.641 1
  25700631.819     -729105.155 2   -568130.022 1
  25732999.809     4326372.135 2   3371175.613 1
  23148179.954   -10477142.903 3  -8163954.723 2
  25947798.413    29566361.271 2  23038664.465 1
  21997686.819   -15792420.571 4 -12305740.925 3
  23034176.076    10481556.908 3   8167443.854 2
 91  4  6 23 20 30.0030000  0  6 11 15 16 06 02 19
  25413645.014     4706217.735 2   3667215.173 1
  25696611.009     -750251.569 2   -584607.584 1
  25739949.916     4362844.358 2   3399595.609 1
  23144412.173   -10496970.829 3  -8179404.991 2
  21997936.253   -15791088.375 4 -12304702.830 3
  23040797.282    10516328.655 3   8194538.670 2
 91  4  6 23 20 45.0030000  0  6 11 15 16 06 02 19
  25423421.848     4757603.112 2   3707255.677 1
  25692599.169     -771334.244 2   -601035.537 1
  25746904.805     4399381.748 2   3428066.298 1
  23140636.260   -10516776.169 3  -8194837.669 2
  21998204.253   -15789686.800 4 -12303610.656 3
  23047428.400    10551173.993 3   8221690.851 2
 91  4  6 23 21  0.0030000  0  6 11 15 16 06 02 19
  25433219.342     4809087.422 2   3747373.289 1
  25688595.461     -792349.475 2   -617410.877 1
  25753867.756     4435986.976 2   3456589.681 1
  23136872.667   -10536555.674 3  -8210250.204 2
  21998485.167   -15788212.666 4 -12302461.948 3
  23054072.396    10586095.939 3   8248902.718 2
 91  4  6 23 21 15.0030000  0  6 11 15 16 06 02 19
  25443036.346     4860670.193 2   3787567.643 1
  25684608.505     -813296.750 2   -633733.315 1
  25760847.529     4472659.663 2   3485165.620 1
  23133115.670   -10556309.220 3  -8225642.534 2
  21998779.552   -15786665.869 4 -12301256.627 3
  23060734.400    10621094.391 3   8276174.211 2
 91  4  6 23 21 30.0030000  0  6 11 15 16 06 02 19
  25452871.359     4912345.613 2   3827834.159 1
  25680640.779     -834181.372 2   -650006.856 1
  25767837.214     4509393.901 2   3513789.635 1
  23129360.767   -10576042.163 3  -8241018.788 2
  21999086.850   -15785052.003 4 -12299999.037 3
  23067411.377    10656163.949 3   8303501.115 2
 91  4  6 23 21 45.0030000  0  6 11 15 16 06 02 19
  25462720.715     4964112.937 2   3868172.264 1
  25676675.706     -855003.487 2   -666231.707 1
  25774837.055     4546188.854 2   3542461.255 1
  23125610.959   -10595754.681 3  -8256379.158 2
  21999406.434   -15783371.533 4 -12298689.546 3
  23074097.323    10691304.382 3   8330883.219 2
 91  4  6 23 22  0.0030000  0  6 11 15 16 06 02 19
  25472592.583     5015968.816 2   3908579.421 1
  25672727.455     -875765.590 2   -682409.846 1
  25781851.309     4583041.296 2   3571177.301 1
  23121862.967   -10615449.641 3  -8271725.821 2
  21999736.208   -15781627.810 4 -12297330.773 3
  23080794.403    10726512.582 3   8358318.145 2
 91  4  6 23 22 15.0030000  0  6 11 15 16 06 02 19
  25482474.362     5067915.002 2   3949056.972 1
  25668797.177     -896465.198 2   -698539.264 1
  25788872.439     4619952.941 2   3599939.445 1
  23118118.255   -10635124.932 3  -8287057.161 2
  22000082.769   -15779818.713 4 -12295921.060 3
  23087502.546    10761790.763 3   8385807.601 2
 91  4  6 23 22 30.0030000  0  5 11 15 06 02 19
  25492373.207     5119950.804 2   3989604.249 1
  25664856.394     -917102.393 2   -714620.012 1
  23114378.952   -10654780.869 3  -8302373.425 2
  22000437.707   -15777944.768 4 -12294460.809 3
  23094237.108    10797138.369 3   8413351.140 2
 91  4  6 23 22 45.0030000  0  5 11 15 06 02 19
  25502292.434     5172074.398 2   4030220.017 1
  25660938.995     -937678.284 2   -730653.025 1
  23110639.336   -10674418.446 3  -8317675.391 2
  22000806.744   -15776007.453 4 -12292951.183 3
  23100974.637    10832554.159 3   8440947.830 2
 91  4  6 23 23  0.0030000  0  5 11 15 06 02 19
  25512233.544     5224284.916 2   4070903.497 1
  25657043.513     -958193.096 2   -746638.449 1
  23106908.130   -10694038.253 3  -8332963.505 2
  22001186.879   -15774007.234 4 -12291392.545 3
  23107731.047    10868037.726 3   8468597.322 2
 91  4  6 23 23 15.0030000  0  5 11 15 06 02 19
  25522181.564     5276581.213 2   4111653.826 1
  25653136.898     -978647.085 2   -762576.521 1
  23103175.703   -10713640.762 3  -8348238.132 2
  22001580.207   -15771945.051 4 -12289785.625 3
  23114492.274    10903588.258 3   8496298.994 2
 91  4  6 23 23 30.0030000  0  5 11 15 06 02 19
  25532145.778     5328958.902 2   4152467.568 1
  25649270.488     -999043.983 2   -778470.026 1
  23099451.094   -10733230.161 3  -8363502.558 2
  22001982.260   -15769825.256 4 -12288133.807 3
  23121269.066    10939201.577 3   8524049.590 2
 91  4  6 23 23 45.0030000  0  5 11 15 06 02 19
  25542130.060     5381417.850 2   4193344.621 1
  25645393.573    -1019383.221 2   -794318.686 1
  23095723.169   -10752805.897 3  -8378756.329 2
  22002396.563   -15767647.496 4 -12286436.823 3
  23128056.363    10974878.072 3   8551849.419 2
 91  4  6 23 24  0.0030000  0  5 11 15 06 02 19
  25552131.129     5433958.068 2   4234284.985 1
  25641533.131    -1039663.918 2   -810121.678 1
  23092002.433   -10772367.376 3  -8393998.983 2
  22002823.151   -15765411.473 4 -12284694.444 3
  23134859.854    11010618.178 3   8579698.812 2
 91  4  6 23 24 15.0030000  0  5 11 15 06 02 19
  25562140.609     5486584.885 2   4275292.888 1
  25637693.106    -1059880.156 2   -825874.435 1
  23088280.511   -10791908.821 3  -8409226.044 2
  22003260.558   -15763111.569 4 -12282902.293 3
  23141670.848    11046427.508 3   8607602.170 2
 91  4  6 23 24 30.0030000  0  5 11 15 06 02 19
  25572171.971     5539293.065 2   4316364.116 1
  25633853.954    -1080036.454 2   -841580.487 1
  23084566.686   -10811435.008 3  -8424441.190 2
  22003707.842   -15760752.739 4 -12281064.212 3
  23148503.411    11082301.156 2   8635555.610 2
 91  4  6 23 24 45.0030000  0  5 11 15 06 02 19
  25582221.307     5592088.998 2   4357503.784 1
  25630028.901    -1100125.588 2   -857234.244 1
  23080857.049   -10830939.025 3  -8439639.066 2
  22004173.414   -15758328.314 4 -12279175.020 3
  23155337.196    11118245.992 3   8663564.529 2
 91  4  6 23 25  0.0030000  0  5 11 15 06 02 19
  25592285.022     5644969.161 2   4398709.043 1
  25626226.324    -1120150.353 2   -872837.799 1
  23077145.632   -10850423.901 3  -8454822.037 2
  22004644.989   -15755841.636 4 -12277237.333 3
  23162196.458    11154258.868 3   8691626.486 2
 91  4  6 23 25 15.0030000  0  5 11 15 06 02 19
  25602363.465     5697939.660 2   4439984.704 1
  25622419.559    -1140104.013 2   -888385.969 1
  23073443.498   -10869883.049 3  -8469984.959 2
  22005130.349   -15753286.360 4 -12275246.183 3
  23169057.499    11190346.208 3   8719746.454 2
 91  4  6 23 25 30.0030000  0  5 11 15 06 02 19
  25612461.068     5751002.927 2   4481332.656 1
  25618637.084    -1159983.313 2   -903876.233 1
  23069749.462   -10889313.542 3  -8485125.528 2
  22005629.216   -15750659.888 4 -12273199.558 3
  23175941.331    11226510.826 3   8747926.628 2
 91  4  6 23 25 45.0030000  0  5 11 15 06 02 19
  25622577.274     5804153.414 2   4522748.569 1
  25614874.992    -1179793.322 2   -919312.470 1
  23066056.298   -10908720.589 3  -8500247.847 2
  22006143.963   -15747967.341 4 -12271101.458 3
  23182839.856    11262747.477 3   8776162.938 2
 91  4  6 23 26  0.0030000  0  5 11 15 06 02 19
  25632706.043     5857390.201 2   4564231.720 1
  25611106.583    -1199533.802 2   -934694.536 1
  23062363.762   -10928104.320 3  -8515351.990 2
  22006664.119   -15745209.303 4 -12268952.311 3
  23189744.383    11299055.590 3   8804454.932 2
 91  4  6 23 26 15.0030000  0  5 11 15 06 02 19
  25642849.227     5910715.618 2   4605783.935 1
  25607375.691    -1219201.839 2   -950020.114 1
  23058679.916   -10947462.082 3  -8530435.918 2
  22007206.437   -15742383.300 4 -12266750.201 3
  23196669.572    11335437.842 3   8832804.700 2
 91  4  6 23 26 30.0030000  0  5 11 15 06 02 19
  25653018.201     5964126.124 2   4647402.472 1
  25603645.951    -1238800.557 2   -965291.744 1
  23054999.665   -10966796.750 3  -8545501.822 2
  22007756.537   -15739492.515 4 -12264497.629 3
  23203610.082    11371891.351 3   8861210.000 2
 91  4  6 23 26 45.0030000  0  5 11 15 06 02 19
  25663194.924     6017621.872 2   4689087.393 1
  25599925.530    -1258328.948 2   -980508.473 1
  23051328.105   -10986107.765 3  -8560549.314 2
  22008318.050   -15736536.551 4 -12262194.259 3
  23210556.281    11408416.486 3   8889671.101 2
 91  4  6 23 27  0.0030000  0  5 11 15 06 02 19
  25673392.378     6071203.516 2   4730839.290 1
  25596226.712    -1277785.658 2   -995669.493 1
  23047656.823   -11005393.959 3  -8575577.455 2
  22008895.443   -15733514.576 4 -12259839.454 3
  23217525.549    11445014.259 3   8918188.812 2
 91  4  6 23 27 15.0030000  0  5 11 15 06 02 19
  25683607.212     6124870.604 2   4772657.769 1
  25592526.359    -1297170.544 2  -1010774.507 1
  23043993.080   -11024655.332 3  -8590586.265 2
  22009479.153   -15730426.655 4 -12257433.264 3
  23224500.506    11481684.498 3   8946762.978 2
 91  4  6 23 27 30.0030000  0  5 11 15 06 02 19
  25693837.925     6178623.877 2   4814543.433 1
  25588850.016    -1316481.980 2  -1025822.296 1
  23040331.117   -11043890.424 3  -8605574.590 2
  22010083.838   -15727271.734 4 -12254974.865 3
  23231494.972    11518428.480 3   8975394.612 2
 91  4  6 23 27 45.0030000  0  6 11 15 13 06 02 19
  25704077.050     6232469.635 2   4856501.108 1
  25585200.618    -1335712.801 2  -1040807.222 2
  25671192.813           0.508 2         0.312 1
  23036677.530   -11063092.523 3  -8620537.194 2
  22010694.805   -15724043.365 4 -12252459.228 3
  23238496.906    11555252.808 3   9004088.847 2
 91  4  6 23 28  0.0030000  0  6 11 15 13 06 02 19
  25714349.435     6286404.619 2   4898528.322 1
  25581561.759    -1354865.637 2  -1055731.568 1
  25661359.022      -51681.123 2    -40270.919 1
  23033027.259   -11082264.424 3  -8635476.273 2
  22011322.594   -15720744.294 4 -12249888.505 3
  23245524.074    11592154.573 2   9032843.424 2
 91  4  6 23 28 15.0030000  0  6 11 15 13 06 02 19
  25724620.319     6340429.929 2   4940625.963 1
  25577911.173    -1373938.715 2  -1070593.954 1
  25651526.731     -103341.323 1    -80525.412 1
  23029386.271   -11101404.437 3  -8650390.499 2
  22011964.727   -15717373.409 4 -12247261.826 3
  23252561.398    11629135.354 3   9061659.575 2
 91  4  6 23 28 30.0030000  0  6 11 15 13 06 02 19
  25734924.498     6394540.086 2   4982789.708 1
  25574306.482    -1392936.942 2  -1085397.680
  25641708.506     -154985.108 2   -120767.418 1
  23025751.320   -11120517.772 3  -8665283.948 2
  22012618.587   -15713935.955 4 -12244583.267 3
  23259609.192    11666189.826 3   9090533.138 2
 91  4  6 23 28 45.0030000  0  6 11 15 13 06 02 19
  25745234.959     6448738.742 2   5025022.362 1
  25570706.257    -1411855.923 2  -1100139.584 1
  25631888.501     -206607.905 1   -160992.799 1
  23022118.709   -11139600.044 3  -8680153.190 2
  22013284.417   -15710427.911 4 -12241849.706 3
  23266676.809    11703321.984 3   9119467.267 2
 91  4  6 23 29  0.0030000  0  6 11 15 13 06 02 19
  25755564.301     6503028.761 2   5067326.238 1
  25567119.854    -1430691.825 2  -1114816.809 1
  25622059.805     -258206.012 1   -201198.966 1
  23018494.543   -11158647.860 3  -8694995.575 2
  22013970.036   -15706846.147 4 -12239058.704 3
  23273761.493    11740535.125 2   9148464.484 2
 91  4  6 23 29 15.0030000  0  6 11 15 13 06 02 19
  25765910.117     6557403.900 2   5109696.452 1
  25563553.518    -1449450.203 2  -1129433.701 1
  25612243.429     -309784.847 2   -241390.496 1
  23014874.844   -11177667.001 3  -8709815.612 2
  22014660.751   -15703196.435 4 -12236214.751 3
  23280851.900    11777823.461 3   9177520.282 2
 91  4  6 23 29 30.0040000  0  6 11 15 13 06 02 19
  25776279.057     6611874.918 2   5152141.385 1
  25559999.173    -1468124.254 2  -1143984.793 1
  25602427.005     -361340.252 2   -281563.298 1
  23011261.727   -11196650.970 3  -8724608.255 2
  22015368.866   -15699471.205 4 -12233311.950 3
  23287963.583    11815197.065 3   9206642.511 2
 91  4  6 23 29 45.0040000  0  6 11 15 13 06 02 19
  25786658.760     6666422.855 2   5194646.252 1
  25556465.225    -1486722.898 2  -1158477.035 1
  25592615.096     -412876.359 2   -321721.205 1
  23007652.534   -11215608.657 3  -8739380.403 2
  22016091.375   -15695682.625 4 -12230359.794 3
  23295089.658    11852639.557 2   9235818.435 2
 91  4  6 23 30  0.0040000  0  6 11 15 13 06 02 19
  25797057.380     6721052.609 2   5237214.870 1
  25552938.466    -1505245.277 2  -1172909.906 1
  25582812.471     -464394.377 2   -361865.241 1
  23004051.123   -11234539.379 3  -8754131.560 2
  22016826.762   -15691828.651 4 -12227356.678 3
  23302230.706    11890155.036 2   9265051.223 2
 91  4  6 23 30 15.0040000  0  6 11 15 13 06 02 19
  25807464.655     6775762.403 2   5279845.807 1
  25549421.898    -1523692.218 2  -1187284.156 1
  25573021.573     -515895.489 2   -401995.739 1
  23000451.527   -11253444.314 3  -8768862.605 2
  22017572.654   -15687910.976 4 -12224303.920 3
  23309384.947    11927742.023 2   9294339.733 2
 91  4  6 23 30 30.0040000  0  6 11 15 13 06 02 19
  25817889.031     6830552.878 2   5322539.668 1
  25545929.935    -1542062.620 2  -1201598.588 1
  25563230.954     -567378.281 2   -442112.422 1
  22996864.495   -11272322.359 3  -8783572.701 2
  22018330.517   -15683928.413 4 -12221200.606 3
  23316547.877    11965401.748 2   9323684.937 2
 91  4  6 23 30 45.0040000  0  6 11 15 13 06 02 19
  25828335.011     6885423.290 2   5365295.776 1
  25542438.845    -1560356.340 2  -1215853.319 1
  25553422.919     -618842.445 2   -482214.137 1
  22993274.497   -11291173.658 3  -8798261.970 2
  22019099.199   -15679881.537 4 -12218047.174 3
  23323727.630    12003133.734 2   9353086.428 2
 91  4  6 23 31  0.0040000  0  6 11 15 13 06 02 19
  25838785.492     6940367.826 2   5408109.697 1
  25538980.421    -1578578.736 2  -1230052.362 1
  25543629.613     -670293.022 2   -522305.326 1
  22989692.560   -11310003.665 3  -8812934.643 2
  22019878.945   -15675775.785 4 -12214847.864 3
  23330922.948    12040932.608 2   9382540.036 2
 91  4  6 23 31 15.0040000  0  6 11 15 13 06 02 19
  25849259.636     6995394.090 2   5450987.238 1
  25535534.631    -1596721.261 2  -1244189.359 1
  25533849.499     -721722.156 2   -562380.199 1
  22986114.847   -11328804.234 3  -8827584.373 2
  22020675.513   -15671603.349 4 -12211596.600 3
  23338126.049    12078805.924 2   9412051.676 2
 91  4  6 23 31 30.0040000  0  6 11 15 13 06 02 19
  25859748.160     7050487.959 2   5493917.471 1
  25532085.491    -1614797.130 2  -1258274.322 1
  25524066.941     -773142.931 2   -602448.579 1
  22982538.320   -11347588.914 3  -8842221.719 2
  22021474.139   -15667378.151 4 -12208304.227 3
  23345350.753    12116740.222 2   9441610.808 2
 91  4  6 23 31 45.0040000  0  6 11 15 13 06 02 19
  25870243.314     7105653.667 2   5536903.735 1
  25528662.177    -1632801.579 2  -1272303.616 1
  25514280.545     -824550.399 2   -642506.116 1
  22978968.389   -11366352.904 3  -8856842.944 2
  22022293.183   -15663095.746 4 -12204967.260 3
  23352578.458    12154740.065 2   9471221.035 2
 91  4  6 23 32  0.0040000  0  6 11 15 13 06 02 19
  25880752.812     7160898.430 2   5579951.592 1
  25525254.150    -1650726.869 2  -1286271.245 1
  25504508.807     -875936.653 2   -682547.534 1
  22975404.461   -11385088.611 3  -8871442.151 2
  22023120.916   -15658748.591 4 -12201579.852 3
  23359826.546    12192813.047 2   9500888.235 2
 91  4  6 23 32 15.0040000  0  6 11 15 13 06 02 19
  25891285.135     7216222.586 2   5623061.296 1
  25521860.187    -1668571.852 2  -1300176.355 1
  25494728.972     -927300.581 2   -722571.199 1
  22971842.314   -11403794.968 3  -8886018.460 2
  22023959.713   -15654336.050 4 -12198141.490 3
  23367085.697    12230959.984 2   9530613.069 2
 91  4  6 23 32 30.0040000  0  6 11 15 13 06 02 19
  25901824.334     7271623.424 2   5666230.761 1
  25518477.637    -1686338.511 2  -1314020.339 1
  25484956.048     -978644.043 2   -762579.266 1
  22968287.983   -11422474.330 3  -8900573.751 2
  22024812.645   -15649860.572 4 -12194654.081 3
  23374356.854    12269178.592 2   9560393.748 2
 91  4  6 23 32 45.0040000  0  6 11 15 13 06 02 19
  25912384.229     7327099.091 2   5709458.484 1
  25515106.464    -1704027.712 2  -1327804.039 1
  25475189.405    -1029968.172 2   -802572.255 1
  22964739.656   -11441127.797 3  -8915108.855 2
  22025673.360   -15645323.512 4 -12191118.688 3
  23381642.110    12307467.253 2   9590229.028 2
 91  4  6 23 33  0.0040000  0  6 11 15 13 06 02 19
  25922957.316     7382659.263 2   5752752.075 1
  25511759.268    -1721629.342 2  -1341519.425 1
  25465429.638    -1081262.909 2   -842541.981 1
  22961197.297   -11459745.391 3  -8929616.014 2
  22026552.327   -15640715.326 4 -12187527.879 3
  23388946.562    12345836.068 2   9620126.739 2
 91  4  6 23 33 15.0040000  0  6 11 15 13 06 02 19
  25933540.873     7438291.825 2   5796102.313 1
  25508426.486    -1739154.507 2  -1355175.279 1
  25455668.405    -1132539.276 2   -882497.499 1
  22957659.161   -11478338.623 3  -8944104.183 2
  22027438.833   -15636047.787 4 -12183890.817 3
  23396256.702    12384273.160 2   9650077.663 2
 91  4  6 23 33 30.0040000  0  6 11 15 13 06 02 19
  25944146.347     7494002.529 2   5839513.052 1
  25505098.799    -1756596.787 2  -1368766.619 1
  25445912.267    -1183790.951 2   -922433.644 1
  22954127.271   -11496901.220 3  -8958568.489 2
  22028341.498   -15631314.824 4 -12180202.772 3
  23403586.946    12422784.679 2   9680086.590 2
 91  4  6 23 33 45.0040000  0  6 11 15 13 06 02 19
  25954757.510     7549787.141 2   5882981.576 1
  25501804.652    -1773960.038 2  -1382296.296 1
  25436171.695    -1235021.358 2   -962353.353 1
  22950598.419   -11515436.853 3  -8973011.790 2
  22029254.668   -15626520.206 4 -12176466.691 3
  23410927.938    12461366.695 2   9710150.440 1
 91  4  6 23 34  0.0040000  0  6 11 15 13 06 02 19
  25965387.520     7605646.495 2   5926508.273 1
  25498506.665    -1791242.524 2  -1395762.960 1
  25426422.747    -1286228.902 2  -1002255.413 1
  22947074.382   -11533944.030 3  -8987432.916 2
  22030178.308   -15621662.732 4 -12172681.626 3
  23418281.565    12500020.514 2   9740270.248 2
 91  4  6 23 34 15.0040000  0  6 11 15 13 06 02 19
  25976031.978     7661575.375 2   5970089.200 1
  25495234.714    -1808448.824 2  -1409170.262 1
  25416688.806    -1337418.081 2  -1042143.065 1
  22943556.593   -11552427.611 3  -9001835.635 2
  22031113.081   -15616747.621 4 -12168851.643 3
  23425647.476    12538741.354 2   9770442.288 2
 91  4  6 23 34 30.0040000  0  6 11 15 13 06 02 19
  25986688.687     7717572.768 2   6013723.543 1
  25491978.958    -1825579.035 2  -1422518.406 1
  25406946.420    -1388589.117 2  -1082016.818 1
  22940045.748   -11570888.003 3  -9016220.311 2
  22032060.418   -15611775.521 4 -12164977.258 3
  23433033.455    12577528.586 2   9800666.049 2
 91  4  6 23 34 45.0040000  0  6 11 15 13 06 02 19
  25997361.589     7773648.685 2   6057419.030 1
  25488735.800    -1842622.867 2  -1435799.256 1
  25397214.887    -1439731.307 2  -1121868.091 1
  22936540.279   -11589314.745 3  -9030578.758 2
  22033018.261   -15606736.266 4 -12161050.548 3
  23440423.343    12616392.410 2   9830949.510 2
 91  4  6 23 35  0.0040000  0  6 11 15 13 06 02 19
  26008036.620     7829783.604 2   6101160.498 1
  25485502.868    -1859598.925 2  -1449027.228 1
  25387483.005    -1490863.537 2  -1161711.533 1
  22933032.680   -11607726.824 3  -9044925.771 2
  22033986.888   -15601649.033 4 -12157086.444 3
  23447836.614    12655313.528 2   9861277.606 2
 91  4  6 23 35 15.0040000  0  6 11 15 13 06 02 19
  26018732.312     7885982.190 2   6144951.558 1
  25482282.186    -1876501.744 2  -1462198.080 1
  25377755.032    -1541980.107 2  -1201542.479 1
  22929535.029   -11626118.896 3  -9059257.214 2
  22034964.205   -15596508.779 4 -12153081.039 3
  23455252.852    12694297.136 2   9891654.387 2
 91  4  6 23 35 30.0040000  0  6 11 15 13 06 02 19
  26029438.195     7942246.243 2   6188793.668 1
  25479090.890    -1893328.948 2  -1475310.065 1
  25368034.284    -1593078.516 2  -1241359.546 1
  22926038.249   -11644488.804 3  -9073571.368 2
  22035952.341   -15591313.487 4 -12149032.737 3
  23462690.728    12733345.437 2   9922081.583 2
 91  4  6 23 35 45.0040000  0  6 11 15 13 06 02 19
  26040165.053     7998574.086 2   6232685.456 1
  25475894.219    -1910081.495 2  -1488363.886 1
  25358306.904    -1644159.866 2  -1281163.427 1
  22922547.752   -11662837.542 3  -9087869.018 2
  22036952.727   -15586064.485 4 -12144942.581 3
  23470124.382    12772457.102 2   9952558.149 2
 91  4  6 23 36  0.0040000  0  6 11 15 13 06 02 19
  26050891.947     8054973.146 2   6276632.723 1
  25472717.617    -1926751.138 2  -1501353.082 1
  25348596.347    -1695216.007 2  -1320947.280 1
  22919059.070   -11681157.194 3  -9102144.034 2
  22037963.653   -15580754.022 4 -12140804.537 3
  23477582.291    12811639.928 2   9983090.162 2
 91  4  6 23 36 15.0040000  0  6 11 15 13 06 02 19
  26061639.187     8111447.022 2   6320638.332 1
  25469570.679    -1943333.499 2  -1514274.327 1
  25338886.662    -1746242.470 2  -1360708.266 1
  22915582.358   -11699443.426 3  -9116392.997 2
  22038984.735   -15575378.267 4 -12136615.618 3
  23485054.648    12850897.966 2  10013680.791 2
 91  4  6 23 36 30.0040000  0  6 11 15 13 06 02 19
  26072395.152     8167987.145 2   6364695.509 1
  25466436.062    -1959836.190 2  -1527133.462 1
  25329180.257    -1797247.063 2  -1400452.315 1
  22912106.589   -11717704.345 3  -9130622.230 2
  22040019.009   -15569945.443 4 -12132382.217 3
  23492543.444    12890223.071 2  10044323.668 2
 91  4  6 23 36 45.0040000  0  6 11 15 13 06 02 19
  26083172.686     8224594.777 2   6408805.344 1
  25463301.723    -1976257.455 2  -1539929.157 1
  25319476.296    -1848227.544 2  -1440177.576 1
  22908636.473   -11735938.223 4  -9144830.402 2
  22041061.974   -15564454.012 4 -12128103.157 3
  23500034.055    12929616.781 2  10075020.021 2
 91  4  6 23 37  0.0040000  0  6 11 15 13 06 02 19
  26093956.536     8281272.790 2   6452970.003 1
  25460190.768    -1992593.786 2  -1552658.620 1
  25309777.988    -1899180.708 2  -1479881.118 1
  22905173.268   -11754141.593 3  -9159014.805 2
  22042122.668   -15558900.946 4 -12123776.073 3
  23507546.862    12969082.231 2  10105772.269 1
 91  4  6 23 37 15.0040000  0  6 11 15 13 06 02 19
  26104749.356     8338008.830 2   6497179.885 1
  25457104.104    -2008856.711 2  -1565330.967 1
  25300093.501    -1950117.988 2  -1519572.690 1
  22901713.379   -11772326.397 4  -9173184.724 2
  22043186.328   -15553298.274 4 -12119410.328 3
  23515063.543    13008607.421 2  10136571.063 2
 91  4  6 23 37 30.0040000  0  6 11 15 13 06 02 19
  26115564.687     8394819.069 2   6541447.556 1
  25454026.130    -2025029.616 2  -1577933.106 1
  25290404.512    -2001022.666 2  -1559238.835 1
  22898260.679   -11790475.874 3  -9187327.130 2
  22044266.183   -15547629.667 4 -12114993.203 3
  23522602.736    13048208.873 2  10167429.269 2
 91  4  6 23 37 45.0040000  0  6 11 15 13 06 02 19
  26126387.487     8451693.756 2   6585765.451 1
  25450957.753    -2041121.641 2  -1590472.243 1
  25280723.027    -2051903.564 2  -1598886.426 1
  22894808.851   -11808599.393 3  -9201449.307 2
  22045355.914   -15541904.478 4 -12110531.995 3
  23530146.430    13087877.000 2  10198339.449 2
 91  4  6 23 38  0.0040000  0  6 11 15 13 06 02 19
  26137220.163     8508638.955 2   6630138.347 1
  25447919.985    -2057125.801 2  -1602942.893 1
  25271049.917    -2102753.981 2  -1638510.376 1
  22891368.436   -11826690.114 4  -9215545.920 2
  22046458.558   -15536116.279 4 -12106021.680 3
  23537712.879    13127618.387 2  10229306.699 2
 91  4  6 23 38 15.0040000  0  6 11 15 13 06 02 19
  26148072.663     8565656.998 2   6674567.984
  25444884.868    -2073038.880 2  -1615342.646 1
  25261377.995    -2153570.868 2  -1678108.175 1
  22887933.116   -11844745.345 4  -9229614.888 2
  22047572.580   -15530262.644 4 -12101460.392 3
  23545290.427    13167435.771 2  10260333.174 2
 91  4  6 23 38 30.0040000  0  6 11 15 13 06 02 19
  26158935.040     8622740.529 2   6719048.639 1
  25441872.542    -2088867.494 2  -1627676.464 1
  25251710.609    -2204360.647 2  -1717684.399 1
  22884503.485   -11862771.658 4  -9243661.320 2
  22048693.512   -15524350.560 4 -12096853.553 3
  23552876.699    13207322.244 2  10291413.489 2
 91  4  6 23 38 45.0040000  0  6 11 15 13 06 02 19
  26169810.923     8679894.019 2   6763583.811 1
  25438877.631    -2104606.599 2  -1639940.587 1
  25242048.877    -2255117.953 2  -1757235.695 1
  22881079.264   -11880763.963 4  -9257681.252 2
  22049832.418   -15518375.160 4 -12092197.375 3
  23560482.133    13247282.599 2  10322551.362 2
 91  4  6 23 39  0.0040000  0  6 11 15 13 06 02 19
  26180698.462     8737119.378 2   6808175.004 1
  25435892.597    -2120253.715 2  -1652133.071 1
  25232396.184    -2305840.454 2  -1796759.895 1
  22877661.639   -11898720.047 4  -9271672.971 2
  22050981.829   -15512334.433 4 -12087490.292 3
  23568102.259    13287318.987 2  10353748.490 2
 91  4  6 23 39 15.0040000  0  6 11 15 13 06 02 19
  26191603.418     8794415.048 2   6852820.956 1
  25432940.857    -2135809.697 2  -1664254.478 1
  25222754.834    -2356528.808 2  -1836257.111 1
  22874249.982   -11916640.854 4  -9285637.181 2
  22052140.838   -15506229.644 4 -12082733.296 3
  23575734.042    13327430.326 2  10385004.008 2
 91  4  6 23 39 30.0040000  0  6 11 15 13 06 02 19
  26202521.565     8851777.968 2   6897519.277 1
  25429999.867    -2151276.888 2  -1676306.750 1
  25213104.515    -2407185.432 2  -1875729.954 1
  22870844.327   -11934528.890 4  -9299575.857 2
  22053319.007   -15500063.588 5 -12077928.554 3
  23583382.647    13367614.003 2  10416315.924 2
 91  4  6 23 39 45.0040000  0  6 11 15 13 06 02 19
  26213451.404     8909215.504 2   6942275.861 1
  25427077.200    -2166647.211 2  -1688283.497 1
  25203477.893    -2457802.298 2  -1915171.835 1
  22867451.900   -11952376.258 4  -9313482.854 2
  22054504.400   -15493828.565 5 -12073070.069 3
  23591041.477    13407877.575 2  10447690.073 2
 91  4  6 23 40  0.0040000  0  6 11 15 13 06 02 19
  26224387.246     8966716.508 2   6987081.835 1
  25424165.911    -2181931.053 2  -1700192.857 1
  25193849.177    -2508389.555 2  -1954590.242 1
  22864060.625   -11970193.455 4  -9327366.339 2
  22055698.763   -15487535.310 5 -12068166.227 3
  23598720.341    13448210.317 2  10479118.118 1
 91  4  6 23 40 15.0040000  0  6 11 15 13 06 02 19
  26235345.250     9024285.775 2   7031940.972 1
  25421269.628    -2197122.905 2  -1712030.574 1
  25184230.303    -2558941.671 2  -1993981.660 1
  22860675.073   -11987975.215 4  -9341222.204 2
  22056910.820   -15481178.780 4 -12063213.068 3
  23606408.523    13488617.297 2  10510603.995 2
 91  4  6 23 40 30.0040000  0  6 11 15 13 06 02 19
  26246322.763     9081928.434 2   7076857.401 1
  25418398.509    -2212216.933 2  -1723792.039 1
  25174620.782    -2609452.946 2  -2033341.318 1
  22857300.620   -12005715.854 4  -9355046.033 2
  22058131.881   -15474753.619 4 -12058206.425 3
  23614119.181    13529104.007 2  10542152.019 2
 91  4  6 23 40 45.0040000  0  6 11 15 13 06 02 19
  26257296.961     9139634.875 2   7121823.421 1
  25415546.899    -2227222.159 2  -1735484.316 1
  25165013.041    -2659932.376 2  -2072676.176 1
  22853930.948   -12023424.576 4  -9368844.998 2
  22059365.507   -15468269.339 5 -12053153.727 3
  23621828.652    13569661.100 2  10573754.893 1
 91  4  6 23 41  0.0040000  0  6 11 15 13 06 02 19
  26268288.260     9197408.440 2   7166841.751 1
  25412707.539    -2242134.354 2  -1747104.068 1
  25155415.456    -2710375.655 2  -2111982.815 1
  22850567.593   -12041097.344 4  -9382615.942 2
  22060612.639   -15461722.197 4 -12048052.042 3
  23629560.879    13610292.421 2  10605415.598 2
 91  4  6 23 41 15.0040000  0  6 11 15 13 06 02 19
  26279293.030     9255250.696 2   7211913.620 1
  25409885.001    -2256951.331 2  -1758649.658 1
  25145828.691    -2760780.481 2  -2151259.524 1
  22847209.299   -12058731.960 4  -9396357.149 2
  22061870.591   -15455110.420 4 -12042899.987 3
  23637308.147    13650999.778 2  10637135.549 2
 91  4  6 23 41 30.0040000  0  6 11 15 13 06 02 19
  26290319.683     9313160.506 2   7257038.148 1
  25407083.753    -2271673.273 2  -1770121.190 1
  25136235.643    -2811147.184 2  -2190506.060 1
  22843864.825   -12076329.009 4  -9410069.086 2
  22063141.420   -15448434.609 4 -12037698.049 3
  23645075.169    13691782.510 2  10668914.240 2
 91  4  6 23 41 45.0040000  0  6 11 15 13 06 02 19
  26301355.061     9371135.764 2   7302213.680 1
  25404298.070    -2286301.853 2  -1781519.974 1
  25126657.881    -2861476.969 2  -2229724.134 1
  22840520.351   -12093889.988 4  -9423752.917 2
  22064422.406   -15441696.650 4 -12032447.679 3
  23652850.288    13732638.902 2  10700750.312 2
 91  4  6 23 42  0.0040000  0  6 11 15 13 06 02 19
  26312397.908     9429173.434 2   7347437.826 1
  25401538.178    -2300839.491 2  -1792847.929 1
  25117095.406    -2911772.223 2  -2268915.122 1
  22837185.440   -12111417.581 4  -9437410.730 2
  22065718.433   -15434899.332 5 -12027151.053 3
  23660636.471    13773566.021 2  10732641.522 2
 91  4  6 23 42 15.0040000  0  5 15 13 06 02 19
  25398789.699    -2315283.073 2  -1804102.533 1
  25107532.931    -2962030.019 2  -2308077.183 1
  22833856.846   -12128908.718 4  -9451040.143 2
  22067023.710   -15428040.010 5 -12021806.114 3
  23668434.694    13814566.815 2  10764590.104 2
 91  4  6 23 42 30.0040000  0  5 15 13 06 02 19
  25396054.971    -2329633.117 2  -1815284.275 1
  25097970.421    -3012250.701 2  -2347210.052 1
  22830534.848   -12146364.193 4  -9464641.769 2
  22068340.992   -15421119.757 5 -12016413.706 3
  23676254.171    13855640.290 2  10796595.362 1
 91  4  6 23 42 45.0040000  0  5 15 13 06 02 19
  25393350.536    -2343881.301 2  -1826386.682 1
  25088421.139    -3062426.295 2  -2386308.081 1
  22827221.261   -12163775.796 3  -9478209.185 2
  22069668.779   -15414130.745 4 -12010967.712 3
  23684084.747    13896794.359 2  10828663.385 1
 91  4  6 23 43  0.0040000  0  5 15 13 06 02 19
  25390644.322    -2358034.829 2  -1837415.306 1
  25078876.952    -3112563.866 2  -2425376.493
  22823914.829   -12181150.904 3  -9491748.190 2
  22071012.166   -15407080.382 4 -12005473.907 4
  23691930.016    13938021.454 2  10860788.348 2
 91  4  6 23 43 15.0040000  0  5 15 13 06 02 19
  25387973.461    -2372089.535 2  -1848366.898 1
  25069345.049    -3162658.605 2  -2464411.489 1
  22820617.715   -12198485.199 4  -9505255.381 2
  22072364.209   -15399964.831 4 -11999929.307 4
  23699785.790    13979325.580 2  10892973.310 1
 91  4  6 23 43 30.0040000  0  5 15 13 06 02 19
  25385318.201    -2386056.560 2  -1859250.200 1
  25059820.651    -3212721.884 2  -2503421.596 1
  22817325.382   -12215790.118 4  -9518739.676 2
  22073726.792   -15392795.738 4 -11994342.992 3
  23707664.319    14020695.225 2  10925209.313 2
 91  4  6 23 43 45.0040000  0  5 15 13 06 02 19
  25382673.446    -2399922.979 2  -1870055.106 1
  25050304.349    -3262741.023 2  -2542397.384 1
  22814038.459   -12233053.145 3  -9532191.325 2
  22075106.406   -15385560.739 4 -11988705.321 3
  23715546.478    14062142.598 2  10957505.892 2
 91  4  6 23 44  0.0040000  0  5 15 13 06 02 19
  25380059.543    -2413689.883 2  -1880782.494 1
  25040793.422    -3312716.903 2  -2581339.818 1
  22810761.448   -12250275.299 4  -9545611.141 2
  22076495.967   -15378261.347 4 -11983017.465 3
  23723450.484    14103666.522 2  10989862.147 2
 91  4  6 23 44 15.0040000  0  5 15 13 06 02 19
  25377463.649    -2427362.450 2  -1891436.331 1
  25031283.716    -3362654.373 2  -2620251.907 1
  22807488.590   -12267461.667 4  -9559003.053 2
  22077894.183   -15370902.850 4 -11977283.568 4
  23731363.215    14145261.804 2  11022273.960 1
 91  4  6 23 44 30.0040000  0  5 15 13 06 02 19
  25374873.757    -2440934.051 2  -1902011.537 1
  25021794.078    -3412547.009 2  -2659129.523 1
  22804225.050   -12284606.111 3  -9572362.306 2
  22079308.907   -15363479.234 5 -11971498.920 3
  23739289.139    14186934.363 2  11054746.032 2
 91  4  6 23 44 45.0040000  0  5 15 13 06 02 19
  25372312.030    -2454406.256 2  -1912509.211 1
  25012309.536    -3462396.152 2  -2697973.185 1
  22800973.202   -12301710.108 4  -9585690.050 2
  22080732.321   -15355992.431 4 -11965665.034 3
  23747239.633    14228682.533 2  11087277.026 1
 91  4  6 23 45  0.0040000  0  5 15 13 06 02 19
  25369771.558    -2467773.653 2  -1922925.287 1
  25002832.183    -3512196.427 2  -2736778.780 1
  22797726.449   -12318768.461 4  -9598982.220 2
  22082171.336   -15348437.504 4 -11959778.060 3
  23755199.131    14270511.043 2  11119870.603 2
 91  4  6 23 45 15.0040000  0  5 15 13 06 02 19
  25367246.127    -2481037.120 2  -1933260.346 1
  24993360.554    -3561948.539 2  -2775546.425 1
  22794487.514   -12335782.262 4  -9612239.673 2
  22083619.635   -15340815.717 4 -11953838.995 3
  23763176.288    14312418.710 2  11152525.858 2
 91  4  6 23 45 30.0040000  0  5 15 13 06 02 19
  25364729.073    -2494198.802 2  -1943516.127 1
  24983905.398    -3611654.673 2  -2814278.286 1
  22791257.828   -12352753.600 4  -9625464.041 2
  22085085.313   -15333129.496 5 -11947849.704 3
  23771161.264    14354403.072 2  11185240.871 1
 91  4  6 23 45 45.0040000  0  5 15 13 06 02 19
  25362253.376    -2507255.880 2  -1953690.403 1
  24974456.245    -3661311.961 2  -2852972.436 1
  22788038.053   -12369679.794 4  -9638653.224 2
  22086559.996   -15325376.483 4 -11941808.384 4
  23779165.714    14396466.691 2  11218017.649 1
 91  4  6 23 46  0.0040000  0  5 15 13 06 02 19
  25359784.589    -2520210.928 2  -1963785.129 1
  24965012.780    -3710922.893 2  -2891630.532 1
  22784824.910   -12386563.558 4  -9651809.356 2
  22088047.872   -15317559.770 4 -11935717.425 3
  23787185.764    14438606.628 2  11250853.897 1
 91  4  6 23 46 15.0040000  0  5 15 13 06 02 19
  25357346.968    -2533060.807 2  -1973797.909 1
  24955583.415    -3760484.239 2  -2930249.518 1
  22781621.015   -12403401.922 4  -9664930.106 2
  22089543.530   -15309676.521 4 -11929574.618 3
  23795220.821    14480825.819 2  11283751.881 1
 91  4  6 23 46 30.0040000  0  5 15 13 06 02 19
  25354918.665    -2545812.898 2  -1983734.505 1
  24946158.518    -3810003.262 2  -2968836.004 1
  22778423.123   -12420202.366 4  -9678021.308 2
  22091056.882   -15301734.629 5 -11923386.109 3
  23803265.127    14523116.391 2  11316705.524 2
 91  4  6 23 46 45.0040000  0  5 15 13 06 02 19
  25352512.525    -2558459.861 2  -1993589.161 1
  24936735.470    -3859472.892 2  -3007383.991 1
  22775235.422   -12436957.787 4  -9691077.425 2
  22092581.613   -15293727.143 4 -11917146.497 3
  23811330.443    14565485.167 2  11349720.087 1
 91  4  6 23 47  0.0040000  0  5 15 13 06 02 19
  25350127.673    -2571009.637 2  -2003368.124 1
  24927339.959    -3908900.901 2  -3045899.095 1
  22772055.818   -12453676.172 4  -9704104.695 2
  22094115.068   -15285662.399 4 -11910862.252 3
  23819410.453    14607923.882 2  11382789.150 1
 91  4  6 23 47 15.0040000  0  5 15 13 06 02 19
  25347753.013    -2583452.229 2  -2013063.544 1
  24917946.576    -3958277.109 2  -3084374.307 1
  22768884.345   -12470347.398 4  -9717095.199 2
  22095663.775   -15277530.493 4 -11904525.702 4
  23827490.462    14650442.420 2  11415920.398 2
 91  4  6 23 47 30.0040000  0  5 15 13 06 02 19
  25345408.925    -2595787.959 2  -2022675.781 1
  24908557.661    -4007602.030 2  -3122809.516 1
  22765719.713   -12486972.353 4  -9730049.664 2
  22097222.707   -15269332.488 4 -11898137.630 4
  23835605.267    14693039.774 2  11449113.072 2
 91  4  6 23 47 45.0040000  0  5 15 13 06 02 19
  25343071.468    -2608017.673 2  -2032205.289 1
  24899176.843    -4056876.291 2  -3161205.243 1
  22762562.620   -12503551.727 4  -9742968.612 2
  22098796.612   -15261069.630 4 -11891699.029 4
  23843719.130    14735714.983 2  11482366.394 1
 91  4  6 23 48  0.0040000  0  5 15 13 06 02 19
  25340770.238    -2620142.516 2  -2041653.118 1
  24889806.844    -4106101.117 2  -3199562.040 1
  22759414.182   -12520086.901 4  -9755853.113 2
  22100381.022   -15252743.430 4 -11885211.060 3
  23851858.504    14778466.456 2  11515679.160 1
 91  4  6 23 48 15.0040000  0  5 15 13 06 02 19
  25338485.516    -2632164.087 2  -2051020.449 1
  24880447.036    -4155277.606 2  -3237881.199 1
  22756276.249   -12536579.391 4  -9768704.359 2
  22101975.623   -15244355.660 4 -11878675.114 4
  23860008.349    14821292.560 2  11549050.098 2
 91  4  6 23 48 30.0040000  0  5 15 13 06 02 19
  25336211.892    -2644087.819 2  -2060311.585 1
  24871098.012    -4204411.216 2  -3276167.306 1
  22753146.134   -12553034.771 4  -9781526.687 2
  22103583.696   -15235912.418 5 -11872095.949 4
  23868172.015    14864187.288 2  11582474.478 2
 91  4  6 23 48 45.0040000  0  5 15 13 06 02 19
  25333968.841    -2655906.819 2  -2069521.130 1
  24861766.054    -4253495.015 2  -3314414.336
  22750024.988   -12569446.187 4  -9794314.750 2
  22105200.179   -15227406.951 4 -11865468.283 3
  23876343.463    14907157.298 2  11615957.548 1
 91  4  6 23 49  0.0040000  0  5 15 13 06 02 19
  25331737.517    -2667611.823 2  -2078641.856 1
  24852432.002    -4302519.801 2  -3352615.640
  22746913.439   -12585804.705 4  -9807061.607 2
  22106833.450   -15218830.653 4 -11858785.442 4
  23884550.580    14950211.421 2  11649506.137 1
 91  4  6 23 49 15.0040000  0  5 15 13 06 02 19
  25329533.136    -2679207.765 2  -2087677.514 1
  24843113.586    -4351490.309 2  -3390774.688 1
  22743808.173   -12602115.179 4  -9819771.031 2
  22108479.319   -15210188.597 5 -11852051.358 4
  23892750.786    14993344.546 2  11683116.306 1
 91  4  6 23 49 30.0040000  0  5 15 13 06 02 19
  25327347.042    -2690691.221 2  -2096625.582 1
  24833805.012    -4400402.970 2  -3428888.663 1
  22740713.726   -12618374.296 4  -9832440.421 2
  22110137.753   -15201477.945 5 -11845263.823 4
  23900975.597    15036559.481 2  11716790.199 2
 91  4  6 23 49 45.0040000  0  5 15 13 06 02 19
  25325184.925    -2702061.249 2  -2105485.284 1
  24824509.036    -4449257.009 2  -3466956.570 1
  22737630.656   -12634581.268 4  -9845069.193 2
  22111807.914   -15192698.201 5 -11838422.450 4
  23909217.510    15079856.946 2  11750528.416 1
 91  4  6 23 50  0.0040000  0  5 15 13 06 02 19
  25323039.037    -2713323.708 2  -2114261.114 1
  24815222.973    -4498058.179 2  -3504983.221 1
  22734555.405   -12650742.145 4  -9857662.051 2
  22113487.951   -15183855.438 5 -11831531.969 4
  23917467.484    15123230.743 2  11784326.118 1
 91  4  6 23 50 15.0040000  0  5 15 13 06 02 19
  25320919.778    -2724477.263 2  -2122952.123 1
  24805941.411    -4546804.959 2  -3542967.915 1
  22731489.122   -12666855.664 4  -9870218.000 2
  22115183.588   -15174948.735 5 -11824591.672 4
  23925735.467    15166681.832 2  11818184.023 2
 91  4  6 23 50 30.0040000  0  5 15 13 06 02 19
  25318816.154    -2735524.738 2  -2131560.431 1
  24796673.636    -4595500.382 2  -3580912.254 1
  22728429.436   -12682924.720 4  -9882739.294 2
  22116891.197   -15165981.322 4 -11817604.060 3
  23934020.830    15210206.913 2  11852099.593 1
 91  4  6 23 50 45.0040000  0  5 15 13 06 02 19
  25316736.786    -2746464.184 2  -2140084.651 1
  24787418.738    -4644141.872 2  -3618814.892 1
  22725381.441   -12698947.170 4  -9895224.286 2
  22118607.810   -15156951.415 5 -11810567.756 4
  23942317.571    15253807.863 2  11886074.288 1
 91  4  6 23 51  0.0040000  0  5 15 13 06 02 19
  25314673.019    -2757294.646 2  -2148523.869 1
  24778182.408    -4692728.995 2  -3656674.772 1
  22722343.637   -12714922.556 4  -9907672.600 2
  22120337.301   -15147858.786 4 -11803482.578 4
  23950626.911    15297485.092 2  11920108.415 2
 91  4  6 23 51 15.0040000  0  5 15 13 06 02 19
  25312636.229    -2768015.499 2  -2156877.671 1
  24768936.829    -4741260.878 2  -3694492.067 1
  22719310.650   -12730850.317 4  -9920083.826 2
  22122080.892   -15138703.086 5 -11796348.255 4
  23958951.573    15341238.885 2  11954202.214 1
 91  4  6 23 51 30.0040000  0  5 15 13 06 02 19
  25310616.541    -2778616.183 2  -2165137.803 1
  24759718.193    -4789726.842 2  -3732257.989 1
  22716291.134   -12746719.873 4  -9932449.664 2
  22123838.582   -15129474.030 4 -11789156.765 3
  23967295.987    15385079.516 2  11988363.676 1
 91  4  6 23 51 45.0040000  0  5 15 13 06 02 19
  25308615.699    -2789111.150 2  -2173315.645 1
  24750505.280    -4838140.992 2  -3769983.150
  22713279.436   -12762545.724 4  -9944781.454 2
  22125604.056   -15120186.646 4 -11781919.836 4
  23975654.816    15428992.151 2  12022581.244 2
 91  4  6 23 52  0.0040000  0  5 15 13 06 02 19
  25306639.183    -2799492.823 2  -2181405.245 1
  24741298.057    -4886495.839 2  -3807662.476 1
  22710279.115   -12778320.387 4  -9957073.358 2
  22127386.316   -15110833.537 5 -11774631.688 3
  23984027.117    15472984.030 2  12056860.597 1
 91  4  6 23 52 15.0040000  0  5 15 13 06 02 19
  25304682.734    -2809769.910 2  -2189413.266 1
  24732105.806    -4934799.863 2  -3845302.204 1
  22707281.482   -12794052.633 4  -9969332.222 2
  22129176.674   -15101423.765 4 -11767299.383 4
  23992403.919    15517046.112 2  12091194.623 1
 91  4  6 23 52 30.0040000  0  5 15 13 06 02 19
  25302751.170    -2819939.901 2  -2197337.811 1
  24722930.377    -4983050.664 2  -3882900.068 1
  22704300.636   -12809740.048 4  -9981556.134 2
  22130978.129   -15091955.371 5 -11759921.400 4
  24000807.979    15561180.623 2  12125585.064 1
 91  4  6 23 52 45.0040000  0  5 15 13 06 02 19
  25300836.113    -2830000.741 2  -2205177.390 1
  24713759.135    -5031245.975 2  -3920454.660 1
  22701321.604   -12825380.528 4  -9993743.492 2
  22132790.404   -15082426.475 5 -11752496.281 4
  24009220.170    15605389.396 2  12160033.399 2
 91  4  6 23 53  0.0040000  0  5 15 13 06 02 19
  25298943.218    -2839949.873 2  -2212929.853 1
  24704598.050    -5079383.126 2  -3957963.885 1
  22698354.265   -12840971.624 4 -10005892.350 2
  22134616.709   -15072834.956 4 -11745022.356 3
  24017650.336    15649674.592 2  12194541.256 1
 91  4  6 23 53 15.0040000  0  5 15 13 06 02 19
  25297068.611    -2849792.613 2  -2220599.414 1
  24695447.191    -5127467.451 2  -3995431.965 1
  22695399.803   -12856518.883 4 -10018007.073 2
  22136452.367   -15063186.678 4 -11737504.194 4
  24026087.376    15694030.618 2  12229104.315 2
 91  4  6 23 53 30.0040000  0  5 15 13 06 02 19
  25295214.072    -2859517.846 2  -2228177.480 1
  24686305.929    -5175488.007 2  -4032850.820 1
  22692447.157   -12872011.396 4 -10030079.108 2
  22138299.682   -15053470.790 4 -11729933.370 4
  24034543.019    15738468.353 2  12263731.052 1
 91  4  6 23 53 45.0040000  0  5 15 13 06 02 19
  25293391.361    -2869132.229 2  -2235669.125 1
  24677178.453    -5223451.169 2  -4070224.528 1
  22689507.982   -12887455.746 4 -10042113.641 2
  22140161.970   -15043694.342 4 -11722315.344 4
  24043012.482    15782980.478 2  12298415.748 1
 91  4  6 23 54  0.0040000  0  5 15 13 06 02 19
  25291581.495    -2878637.843 2  -2243075.953 1
  24668065.042    -5271358.910 2  -4107555.484 1
  22686577.497   -12902854.123 4 -10054112.344 2
  22142030.888   -15033859.844 4 -11714652.088 4
  24051513.077    15827564.614 2  12333156.562 1
 91  4  6 23 54 15.0040000  0  5 15 13 06 02 19
  25289792.638    -2888030.118 2  -2250394.555 1
  24658961.543    -5319206.394 2  -4144839.455 1
  22683657.831   -12918201.882 4 -10066071.597 2
  22143915.372   -15023963.022 4 -11706940.271 4
  24059996.605    15872225.136 2  12367956.896 2
 91  4  6 23 54 30.0040000  0  5 15 13 06 02 19
  25288029.258    -2897315.171 2  -2257629.592 1
  24649867.955    -5367000.017 2  -4182081.113 1
  22680745.634   -12933505.326 4 -10077996.328 2
  22145810.361   -15014010.509 5 -11699185.055 4
  24068506.517    15916955.460 2  12402811.598 2
 91  4  6 23 54 45.0040000  0  5 15 13 06 02 19
  25286281.759    -2906490.756 2  -2264779.355 1
  24640773.739    -5414737.371 2  -4219278.968 1
  22677844.849   -12948762.252 4 -10089884.806 2
  22147713.447   -15004000.311 5 -11691384.884 3
  24077033.217    15961757.500 2  12437722.204 2
 91  4  6 23 55  0.0040000  0  5 15 13 06 02 19
  25284551.360    -2915556.931 2  -2271843.796 1
  24631710.724    -5462418.185 2  -4256433.048 1
  22674944.972   -12963972.750 4 -10101737.107 2
  22149627.945   -14993932.715 5 -11683539.984 4
  24085574.296    16006630.918 2  12472688.438 1
 91  4  6 23 55 15.0040000  0  5 15 13 06 02 19
  25282851.255    -2924512.884 2  -2278822.385 1
  24622643.801    -5510041.784 2  -4293542.162 1
  22672063.662   -12979136.072 4 -10113552.639 2
  22151556.508   -14983807.332 5 -11675650.074 4
  24094123.472    16051576.185 2  12507710.669 2
 91  4  6 23 55 30.0040000  0  5 15 13 06 02 19
  25281166.123    -2933357.329 2  -2285714.097 1
  24613592.757    -5557606.563 2  -4330605.463 1
  22669185.039   -12994251.086 4 -10125330.535 2
  22153493.447   -14973623.201 5 -11667714.374 4
  24102697.253    16096594.241 2  12542789.589 2
 91  4  6 23 55 45.0040000  0  5 15 13 06 02 19
  25279506.153    -2942092.988 2  -2292521.017 1
  24604556.406    -5605115.193 2  -4367625.338 1
  22666318.736   -13009320.431 4 -10137072.841 2
  22155443.614   -14963383.389 5 -11659735.292 4
  24111270.998    16141682.109 2  12577922.902 2
 91  4  6 23 56  0.0040000  0  5 15 13 06 02 19
  25277865.100    -2950713.445 2  -2299238.194 1
  24595520.683    -5652561.274 2  -4404596.086 1
  22663459.902   -13024337.982 4 -10148774.782 2
  22157402.157   -14953081.951 4 -11651708.188 4
  24119868.476    16186845.786 2  12613115.264 2
 91  4  6 23 56 15.0040000  0  5 15 13 06 02 19
  25276247.430    -2959224.257 2  -2305869.860 1
  24586508.309    -5699950.326 2  -4441522.863 1
  22660612.480   -13039309.219 4 -10160440.650 2
  22159374.485   -14942724.807 4 -11643637.673 4
  24128475.796    16232079.320 2  12648362.086 1
 91  4  6 23 56 30.0040000  0  5 15 13 06 02 19
  25274644.732    -2967626.597 2  -2312417.075 1
  24577497.156    -5747283.324 2  -4478405.547 1
  22657771.061   -13054235.268 4 -10172071.293 2
  22161357.004   -14932313.515 5 -11635524.965 4
  24137097.530    16277381.313 2  12683662.257 1
 91  4  6 23 56 45.0040000  0  5 15 13 06 02 19
  25273072.607    -2975912.009 2  -2318873.185 1
  24568505.163    -5794551.703 2  -4515237.832 1
  22654941.613   -13069107.745 4 -10183660.210 2
  22163347.934   -14921839.872 5 -11627363.672 4
  24145729.455    16322759.965 2  12719022.193 1
 91  4  6 23 57  0.0040000  0  5 15 13 06 02 19
  25271519.398    -2984086.986 2  -2325243.279 1
  24559516.486    -5841761.893 2  -4552024.785 1
  22652119.669   -13083933.439 4 -10195212.655 2
  22165351.743   -14911310.914 5 -11619159.275 4
  24154377.259    16368208.303 2  12754436.418 1
 91  4  6 23 57 15.0040000  0  5 15 13 06 02 19
  25269981.161    -2992149.118 2  -2331525.344 1
  24550547.319    -5888911.493 2  -4588764.570 1
  22649307.322   -13098709.938 4 -10206726.777 2
  22167367.243   -14900724.633 5 -11610910.212 4
  24163042.165    16413728.411 2  12789906.544 2
 91  4  6 23 57 30.0040000  0  5 15 13 06 02 19
  25268465.994    -3000098.907 2  -2337719.931 1
  24541583.805    -5936000.611 2  -4625457.161 1
  22646506.946   -13113437.606 4 -10218202.839 2
  22169393.562   -14890081.412 5 -11602616.779 4
  24171719.983    16459319.649 2  12825432.116 1
 91  4  6 23 57 45.0040000  0  5 15 13 06 02 19
  25266977.246    -3007933.823 2  -2343824.970 1
  24532634.705    -5983026.959 2  -4662100.869 1
  22643712.572   -13128114.099 4 -10229639.024 2
  22171428.537   -14879379.473 5 -11594277.599 4
  24180405.864    16504984.060 2  12861014.683 1
 91  4  6 23 58  0.0040000  0  5 15 13 06 02 19
  25265512.440    -3015659.542 2  -2349844.953 1
  24523701.206    -6029996.118 2  -4698700.049 1
  22640929.926   -13142745.208 4 -10241039.848 2
  22173474.924   -14868624.700 5 -11585897.247 4
  24189121.131    16550715.525 2  12896649.497 2
 91  4  6 23 58 15.0040000  0  5 15 13 06 02 19
  25264059.953    -3023275.800 2  -2355779.641 1
  24514769.766    -6076907.488 2  -4735254.146 1
  22638152.933   -13157330.537 4 -10252404.995 2
  22175532.688   -14857816.992 5 -11577475.644 4
  24197830.395    16596514.161 2  12932336.679 1
 91  4  6 23 58 30.0040000  0  5 15 13 06 02 19
  25262627.256    -3030777.132 2  -2361624.769 1
  24505858.742    -6123755.796 2  -4771759.081 1
  22635388.260   -13171864.951 4 -10263730.469 2
  22177599.771   -14846951.832 5 -11569009.273 4
  24206553.759    16642384.877 2  12968080.008 1
 91  4  6 23 58 45.0040000  0  5 15 13 06 02 19
  25261222.408    -3038169.416 2  -2367384.957 1
  24496953.407    -6170546.713 2  -4808219.366 1
  22632628.369   -13186354.277 4 -10275020.819 2
  22179677.045   -14836035.048 5 -11560502.685 4
  24215305.881    16688321.679 2  13003874.813 1
 91  4  6 23 59  0.0040000  0  5 15 13 06 02 19
  25259837.071    -3045455.720 2  -2373062.468 1
  24488056.170    -6217282.917 2  -4844637.004 1
  22629881.669   -13200801.340 4 -10286278.229 3
  22181761.788   -14825069.949 5 -11551958.444 3
  24224049.941    16734321.240 2  13039718.545 1
 91  4  6 23 59 15.0040000  0  5 15 13 06 02 19
  25258470.021    -3052625.595 2  -2378649.335 1
  24479177.813    -6263954.219 2  -4881004.068 1
  22627139.472   -13215196.085 4 -10297494.873 3
  22183861.538   -14814046.815 5 -11543368.970 4
  24232817.070    16780393.362 2  13075618.807 1
 91  4  6 23 59 30.0040000  0  5 15 13 06 02 19
  25257124.260    -3059685.595 2  -2384150.611 1
  24470306.366    -6310567.021 2  -4917325.553 1
  22624414.342   -13229544.968 4 -10308675.779 2
  22185967.884   -14802972.293 5 -11534739.472 4
  24241596.204    16826531.363 2  13111570.436 1
 91  4  6 23 59 45.0040000  0  5 15 13 06 02 19
  25255805.756    -3066630.135 2  -2389561.810 1
  24461451.986    -6357115.567 2  -4953597.395 1
  22621690.433   -13243842.561 4 -10319816.718 3
  22188086.794   -14791841.117 5 -11526065.816 4
  24250392.091    16872740.435 2  13147577.418 1
 91  4  7  0  0  0.0040000  0  5 15 13 06 02 19
  25254498.665    -3073464.303 2  -2394887.079 1
  24452598.514    -6403604.756 2  -4989822.582 1
  22618980.902   -13258093.795 4 -10330921.542 3
  22190214.150   -14780658.829 5 -11517352.337 4
  24259195.517    16919015.172 2  13183635.584 2
 91  4  7  0  0 45.0040000  0  5 15 13 06 02 19
  25250732.981      599971.132 2    467530.052 1
  24426128.643       34842.449 2     27149.408 1
  22610894.304       98449.431 4     76774.408 2
  22196654.576      181981.834 5    141848.424 3
  24285683.371      161882.802 2    126129.711 2
 91  4  7  0  1  0.0040000  0  5 15 13 06 02 19
  25249517.323      593579.383 2    462549.547 1
  24417326.437      -11407.339 2     -8889.199 1
  22608218.056       84383.933 4     65814.319 3
  22198822.075      193366.520 5    150719.623 4
  24294548.234      208418.333 2    162391.084 1
 91  4  7  0  1 15.0040000  0  5 15 13 06 02 19
  25248314.556      587300.030 2    457656.611 1
  24408539.819      -57595.122 2    -44879.506 1
  22605549.004       70366.603 4     54891.759 3
  22200998.269      204802.779 5    159631.000 4
  24303407.701      255019.958 2    198703.944 1
 91  4  7  0  1 30.0040000  0  5 15 13 06 02 19
  25247145.665      581128.446 2    452847.644 1
  24399757.999     -103725.759 2    -80825.302 1
  22602889.845       56392.571 4     44002.942 2
  22203182.856      216285.478 5    168578.562 4
  24312295.948      301682.547 2    235064.298 1
 91  4  7  0  1 45.0040000  0  5 15 13 06 02 19
  25245985.468      575063.828 2    448122.028 1
  24390992.068     -149800.063 2   -116727.141 1
  22600241.478       42460.965 4     33147.191 3
  22205377.337      227813.266 5    177561.264 4
  24321175.201      348404.848 2    271471.222 1
 91  4  7  0  2  0.0040000  0  5 15 13 06 02 19
  25244859.148      569108.928 2    443481.923 1
  24382235.130     -195814.822 2   -152582.588 1
  22597597.908       28574.710 4     22326.771 3
  22207578.713      239388.954 5    186581.294 4
  24330084.433      395189.599 2    307926.787 1
 91  4  7  0  2 15.0040000  0  5 15 13 06 02 19
  25243737.324      563258.862 2    438923.488 1
  24373484.488     -241774.596 2   -188395.244 1
  22594963.932       14728.921 4     11537.886 2
  22209789.083      251007.211 5    195634.483 4
  24338995.164      442031.452 2    344426.853 1
 91  4  7  0  2 30.0040000  0  5 15 13 06 02 19
  25242647.879      557520.616 2    434452.199 1
  24364757.829     -287672.299 2   -224159.517 1
  22592335.352         930.735 4       786.094 3
  22212012.044      262674.884 5    204726.182 4
  24347925.382      488937.428 2    380976.873 1
 91  4  7  0  2 45.0040000  0  5 15 13 06 02 19
  25241582.416      551891.897 2    430066.259 1
  24356033.269     -333510.389 2   -259877.302 1
  22589719.962      -12822.404 4     -9930.604 3
  22214238.003      274389.213 5    213854.240 4
  24356860.696      535904.607 2    417574.612 1
 91  4  7  0  3  0.0040000  0  5 15 13 06 02 19
  25240534.941      546380.638 2    425771.815 1
  24347318.902     -379280.634 2   -295542.212 1
  22587112.367      -26522.560 4    -20606.019 3
  22216478.652      286157.803 5    223024.575 4
  24365811.000      582940.669 2    454226.002 1
 91  4  7  0  3 15.0040000  0  5 15 13 06 02 19
  25239498.859      540977.955 2    421561.984 1
  24338624.921     -424991.673 2   -331161.047 1
  22584517.064      -40178.377 4    -31246.878 3
  22218726.796      297971.641 5    232230.164 4
  24374775.094      630036.724 2    490924.166 1
 91  4  7  0  3 30.0040000  0  5 15 13 06 02 19
  25238496.652      535680.216 2    417433.962 1
  24329935.736     -470647.352 2   -366736.712 1
  22581919.662      -53793.867 4    -41856.316 3
  22220982.734      309826.446 5    241467.686 4
  24383745.784      677188.408 2    527665.641 1
 91  4  7  0  3 45.0040000  0  5 15 13 06 02 19
  25237499.243      530495.362 2    413393.864 1
  24321260.941     -516239.567 2   -402262.983 1
  22579341.747      -67360.896 4    -52427.996 3
  22223248.265      321730.097 5    250743.267 4
  24392727.566      724403.466 2    564456.495 1
 91  4  7  0  4  0.0040000  0  5 15 13 06 02 19
  25236542.905      525419.292 2    409438.506 1
  24312598.139     -561772.279 2   -437742.786 1
  22576767.729      -80883.631 4    -62965.159 3
  22225520.992      333678.006 5    260053.330 4
  24401725.537      771677.739 2    601293.525 1
 91  4  7  0  4 15.0040000  0  5 15 13 06 02 19
  25235595.261      520459.117 2    405573.557 1
  24303945.529     -607238.461 2   -473170.829 1
  22574205.403      -94355.067 4    -73462.354 3
  22227804.811      345676.900 5    269403.119 4
  24410733.401      819017.645 2    638181.690 1
 91  4  7  0  4 30.0040000  0  5 15 13 06 02 19
  25234673.999      515612.749 2    401797.219 1
  24295307.009     -652640.025 2   -508548.467 1
  22571650.571     -107777.155 4    -83921.085 3
  22230097.923      357724.506 5    278790.871 4
  24419761.351      866420.825 2    675119.130 1
 91  4  7  0  4 45.0040000  0  5 15 13 06 02 19
  25233771.923      510882.988 2    398111.748 1
  24286670.588     -697973.940 2   -543873.415 1
  22569106.533     -121147.187 4    -94339.257 3
  22232401.529      369823.366 5    288218.565 4
  24428786.303      913889.678 2    712107.713 1
 91  4  7  0  5  0.0040000  0  5 15 13 06 02 19
  25232895.630      506269.016 2    394516.468 1
  24278064.146     -743240.823 2   -579146.141 1
  22566571.787     -134465.884 4   -104717.425 3
  22234712.929      381972.338 5    297685.298 4
  24437836.738      961423.312 2    749146.797 1
 91  4  7  0  5 15.0040000  0  5 15 13 06 02 19
  25232045.418      501771.701 2    391012.157 1
  24269462.201     -788439.535 2   -614365.738 1
  22564046.336     -147732.420 4   -115054.949 3
  22237033.622      394171.871 5    307191.437 3
  24446886.872     1009022.438 2    786236.928 1
 91  4  7  0  5 30.0040000  0  5 15 13 06 02 19
  25231206.599      497384.241 2    387593.356 1
  24260867.151     -833576.775 2   -649537.425 1
  22561531.077     -160953.657 4   -125357.173 3
  22239362.410      406414.897 5    316731.468 4
  24455962.190     1056679.663 2    823372.335 1
 91  4  7  0  5 45.0040000  0  5 15 13 06 02 19
  25230395.061      493113.135 2    384265.318 1
  24252297.284     -878645.986 2   -684656.119 1
  22559023.913     -174123.047 4   -135619.007 3
  22241701.990      418707.683 5    326310.268 4
  24465037.207     1104401.296 2    860557.945 1
 91  4  7  0  6  0.0040000  0  5 15 13 06 02 19
  25229602.410      488951.242 2    381022.346 1
  24243732.513     -923654.322 2   -719727.375 1
  22556528.440     -187247.794 4   -145846.055 3
  22244048.765      431042.618 5    335921.907 4
  24474132.311     1152179.789 2    897787.866 1
 91  4  7  0  6 15.0040000  0  5 15 13 06 02 19
  25228832.243      484900.967 2    377866.414 1
  24235176.137     -968599.109 2   -754749.100 1
  22554037.765     -200325.459 4   -156036.408 3
  22246406.034      443421.929 5    345568.136 4
  24483234.909     1200017.108 2    935063.592 1
 91  4  7  0  6 30.0040000  0  5 15 13 06 02 19
  25228086.959      480971.196 2    374804.236 1
  24226637.748    -1013471.653 2   -789714.547 1
  22551562.378     -213347.263 4   -166183.245 3
  22248770.796      455854.093 5    355255.553 4
  24492357.893     1247921.841 2    972391.880 1
 91  4  7  0  6 45.0040000  0  5 15 13 06 02 19
  25227354.566      477150.280 2    371826.975 1
  24218104.455    -1058283.417 2   -824632.616 1
  22549088.791     -226324.759 4   -176295.552 2
  22251146.052      468327.268 5    364974.914 4
  24501475.182     1295882.202 2   1009763.523 1
 91  4  7  0  7  0.0040000  0  5 15 13 06 02 19
  25226653.051      473441.171 2    368936.850 1
  24209596.345    -1103031.382 2   -859501.013 1
  22546630.493     -239255.118 4   -186371.136 3
  22253526.704      480843.913 5    374728.154 4
  24510626.047     1343900.577 2   1047180.362 1
 91  4  7  0  7 15.0040000  0  5 15 13 06 02 19
  25225969.225      469849.008 2    366137.772 1
  24201095.730    -1147709.889 2   -894315.283 1
  22544178.490     -252133.142 4   -196405.922 2
  22255917.849      493408.855 5    384519.030 4
  24519768.218     1391981.966 2   1084646.291 1
 91  4  7  0  7 30.0040000  0  5 15 13 06 02 19
  25225306.684      466367.056 2    363424.628 1
  24192601.411    -1192325.660 2   -929080.644 1
  22541739.678     -264965.429 4   -206405.074 3
  22258316.788      506015.112 5    394342.097 4
  24528930.475     1440119.240 2   1122155.771 1
 91  4  7  0  7 45.0040000  0  5 15 13 06 02 19
  25224665.128      462999.055 2    360800.255 1
  24184123.879    -1236874.743 2   -963794.058 1
  22539305.963     -277748.308 4   -216365.719 2
  22260725.620      518666.235 5    404200.120 4
  24538093.931     1488315.857 2   1159711.479 1
 91  4  7  0  8  0.0040000  0  5 15 13 06 02 19
  25224043.358      459752.352 2    358270.428 1
  24175664.636    -1281349.746 3   -998449.733 1
  22536885.139     -290474.337 4   -226282.082 3
  22263139.849      531369.246 5    414098.580 4
  24547285.868     1536578.794 2   1197318.854 1
 91  4  7  0  8 15.0040000  0  5 15 13 06 02 19
  25223452.767      456623.495 2    355832.414 1
  24167208.989    -1325754.085 2  -1033050.346 1
  22534472.409     -303146.993 4   -236156.847 3
  22265567.868      544120.478 5    424034.613 4
  24556483.500     1584904.555 2   1234975.196 1
 91  4  7  0  8 30.0040000  0  5 15 13 06 02 19
  25222879.264      453611.396 2    353485.373 1
  24158775.228    -1370088.823 3  -1067596.711 1
  22532072.271     -315767.459 4   -245990.949 3
  22268002.782      556918.481 5    434007.093 4
  24565690.726     1633291.532 2   1272679.232 1
 91  4  7  0  8 45.0040000  0  5 15 13 06 02 19
  25222326.447      450718.257 2    351231.023 1
  24150353.158    -1414351.544 2  -1102087.017 1
  22529679.028     -328333.541 4   -255782.666 3
  22270448.489      569765.105 5    444017.456 4
  24574905.147     1681741.524 2   1310432.391 1
 91  4  7  0  9  0.0040000  0  5 15 13 06 02 19
  25221795.514      447944.757 2    349069.948 1
  24141944.580    -1458541.625 2  -1136520.706 1
  22527299.575     -340844.532 4   -265531.462 2
  22272900.492      582660.648 5    454065.943 4
  24584136.357     1730255.045 2   1348235.022 1
 91  4  7  0  9 15.0040000  0  5 15 13 06 02 19
  25221290.964      445292.645 2    347003.342 1
  24133548.592    -1502657.044 2  -1170896.138
  22524927.317     -353298.565 4   -275235.879 2
  22275365.685      595606.489 5    464153.617 4
  24593375.960     1778833.491 2   1386088.272 1
 91  4  7  0  9 30.0040000  0  5 15 13 06 02 19
  25220810.096      442762.789 2    345032.077 1
  24125164.596    -1546696.500 2  -1205212.473 1
  22522571.248     -365694.610 4   -284895.092 3
  22277834.776      608603.493 5    474281.152 4
  24602644.344     1827477.638 2   1423992.690 1
 91  4  7  0  9 45.0040000  0  5 15 13 06 02 19
  25220352.613      440350.366 2    343152.372 1
  24116800.686    -1590664.729 2  -1239473.275 1
  22520219.676     -378037.428 4   -294512.840 3
  22280318.856      621646.562 5    484444.592 4
  24611908.230     1876182.289 2   1461944.283 1
 91  4  7  0 10  0.0040000  0  5 15 13 06 02 19
  25219914.317      438063.256 2    341370.213 1
  24108447.569    -1634553.801 2  -1273672.392 1
  22517884.293     -390319.448 4   -304083.214 3
  22282810.132      634743.101 5    494649.704 3
  24621199.099     1924954.857 2   1499948.762 1
 91  4  7  0 10 15.0040000  0  5 15 13 06 02 19
  25219501.203      435898.518 2    339683.437
  24100110.341    -1678366.430 2  -1307811.923 1
  22515557.604     -402543.456 4   -313608.387 3
  22285313.698      647889.871 5    504893.945 3
  24630484.870     1973792.076 2   1538003.660 1
 91  4  7  0 10 30.0040000  0  5 15 13 06 02 19
  25219118.368      433855.850 2    338091.788 1
  24091791.400    -1722102.666 2  -1341891.973 1
  22513245.904     -414709.685 4   -323088.524 3
  22287822.961      661086.502 5    515177.032 4
  24639795.824     2022693.541 2   1576108.610 1
 91  4  7  0 10 45.0040000  0  5 15 13 06 02 19
  25218756.518      431937.775 2    336597.275 1
  24083479.054    -1765760.033 2  -1375910.496 1
  22510938.102     -426815.539 4   -332521.622 2
  22290348.113      674335.335 5    525500.807 4
  24649104.980     2071661.535 2   1614265.389 1
 91  4  7  0 11  0.0050000  0  5 15 13 06 02 19
  25218409.358      430147.086 2    335201.944 1
  24075182.898    -1809338.676 2  -1409867.752 1
  22508649.186     -438858.830 4   -341905.964 3
  22292877.162      687639.700 5    535867.851 4
  24658446.812     2120701.859 2   1652478.541 1
 91  4  7  0 11 15.0050000  0  5 15 13 06 02 19
  25218092.778      428483.316 2    333905.540 1
  24066915.521    -1852833.579 2  -1443759.743 1
  22506365.068     -450838.928 4   -351241.071 3
  22295422.400      700996.678 4    546275.888 4
  24667779.951     2169806.780 2   1690742.004 1
 91  4  7  0 11 30.0050000  0  5 15 13 06 02 19
  25217800.180      426940.808 2    332703.611 1
  24058645.147    -1896252.574 2  -1477592.541 1
  22504098.936     -462761.943 4   -360531.697 3
  22297968.837      714401.461 4    556721.176 3
  24677145.468     2218973.842 2   1729053.853 1
 91  4  7  0 11 45.0050000  0  5 15 13 06 02 19
  25217526.170      425517.530 2    331594.620 1
  24050394.558    -1939597.269 2  -1511367.502 1
  22501840.600     -474629.888 4   -369779.415 3
  22300532.662      727851.821 5    567201.989 3
  24686503.789     2268200.704 2   1767412.368 1
 91  4  7  0 12  0.0050000  0  5 15 13 06 02 19
  25217285.137      424218.607 2    330582.492 1
  24042164.356    -1982862.620 2  -1545080.611 1
  22499593.655     -486437.616 4   -378980.213 3
  22303097.387      741352.525 4    577722.023 3
  24695886.094     2317492.149 2   1805821.196 1
 91  4  7  0 12 15.0050000  0  5 15 13 06 02 19
  25217057.295      423046.361 2    329669.102 1
  24033953.041    -2026046.280 2  -1578730.048 1
  22497359.602     -498182.789 4   -388132.263 3
  22305679.799      754905.580 4    588282.848 4
  24705275.893     2366850.205 2   1844281.900 1
 91  4  7  0 12 30.0050000  0  5 15 13 06 02 19
  25216855.234      421989.950 2    328845.954 1
  24025742.924    -2069159.025 2  -1612324.267 1
  22495130.945     -509876.203 4   -397243.984 3
  22308264.910      768499.817 4    598875.767 4
  24714679.184     2416263.707 2   1882785.821 1
 91  4  7  0 12 45.0050000  0  5 15 13 06 02 19
  25216680.156      421056.635 2    328118.749 1
  24017557.991    -2112193.339 2  -1645857.299 1
  22492919.376     -521510.581 4   -406309.694 3
  22310858.714      782142.424 4    609506.375 4
  24724104.958     2465739.652 2   1921338.396 1
 91  4  7  0 13  0.0050000  0  5 15 13 06 02 19
  25216529.660      420241.919 2    327483.946 1
  24009379.353    -2155153.493 2  -1679332.601 1
  22490713.803     -533090.231 4   -415332.758 3
  22313466.009      795828.425 4    620170.799 4
  24733520.540     2515273.260 2   1959935.912 1
 91  4  7  0 13 15.0050000  0  5 15 13 06 02 19
  25216390.856      419549.717 2    326944.623 1
  24001220.801    -2198035.711 2  -1712747.160 1
  22488523.819     -544611.475 4   -424310.321 3
  22316078.700      809561.404 4    630871.822 4
  24742959.805     2564868.014 2   1998581.071 1
 91  4  7  0 13 30.0050000  0  5 15 13 06 02 19
  25216283.530      418986.643 2    326505.907 1
  23993075.739    -2240833.078 3  -1746095.606 1
  22486343.129     -556067.374 4   -433236.966 3
  22318704.283      823347.911 4    641614.553 4
  24752414.060     2614530.240 2   2037278.841 1
 91  4  7  0 13 45.0050000  0  5 15 13 06 02 19
  25216204.385      418543.888 2    326160.963 1
  23984947.466    -2283554.057 3  -1779384.542 1
  22484173.531     -567466.838 4   -442119.621 3
  22321335.561      837178.878 4    652391.937 3
  24761870.414     2664251.095 2   2076022.306 1
 91  4  7  0 14  0.0050000  0  5 15 13 06 02 19
  25216148.624      418231.653 2    325917.684 1
  23976828.487    -2326188.526 3  -1812606.030 1
  22482017.123     -578799.596 4   -450950.307 3
  22323976.732      851064.154 4    663211.632 4
  24771360.344     2714040.201 2   2114818.896 1
 91  4  7  0 14 15.0050000  0  5 15 13 06 02 19
  25216109.351      418052.621 2    325778.309 1
  23968738.887    -2368733.480 3  -1845757.785 1
  22479873.607     -590062.809 4   -459726.803 3
  22326630.795      865006.242 4    674075.602 3
  24780837.383     2763900.306 2   2153670.851 1
 91  4  7  0 14 30.0050000  0  5 15 13 06 02 19
  25216104.554      418000.617 2    325737.735 2
  23960655.284    -2411194.868 3  -1878844.466 1
  22477739.984     -601262.565 4   -468453.858 3
  22329294.451      878998.772 5    684978.883 3
  24790339.605     2813824.942 2   2192573.032 1
 91  4  7  0 14 45.0050000  0  5 15 13 06 02 19
  25216112.648      418074.372 2    325795.298 1
  23952591.766    -2453573.910 3  -1911866.954 1
  22475625.548     -612400.170 4   -477132.476 3
  22331965.002      893040.193 4    695920.259 3
  24799852.919     2863812.553 2   2231524.345 1
 91  4  7  0 15  0.0050000  0  5 15 13 06 02 19
  25216148.324      418269.463 2    325947.323 1
  23944537.841    -2495875.015 3  -1944828.685 1
  22473512.911     -623480.101 4   -485766.169 3
  22334646.046      907125.612 4    706895.908 4
  24809377.325     2913858.058 2   2270520.727 1
 91  4  7  0 15 15.0050000  0  5 15 13 06 02 19
  25216210.381      418588.497 2    326196.038 1
  23936509.699    -2538095.359 3  -1977727.489 1
  22471416.162     -634499.613 4   -494352.772 3
  22337334.585      921257.583 4    717907.840 3
  24818913.724     2963963.775 2   2309564.001 1
 91  4  7  0 15 30.0050000  0  5 15 13 06 02 19
  25216292.224      419028.368 2    326538.777 1
  23928485.454    -2580237.844 3  -2010565.634 1
  22469332.305     -645461.756 4   -502894.673 3
  22340030.619      935432.546 4    728953.268 3
  24828455.218     3014126.205 2   2348651.534 1
 91  4  7  0 15 45.0050000  0  5 15 13 06 02 19
  25216401.648      419583.529 2    326971.462 1
  23920482.794    -2622308.012 3  -2043347.454 1
  22467256.542     -656371.944 4   -511396.087 3
  22342737.145      949644.937 4    740027.867 3
  24838012.901     3064339.827 2   2387778.911 1
 91  4  7  0 16  0.0050000  0  5 15 13 06 02 19
  25216529.360      420260.271 2    327498.814 1
  23912489.728    -2664299.112 3  -2076067.659 1
  22465187.974     -667223.819 4   -519852.065 3
  22345448.768      963900.946 4    751136.435 4
  24847587.073     3114610.661 2   2426950.846 1
 91  4  7  0 16 15.0050000  0  5 15 13 06 02 19
  25216683.153      421069.475 2    328129.409 1
  23904515.248    -2706200.135 3  -2108717.650 1
  22463139.192     -678006.360 4   -528254.018 3
  22348171.483      978211.155 4    762287.252 3
  24857150.453     3164949.444 2   2466175.750 1
 91  4  7  0 16 30.0050000  0  5 15 13 06 02 19
  25216861.530      422002.698 2    328856.673 1
  23896559.356    -2748019.469 3  -2141303.999 1
  22461098.805     -688728.193 4   -536608.653 3
  22350903.791      992566.636 4    773473.342 3
  24866749.208     3215347.092 2   2505446.524 1
 91  4  7  0 16 45.0050000  0  5 15 13 06 02 19
  25217060.892      423059.530 2    329680.219 1
  23888617.554    -2789757.764 3  -2173827.215 1
  22459067.711     -699389.738 4   -544916.325 3
  22353646.892     1006966.449 4    784693.982 3
  24876346.763     3265802.853 2   2544762.559 1
 91  4  7  0 17  0.0050000  0  5 15 13 06 02 19
  25217286.036      424240.936 2    330600.826 1
  23880689.842    -2831413.401 3  -2206286.004 1
  22457051.307     -709989.610 4   -553175.946 3
  22356392.991     1021411.698 4    795950.018 4
  24885960.808     3316317.667 2   2584124.637 1
 91  4  7  0 17 15.0050000  0  5 15 13 06 02 19
  25217533.665      425544.930 2    331616.985 1
  23872777.420    -2872988.433 3  -2238681.996 1
  22455046.595     -720530.038 4   -561389.230 3
  22359148.983     1035900.112 4    807239.691 3
  24895580.248     3366889.279 2   2623530.989 1
 91  4  7  0 17 30.0050000  0  5 15 13 06 02 19
  25217810.073      426976.303 2    332732.419 1
  23864884.484    -2914477.973 3  -2271011.339 1
  22453053.574     -731006.163 4   -569552.421 3
  22361915.468     1050436.127 4    818566.458 3
  24905224.572     3417521.984 2   2662984.930 1
 91  4  7  0 17 45.0050000  0  5 15 13 06 02 19
  25218103.870      428534.194 2    333946.363 1
  23857002.941    -2955882.339 3  -2303274.349 1
  22451070.447     -741418.373 4   -577665.806 3
  22364691.246     1065018.989 4    829929.738 3
  24914867.096     3468215.043 2   2702485.896 1
 91  4  7  0 18  0.0050000  0  5 15 13 06 02 19
  25218419.851      430212.774 2    335254.417 1
  23849135.487    -2997207.454 3  -2335475.603 1
  22449100.811     -751772.576 4   -585733.986 3
  22367475.719     1079642.554 4    841324.719 3
  24924527.309     3518961.925 2   2742028.794 1
 91  4  7  0 18 15.0050000  0  5 15 13 06 02 19
  25218763.114      432015.568 2    336659.228 1
  23841293.516    -3038449.533 3  -2367612.143 1
  22447141.068     -762065.287 4   -593754.260 3
  22370265.587     1094309.958 5    852753.874 3
  24934193.217     3569766.097 2   2781616.357 1
